<?xml version='1.0' encoding='UTF-8'?><gpx version="1.1" creator="JPX - https://github.com/jenetics/jpx" xmlns="http://www.topografix.com/GPX/1/1"><trk><trkseg><trkpt lat="43.8550908" lon="12.8694819"><ele>154.33333333333331</ele><time>2026-04-13T13:29:51.263Z</time></trkpt><trkpt lat="43.8550623" lon="12.8692422"><ele>153.66666666666666</ele><time>2026-04-13T13:29:52.264Z</time></trkpt><trkpt lat="43.8550337" lon="12.8689911"><ele>153.0</ele><time>2026-04-13T13:29:53.263Z</time></trkpt><trkpt lat="43.8550101" lon="12.8687281"><ele>153.0</ele><time>2026-04-13T13:29:54.263Z</time></trkpt><trkpt lat="43.8549911" lon="12.868464"><ele>153.0</ele><time>2026-04-13T13:29:55.263Z</time></trkpt><trkpt lat="43.8549748" lon="12.8681975"><ele>153.0</ele><time>2026-04-13T13:29:56.263Z</time></trkpt><trkpt lat="43.8549666" lon="12.8679556"><ele>153.0</ele><time>2026-04-13T13:29:57.264Z</time></trkpt><trkpt lat="43.8549645" lon="12.8677134"><ele>153.0</ele><time>2026-04-13T13:29:58.263Z</time></trkpt><trkpt lat="43.8549687" lon="12.8674593"><ele>153.0</ele><time>2026-04-13T13:29:59.263Z</time></trkpt><trkpt lat="43.8549754" lon="12.8672001"><ele>153.0</ele><time>2026-04-13T13:30:00.263Z</time></trkpt><trkpt lat="43.8549894" lon="12.866937"><ele>153.0</ele><time>2026-04-13T13:30:01.263Z</time></trkpt><trkpt lat="43.8550016" lon="12.8666788"><ele>153.0</ele><time>2026-04-13T13:30:02.263Z</time></trkpt><trkpt lat="43.8550094" lon="12.8664382"><ele>153.66666666666666</ele><time>2026-04-13T13:30:03.263Z</time></trkpt><trkpt lat="43.855018" lon="12.8661979"><ele>154.33333333333331</ele><time>2026-04-13T13:30:04.263Z</time></trkpt><trkpt lat="43.8550403" lon="12.8659421"><ele>155.0</ele><time>2026-04-13T13:30:05.263Z</time></trkpt><trkpt lat="43.8550724" lon="12.865669"><ele>155.5</ele><time>2026-04-13T13:30:06.263Z</time></trkpt><trkpt lat="43.8551139" lon="12.8653584"><ele>156.0</ele><time>2026-04-13T13:30:07.262Z</time></trkpt><trkpt lat="43.8551586" lon="12.8650146"><ele>151.5</ele><time>2026-04-13T13:30:08.263Z</time></trkpt><trkpt lat="43.8551991" lon="12.8646417"><ele>147.0</ele><time>2026-04-13T13:30:09.263Z</time></trkpt><trkpt lat="43.8552354" lon="12.8642385"><ele>147.0</ele><time>2026-04-13T13:30:10.263Z</time></trkpt><trkpt lat="43.8552649" lon="12.8638432"><ele>147.0</ele><time>2026-04-13T13:30:11.263Z</time></trkpt><trkpt lat="43.8552893" lon="12.8634775"><ele>151.0</ele><time>2026-04-13T13:30:12.263Z</time></trkpt><trkpt lat="43.85531" lon="12.8631338"><ele>155.0</ele><time>2026-04-13T13:30:13.262Z</time></trkpt><trkpt lat="43.8553331" lon="12.8627914"><ele>155.5</ele><time>2026-04-13T13:30:14.263Z</time></trkpt><trkpt lat="43.8553556" lon="12.8624497"><ele>156.0</ele><time>2026-04-13T13:30:15.263Z</time></trkpt><trkpt lat="43.8553732" lon="12.8621116"><ele>156.0</ele><time>2026-04-13T13:30:16.264Z</time></trkpt><trkpt lat="43.855382" lon="12.8617833"><ele>156.0</ele><time>2026-04-13T13:30:17.264Z</time></trkpt><trkpt lat="43.8553866" lon="12.8614762"><ele>156.0</ele><time>2026-04-13T13:30:18.263Z</time></trkpt><trkpt lat="43.8553844" lon="12.8611844"><ele>156.0</ele><time>2026-04-13T13:30:19.263Z</time></trkpt><trkpt lat="43.855383" lon="12.8609143"><ele>156.0</ele><time>2026-04-13T13:30:20.262Z</time></trkpt><trkpt lat="43.8553814" lon="12.8606712"><ele>157.0</ele><time>2026-04-13T13:30:21.264Z</time></trkpt><trkpt lat="43.8553804" lon="12.8604984"><ele>158.0</ele><time>2026-04-13T13:30:22.263Z</time></trkpt><trkpt lat="43.8553733" lon="12.8603329"><ele>159.0</ele><time>2026-04-13T13:30:23.263Z</time></trkpt><trkpt lat="43.8553544" lon="12.860172"><ele>160.0</ele><time>2026-04-13T13:30:24.263Z</time></trkpt><trkpt lat="43.8553152" lon="12.8600237"><ele>160.0</ele><time>2026-04-13T13:30:25.263Z</time></trkpt><trkpt lat="43.8552477" lon="12.8598696"><ele>160.0</ele><time>2026-04-13T13:30:26.264Z</time></trkpt><trkpt lat="43.8551747" lon="12.8597183"><ele>160.0</ele><time>2026-04-13T13:30:27.264Z</time></trkpt><trkpt lat="43.8551081" lon="12.8595776"><ele>160.0</ele><time>2026-04-13T13:30:28.263Z</time></trkpt><trkpt lat="43.8550365" lon="12.8594262"><ele>160.5</ele><time>2026-04-13T13:30:29.264Z</time></trkpt><trkpt lat="43.8549616" lon="12.8592658"><ele>161.0</ele><time>2026-04-13T13:30:30.264Z</time></trkpt><trkpt lat="43.8548871" lon="12.8590975"><ele>161.5</ele><time>2026-04-13T13:30:31.263Z</time></trkpt><trkpt lat="43.8548129" lon="12.8589191"><ele>162.0</ele><time>2026-04-13T13:30:32.263Z</time></trkpt><trkpt lat="43.8547385" lon="12.858731"><ele>162.0</ele><time>2026-04-13T13:30:33.263Z</time></trkpt><trkpt lat="43.8546532" lon="12.8585061"><ele>162.0</ele><time>2026-04-13T13:30:34.264Z</time></trkpt><trkpt lat="43.8545699" lon="12.8583016"><ele>162.0</ele><time>2026-04-13T13:30:35.263Z</time></trkpt><trkpt lat="43.8544941" lon="12.8581124"><ele>161.75</ele><time>2026-04-13T13:30:36.263Z</time></trkpt><trkpt lat="43.8544224" lon="12.8579381"><ele>161.5</ele><time>2026-04-13T13:30:37.264Z</time></trkpt><trkpt lat="43.8543466" lon="12.8577652"><ele>161.25</ele><time>2026-04-13T13:30:38.264Z</time></trkpt><trkpt lat="43.8542755" lon="12.8575977"><ele>161.0</ele><time>2026-04-13T13:30:39.263Z</time></trkpt><trkpt lat="43.8542127" lon="12.8574636"><ele>161.0</ele><time>2026-04-13T13:30:40.263Z</time></trkpt><trkpt lat="43.8541543" lon="12.8573439"><ele>161.0</ele><time>2026-04-13T13:30:41.264Z</time></trkpt><trkpt lat="43.8540961" lon="12.8572494"><ele>161.0</ele><time>2026-04-13T13:30:42.263Z</time></trkpt><trkpt lat="43.8540351" lon="12.8571969"><ele>161.0</ele><time>2026-04-13T13:30:43.262Z</time></trkpt><trkpt lat="43.8539704" lon="12.8571916"><ele>161.0</ele><time>2026-04-13T13:30:44.263Z</time></trkpt><trkpt lat="43.8538842" lon="12.8572034"><ele>161.0</ele><time>2026-04-13T13:30:45.263Z</time></trkpt><trkpt lat="43.8537987" lon="12.8571818"><ele>161.0</ele><time>2026-04-13T13:30:46.264Z</time></trkpt><trkpt lat="43.8537133" lon="12.8571195"><ele>161.0</ele><time>2026-04-13T13:30:47.264Z</time></trkpt><trkpt lat="43.8535789" lon="12.8570148"><ele>161.0</ele><time>2026-04-13T13:30:48.264Z</time></trkpt><trkpt lat="43.853416" lon="12.8568947"><ele>161.0</ele><time>2026-04-13T13:30:49.263Z</time></trkpt><trkpt lat="43.8532173" lon="12.8567725"><ele>165.0</ele><time>2026-04-13T13:30:50.263Z</time></trkpt><trkpt lat="43.8529873" lon="12.8566738"><ele>169.0</ele><time>2026-04-13T13:30:51.263Z</time></trkpt><trkpt lat="43.8527208" lon="12.8566109"><ele>170.33333333333334</ele><time>2026-04-13T13:30:52.263Z</time></trkpt><trkpt lat="43.8524753" lon="12.8565566"><ele>171.66666666666666</ele><time>2026-04-13T13:30:53.264Z</time></trkpt><trkpt lat="43.8523016" lon="12.8565199"><ele>173.0</ele><time>2026-04-13T13:30:54.263Z</time></trkpt><trkpt lat="43.8521521" lon="12.8564873"><ele>173.0</ele><time>2026-04-13T13:30:55.264Z</time></trkpt><trkpt lat="43.8520316" lon="12.8564525"><ele>173.0</ele><time>2026-04-13T13:30:56.263Z</time></trkpt><trkpt lat="43.8519348" lon="12.8564084"><ele>173.0</ele><time>2026-04-13T13:30:57.263Z</time></trkpt><trkpt lat="43.8518419" lon="12.8563519"><ele>173.0</ele><time>2026-04-13T13:30:58.264Z</time></trkpt><trkpt lat="43.8517251" lon="12.8562616"><ele>174.0</ele><time>2026-04-13T13:30:59.263Z</time></trkpt><trkpt lat="43.8515728" lon="12.8561382"><ele>175.0</ele><time>2026-04-13T13:31:00.263Z</time></trkpt><trkpt lat="43.8514192" lon="12.8560072"><ele>176.0</ele><time>2026-04-13T13:31:01.263Z</time></trkpt><trkpt lat="43.8512865" lon="12.8558929"><ele>175.8</ele><time>2026-04-13T13:31:02.264Z</time></trkpt><trkpt lat="43.8511696" lon="12.8557931"><ele>175.60000000000002</ele><time>2026-04-13T13:31:03.264Z</time></trkpt><trkpt lat="43.8510721" lon="12.8557104"><ele>175.4</ele><time>2026-04-13T13:31:04.264Z</time></trkpt><trkpt lat="43.8509914" lon="12.855645"><ele>175.2</ele><time>2026-04-13T13:31:05.262Z</time></trkpt><trkpt lat="43.8509167" lon="12.8556142"><ele>175.0</ele><time>2026-04-13T13:31:06.264Z</time></trkpt><trkpt lat="43.8508268" lon="12.8556337"><ele>175.0</ele><time>2026-04-13T13:31:07.264Z</time></trkpt><trkpt lat="43.8506927" lon="12.8556618"><ele>175.0</ele><time>2026-04-13T13:31:08.263Z</time></trkpt><trkpt lat="43.8505599" lon="12.8557139"><ele>175.0</ele><time>2026-04-13T13:31:09.263Z</time></trkpt><trkpt lat="43.8504272" lon="12.8557668"><ele>175.0</ele><time>2026-04-13T13:31:10.263Z</time></trkpt><trkpt lat="43.8502952" lon="12.8558246"><ele>175.0</ele><time>2026-04-13T13:31:11.263Z</time></trkpt><trkpt lat="43.850169" lon="12.8558833"><ele>175.0</ele><time>2026-04-13T13:31:12.263Z</time></trkpt><trkpt lat="43.8500484" lon="12.8559404"><ele>175.0</ele><time>2026-04-13T13:31:13.263Z</time></trkpt><trkpt lat="43.8499316" lon="12.8559934"><ele>175.0</ele><time>2026-04-13T13:31:14.263Z</time></trkpt><trkpt lat="43.8498193" lon="12.8560425"><ele>171.8</ele><time>2026-04-13T13:31:15.264Z</time></trkpt><trkpt lat="43.8497069" lon="12.85609"><ele>168.6</ele><time>2026-04-13T13:31:16.263Z</time></trkpt><trkpt lat="43.8495962" lon="12.856128"><ele>165.4</ele><time>2026-04-13T13:31:17.262Z</time></trkpt><trkpt lat="43.8494907" lon="12.8561564"><ele>162.2</ele><time>2026-04-13T13:31:18.264Z</time></trkpt><trkpt lat="43.8493886" lon="12.8561844"><ele>159.0</ele><time>2026-04-13T13:31:19.263Z</time></trkpt><trkpt lat="43.8492856" lon="12.8562128"><ele>158.2</ele><time>2026-04-13T13:31:20.263Z</time></trkpt><trkpt lat="43.8491771" lon="12.8562534"><ele>157.4</ele><time>2026-04-13T13:31:21.264Z</time></trkpt><trkpt lat="43.8490691" lon="12.8562995"><ele>156.6</ele><time>2026-04-13T13:31:22.263Z</time></trkpt><trkpt lat="43.8489657" lon="12.8563456"><ele>155.8</ele><time>2026-04-13T13:31:23.264Z</time></trkpt><trkpt lat="43.8488681" lon="12.856392"><ele>155.0</ele><time>2026-04-13T13:31:24.263Z</time></trkpt><trkpt lat="43.8487727" lon="12.8564438"><ele>155.0</ele><time>2026-04-13T13:31:25.263Z</time></trkpt><trkpt lat="43.8486763" lon="12.8565016"><ele>155.0</ele><time>2026-04-13T13:31:26.263Z</time></trkpt><trkpt lat="43.8485663" lon="12.8565657"><ele>155.0</ele><time>2026-04-13T13:31:27.262Z</time></trkpt><trkpt lat="43.848437" lon="12.8566492"><ele>155.0</ele><time>2026-04-13T13:31:28.263Z</time></trkpt><trkpt lat="43.8482927" lon="12.8567501"><ele>152.0</ele><time>2026-04-13T13:31:29.264Z</time></trkpt><trkpt lat="43.8481311" lon="12.8568603"><ele>149.0</ele><time>2026-04-13T13:31:30.263Z</time></trkpt><trkpt lat="43.847952" lon="12.8569808"><ele>146.0</ele><time>2026-04-13T13:31:31.264Z</time></trkpt><trkpt lat="43.8477611" lon="12.85711"><ele>146.0</ele><time>2026-04-13T13:31:32.263Z</time></trkpt><trkpt lat="43.8475664" lon="12.8572438"><ele>146.0</ele><time>2026-04-13T13:31:33.263Z</time></trkpt><trkpt lat="43.847369" lon="12.8573742"><ele>146.0</ele><time>2026-04-13T13:31:34.263Z</time></trkpt><trkpt lat="43.8471707" lon="12.8575103"><ele>144.66666666666666</ele><time>2026-04-13T13:31:35.263Z</time></trkpt><trkpt lat="43.8469744" lon="12.8576471"><ele>143.33333333333334</ele><time>2026-04-13T13:31:36.262Z</time></trkpt><trkpt lat="43.8467757" lon="12.857784"><ele>142.0</ele><time>2026-04-13T13:31:37.264Z</time></trkpt><trkpt lat="43.8465808" lon="12.8579195"><ele>142.0</ele><time>2026-04-13T13:31:38.264Z</time></trkpt><trkpt lat="43.8463859" lon="12.858058"><ele>142.0</ele><time>2026-04-13T13:31:39.263Z</time></trkpt><trkpt lat="43.8461895" lon="12.858196"><ele>142.0</ele><time>2026-04-13T13:31:40.263Z</time></trkpt><trkpt lat="43.8459925" lon="12.8583332"><ele>140.66666666666669</ele><time>2026-04-13T13:31:41.263Z</time></trkpt><trkpt lat="43.8457959" lon="12.8584712"><ele>139.33333333333334</ele><time>2026-04-13T13:31:42.263Z</time></trkpt><trkpt lat="43.8455999" lon="12.858605"><ele>138.0</ele><time>2026-04-13T13:31:43.263Z</time></trkpt><trkpt lat="43.8454145" lon="12.8587348"><ele>138.0</ele><time>2026-04-13T13:31:44.263Z</time></trkpt><trkpt lat="43.8452432" lon="12.858854"><ele>138.0</ele><time>2026-04-13T13:31:45.264Z</time></trkpt><trkpt lat="43.8450855" lon="12.8589651"><ele>138.0</ele><time>2026-04-13T13:31:46.263Z</time></trkpt><trkpt lat="43.8449388" lon="12.8590723"><ele>137.5</ele><time>2026-04-13T13:31:47.263Z</time></trkpt><trkpt lat="43.8448049" lon="12.8591695"><ele>137.0</ele><time>2026-04-13T13:31:48.263Z</time></trkpt><trkpt lat="43.8446784" lon="12.8592543"><ele>136.5</ele><time>2026-04-13T13:31:49.264Z</time></trkpt><trkpt lat="43.8445591" lon="12.8593317"><ele>136.0</ele><time>2026-04-13T13:31:50.263Z</time></trkpt><trkpt lat="43.8444499" lon="12.8593957"><ele>136.0</ele><time>2026-04-13T13:31:51.263Z</time></trkpt><trkpt lat="43.8443435" lon="12.8594358"><ele>136.0</ele><time>2026-04-13T13:31:52.263Z</time></trkpt><trkpt lat="43.8442403" lon="12.8594481"><ele>136.0</ele><time>2026-04-13T13:31:53.264Z</time></trkpt><trkpt lat="43.8441342" lon="12.8594452"><ele>136.0</ele><time>2026-04-13T13:31:54.262Z</time></trkpt><trkpt lat="43.8440263" lon="12.8594369"><ele>136.0</ele><time>2026-04-13T13:31:55.264Z</time></trkpt><trkpt lat="43.8439169" lon="12.8594285"><ele>137.4</ele><time>2026-04-13T13:31:56.263Z</time></trkpt><trkpt lat="43.8438115" lon="12.8594184"><ele>138.8</ele><time>2026-04-13T13:31:57.263Z</time></trkpt><trkpt lat="43.843711" lon="12.8594084"><ele>140.20000000000002</ele><time>2026-04-13T13:31:58.263Z</time></trkpt><trkpt lat="43.8436203" lon="12.8594022"><ele>141.6</ele><time>2026-04-13T13:31:59.263Z</time></trkpt><trkpt lat="43.8435368" lon="12.8593971"><ele>143.0</ele><time>2026-04-13T13:32:00.264Z</time></trkpt><trkpt lat="43.8434553" lon="12.859397"><ele>143.8</ele><time>2026-04-13T13:32:01.263Z</time></trkpt><trkpt lat="43.8433793" lon="12.8594152"><ele>144.60000000000002</ele><time>2026-04-13T13:32:02.263Z</time></trkpt><trkpt lat="43.843313" lon="12.8594542"><ele>145.39999999999998</ele><time>2026-04-13T13:32:03.264Z</time></trkpt><trkpt lat="43.8432186" lon="12.8595809"><ele>146.2</ele><time>2026-04-13T13:32:05.264Z</time></trkpt><trkpt lat="43.8431656" lon="12.8596984"><ele>147.0</ele><time>2026-04-13T13:32:06.263Z</time></trkpt><trkpt lat="43.8431027" lon="12.859865"><ele>147.0</ele><time>2026-04-13T13:32:07.263Z</time></trkpt><trkpt lat="43.8430477" lon="12.859989"><ele>147.0</ele><time>2026-04-13T13:32:08.263Z</time></trkpt><trkpt lat="43.8429872" lon="12.8600951"><ele>147.0</ele><time>2026-04-13T13:32:09.263Z</time></trkpt><trkpt lat="43.8429027" lon="12.8601927"><ele>147.0</ele><time>2026-04-13T13:32:10.264Z</time></trkpt><trkpt lat="43.8427954" lon="12.8602746"><ele>147.0</ele><time>2026-04-13T13:32:11.263Z</time></trkpt><trkpt lat="43.8426782" lon="12.8603342"><ele>145.0</ele><time>2026-04-13T13:32:12.263Z</time></trkpt><trkpt lat="43.8425517" lon="12.8603877"><ele>143.0</ele><time>2026-04-13T13:32:13.263Z</time></trkpt><trkpt lat="43.8424182" lon="12.8604313"><ele>141.0</ele><time>2026-04-13T13:32:14.263Z</time></trkpt><trkpt lat="43.8422758" lon="12.8604662"><ele>139.0</ele><time>2026-04-13T13:32:15.263Z</time></trkpt><trkpt lat="43.8421264" lon="12.8604978"><ele>139.0</ele><time>2026-04-13T13:32:16.263Z</time></trkpt><trkpt lat="43.8419721" lon="12.8605149"><ele>139.0</ele><time>2026-04-13T13:32:17.263Z</time></trkpt><trkpt lat="43.8418239" lon="12.8605143"><ele>139.0</ele><time>2026-04-13T13:32:18.263Z</time></trkpt><trkpt lat="43.8416723" lon="12.8605042"><ele>138.75</ele><time>2026-04-13T13:32:19.262Z</time></trkpt><trkpt lat="43.8415125" lon="12.8604888"><ele>138.5</ele><time>2026-04-13T13:32:20.263Z</time></trkpt><trkpt lat="43.8413592" lon="12.8604741"><ele>138.25</ele><time>2026-04-13T13:32:21.264Z</time></trkpt><trkpt lat="43.8412293" lon="12.8604627"><ele>138.0</ele><time>2026-04-13T13:32:22.263Z</time></trkpt><trkpt lat="43.8411087" lon="12.8604597"><ele>138.0</ele><time>2026-04-13T13:32:23.263Z</time></trkpt><trkpt lat="43.8409904" lon="12.8604567"><ele>138.0</ele><time>2026-04-13T13:32:24.263Z</time></trkpt><trkpt lat="43.8408603" lon="12.8604659"><ele>138.0</ele><time>2026-04-13T13:32:25.263Z</time></trkpt><trkpt lat="43.8407452" lon="12.8604788"><ele>138.0</ele><time>2026-04-13T13:32:26.264Z</time></trkpt><trkpt lat="43.8406541" lon="12.8604981"><ele>137.33333333333334</ele><time>2026-04-13T13:32:27.262Z</time></trkpt><trkpt lat="43.8405676" lon="12.8605177"><ele>136.66666666666666</ele><time>2026-04-13T13:32:28.264Z</time></trkpt><trkpt lat="43.8404951" lon="12.8605424"><ele>136.0</ele><time>2026-04-13T13:32:29.263Z</time></trkpt><trkpt lat="43.8404026" lon="12.8606312"><ele>135.33333333333331</ele><time>2026-04-13T13:32:31.263Z</time></trkpt><trkpt lat="43.8403905" lon="12.8607774"><ele>134.66666666666666</ele><time>2026-04-13T13:32:33.264Z</time></trkpt><trkpt lat="43.840402" lon="12.8608641"><ele>134.0</ele><time>2026-04-13T13:32:34.263Z</time></trkpt><trkpt lat="43.8404177" lon="12.8609634"><ele>133.0</ele><time>2026-04-13T13:32:35.263Z</time></trkpt><trkpt lat="43.8404429" lon="12.8611029"><ele>132.0</ele><time>2026-04-13T13:32:36.263Z</time></trkpt><trkpt lat="43.8404806" lon="12.8612811"><ele>131.0</ele><time>2026-04-13T13:32:37.263Z</time></trkpt><trkpt lat="43.8405358" lon="12.8615246"><ele>130.0</ele><time>2026-04-13T13:32:38.264Z</time></trkpt><trkpt lat="43.8406032" lon="12.8618166"><ele>128.0</ele><time>2026-04-13T13:32:39.264Z</time></trkpt><trkpt lat="43.8406637" lon="12.8620659"><ele>126.0</ele><time>2026-04-13T13:32:40.263Z</time></trkpt><trkpt lat="43.8407172" lon="12.8622878"><ele>124.0</ele><time>2026-04-13T13:32:41.264Z</time></trkpt><trkpt lat="43.84077" lon="12.8624928"><ele>122.5</ele><time>2026-04-13T13:32:42.264Z</time></trkpt><trkpt lat="43.8408196" lon="12.8626811"><ele>121.0</ele><time>2026-04-13T13:32:43.262Z</time></trkpt><trkpt lat="43.8408621" lon="12.8628493"><ele>119.5</ele><time>2026-04-13T13:32:44.263Z</time></trkpt><trkpt lat="43.8408949" lon="12.8629981"><ele>118.0</ele><time>2026-04-13T13:32:45.263Z</time></trkpt><trkpt lat="43.8409079" lon="12.8631481"><ele>118.0</ele><time>2026-04-13T13:32:46.263Z</time></trkpt><trkpt lat="43.8408991" lon="12.8633141"><ele>118.0</ele><time>2026-04-13T13:32:47.264Z</time></trkpt><trkpt lat="43.8408627" lon="12.8635"><ele>118.0</ele><time>2026-04-13T13:32:48.263Z</time></trkpt><trkpt lat="43.8408093" lon="12.8636762"><ele>118.0</ele><time>2026-04-13T13:32:49.263Z</time></trkpt><trkpt lat="43.8407488" lon="12.8638271"><ele>116.0</ele><time>2026-04-13T13:32:50.264Z</time></trkpt><trkpt lat="43.8406763" lon="12.8639581"><ele>114.0</ele><time>2026-04-13T13:32:51.263Z</time></trkpt><trkpt lat="43.8405803" lon="12.8640711"><ele>112.0</ele><time>2026-04-13T13:32:52.263Z</time></trkpt><trkpt lat="43.8404639" lon="12.8641638"><ele>110.0</ele><time>2026-04-13T13:32:53.264Z</time></trkpt><trkpt lat="43.8403276" lon="12.8642335"><ele>111.0</ele><time>2026-04-13T13:32:54.264Z</time></trkpt><trkpt lat="43.8402147" lon="12.864284"><ele>112.0</ele><time>2026-04-13T13:32:55.263Z</time></trkpt><trkpt lat="43.840117" lon="12.8643248"><ele>113.0</ele><time>2026-04-13T13:32:56.263Z</time></trkpt><trkpt lat="43.8400259" lon="12.8643641"><ele>114.0</ele><time>2026-04-13T13:32:57.264Z</time></trkpt><trkpt lat="43.8399502" lon="12.8643984"><ele>115.0</ele><time>2026-04-13T13:32:58.263Z</time></trkpt><trkpt lat="43.8398791" lon="12.8644323"><ele>115.00000000000001</ele><time>2026-04-13T13:32:59.263Z</time></trkpt><trkpt lat="43.8398019" lon="12.8644661"><ele>115.0</ele><time>2026-04-13T13:33:00.264Z</time></trkpt><trkpt lat="43.8397228" lon="12.8644972"><ele>115.0</ele><time>2026-04-13T13:33:01.263Z</time></trkpt><trkpt lat="43.839649" lon="12.8645303"><ele>115.0</ele><time>2026-04-13T13:33:02.263Z</time></trkpt><trkpt lat="43.8395697" lon="12.8645663"><ele>115.00000000000001</ele><time>2026-04-13T13:33:03.264Z</time></trkpt><trkpt lat="43.83948" lon="12.8646111"><ele>115.0</ele><time>2026-04-13T13:33:04.264Z</time></trkpt><trkpt lat="43.839379" lon="12.8646612"><ele>114.66666666666667</ele><time>2026-04-13T13:33:05.263Z</time></trkpt><trkpt lat="43.83926" lon="12.8647397"><ele>114.33333333333334</ele><time>2026-04-13T13:33:06.262Z</time></trkpt><trkpt lat="43.8391264" lon="12.8648434"><ele>114.0</ele><time>2026-04-13T13:33:07.263Z</time></trkpt><trkpt lat="43.83897" lon="12.8649725"><ele>114.0</ele><time>2026-04-13T13:33:08.264Z</time></trkpt><trkpt lat="43.8388301" lon="12.865094"><ele>114.0</ele><time>2026-04-13T13:33:09.263Z</time></trkpt><trkpt lat="43.8386958" lon="12.8652008"><ele>114.0</ele><time>2026-04-13T13:33:10.263Z</time></trkpt><trkpt lat="43.8385486" lon="12.8652928"><ele>112.33333333333334</ele><time>2026-04-13T13:33:11.264Z</time></trkpt><trkpt lat="43.8383757" lon="12.8653751"><ele>110.66666666666667</ele><time>2026-04-13T13:33:12.263Z</time></trkpt><trkpt lat="43.8381827" lon="12.8654566"><ele>109.0</ele><time>2026-04-13T13:33:13.263Z</time></trkpt><trkpt lat="43.8380136" lon="12.865527"><ele>109.0</ele><time>2026-04-13T13:33:14.264Z</time></trkpt><trkpt lat="43.8378586" lon="12.8655895"><ele>109.0</ele><time>2026-04-13T13:33:15.263Z</time></trkpt><trkpt lat="43.8376977" lon="12.8656486"><ele>109.0</ele><time>2026-04-13T13:33:16.263Z</time></trkpt><trkpt lat="43.8375608" lon="12.8656976"><ele>108.75</ele><time>2026-04-13T13:33:17.263Z</time></trkpt><trkpt lat="43.8374273" lon="12.8657349"><ele>108.5</ele><time>2026-04-13T13:33:18.263Z</time></trkpt><trkpt lat="43.8372872" lon="12.8657737"><ele>108.25</ele><time>2026-04-13T13:33:19.263Z</time></trkpt><trkpt lat="43.8371558" lon="12.8658078"><ele>108.0</ele><time>2026-04-13T13:33:20.263Z</time></trkpt><trkpt lat="43.8370375" lon="12.8658452"><ele>108.0</ele><time>2026-04-13T13:33:21.263Z</time></trkpt><trkpt lat="43.836923" lon="12.8658809"><ele>108.00000000000001</ele><time>2026-04-13T13:33:22.263Z</time></trkpt><trkpt lat="43.8368222" lon="12.8659049"><ele>108.00000000000001</ele><time>2026-04-13T13:33:23.264Z</time></trkpt><trkpt lat="43.8367364" lon="12.8659258"><ele>108.0</ele><time>2026-04-13T13:33:24.263Z</time></trkpt><trkpt lat="43.8366579" lon="12.8659466"><ele>108.0</ele><time>2026-04-13T13:33:25.263Z</time></trkpt><trkpt lat="43.8365844" lon="12.8659598"><ele>106.66666666666667</ele><time>2026-04-13T13:33:26.263Z</time></trkpt><trkpt lat="43.8364798" lon="12.8659432"><ele>105.33333333333334</ele><time>2026-04-13T13:33:28.263Z</time></trkpt><trkpt lat="43.8364289" lon="12.8658877"><ele>104.0</ele><time>2026-04-13T13:33:29.263Z</time></trkpt><trkpt lat="43.8363886" lon="12.8657974"><ele>102.66666666666667</ele><time>2026-04-13T13:33:30.264Z</time></trkpt><trkpt lat="43.8363687" lon="12.8656852"><ele>101.33333333333334</ele><time>2026-04-13T13:33:31.262Z</time></trkpt><trkpt lat="43.8363708" lon="12.8655364"><ele>100.0</ele><time>2026-04-13T13:33:32.263Z</time></trkpt><trkpt lat="43.8363925" lon="12.8653261"><ele>97.0</ele><time>2026-04-13T13:33:33.264Z</time></trkpt><trkpt lat="43.8364194" lon="12.8650869"><ele>94.0</ele><time>2026-04-13T13:33:34.263Z</time></trkpt><trkpt lat="43.8364435" lon="12.8648855"><ele>91.0</ele><time>2026-04-13T13:33:35.264Z</time></trkpt><trkpt lat="43.836456" lon="12.8647011"><ele>91.0</ele><time>2026-04-13T13:33:36.263Z</time></trkpt><trkpt lat="43.8364702" lon="12.8645253"><ele>91.0</ele><time>2026-04-13T13:33:37.263Z</time></trkpt><trkpt lat="43.8364863" lon="12.8643644"><ele>91.0</ele><time>2026-04-13T13:33:38.263Z</time></trkpt><trkpt lat="43.8365" lon="12.8642073"><ele>91.0</ele><time>2026-04-13T13:33:39.262Z</time></trkpt><trkpt lat="43.8365115" lon="12.864064"><ele>89.83333333333333</ele><time>2026-04-13T13:33:40.263Z</time></trkpt><trkpt lat="43.8365252" lon="12.8639404"><ele>88.66666666666666</ele><time>2026-04-13T13:33:41.263Z</time></trkpt><trkpt lat="43.8365381" lon="12.8638367"><ele>87.5</ele><time>2026-04-13T13:33:42.263Z</time></trkpt><trkpt lat="43.836548" lon="12.8637377"><ele>86.33333333333333</ele><time>2026-04-13T13:33:43.264Z</time></trkpt><trkpt lat="43.836495" lon="12.8635875"><ele>85.16666666666667</ele><time>2026-04-13T13:33:45.263Z</time></trkpt><trkpt lat="43.8364357" lon="12.8635385"><ele>84.0</ele><time>2026-04-13T13:33:46.264Z</time></trkpt><trkpt lat="43.8363444" lon="12.8635111"><ele>84.0</ele><time>2026-04-13T13:33:47.264Z</time></trkpt><trkpt lat="43.8362308" lon="12.8635122"><ele>84.0</ele><time>2026-04-13T13:33:48.263Z</time></trkpt><trkpt lat="43.8360887" lon="12.8635248"><ele>84.0</ele><time>2026-04-13T13:33:49.262Z</time></trkpt><trkpt lat="43.8358559" lon="12.8635749"><ele>79.5</ele><time>2026-04-13T13:33:50.263Z</time></trkpt><trkpt lat="43.8356221" lon="12.8636191"><ele>75.0</ele><time>2026-04-13T13:33:51.264Z</time></trkpt><trkpt lat="43.8354065" lon="12.8636679"><ele>75.0</ele><time>2026-04-13T13:33:52.263Z</time></trkpt><trkpt lat="43.8352177" lon="12.863719"><ele>75.0</ele><time>2026-04-13T13:33:53.263Z</time></trkpt><trkpt lat="43.8350424" lon="12.8637689"><ele>75.0</ele><time>2026-04-13T13:33:54.263Z</time></trkpt><trkpt lat="43.8348768" lon="12.8638204"><ele>73.0</ele><time>2026-04-13T13:33:55.264Z</time></trkpt><trkpt lat="43.8347215" lon="12.8638669"><ele>71.0</ele><time>2026-04-13T13:33:56.264Z</time></trkpt><trkpt lat="43.8345838" lon="12.8639076"><ele>69.0</ele><time>2026-04-13T13:33:57.264Z</time></trkpt><trkpt lat="43.8344578" lon="12.8639472"><ele>67.0</ele><time>2026-04-13T13:33:58.262Z</time></trkpt><trkpt lat="43.834344" lon="12.863981"><ele>66.83333333333333</ele><time>2026-04-13T13:33:59.262Z</time></trkpt><trkpt lat="43.834241" lon="12.8640055"><ele>66.66666666666666</ele><time>2026-04-13T13:34:00.262Z</time></trkpt><trkpt lat="43.8341495" lon="12.8640309"><ele>66.5</ele><time>2026-04-13T13:34:01.263Z</time></trkpt><trkpt lat="43.8340804" lon="12.8640454"><ele>66.33333333333333</ele><time>2026-04-13T13:34:02.263Z</time></trkpt><trkpt lat="43.8339968" lon="12.864041"><ele>66.16666666666667</ele><time>2026-04-13T13:34:04.264Z</time></trkpt><trkpt lat="43.8339609" lon="12.863963"><ele>66.0</ele><time>2026-04-13T13:34:06.263Z</time></trkpt><trkpt lat="43.8339616" lon="12.8638696"><ele>66.0</ele><time>2026-04-13T13:34:07.264Z</time></trkpt><trkpt lat="43.8339715" lon="12.8637281"><ele>66.0</ele><time>2026-04-13T13:34:08.263Z</time></trkpt><trkpt lat="43.8339792" lon="12.8635538"><ele>66.0</ele><time>2026-04-13T13:34:09.263Z</time></trkpt><trkpt lat="43.8340072" lon="12.8632457"><ele>66.5</ele><time>2026-04-13T13:34:10.262Z</time></trkpt><trkpt lat="43.8340231" lon="12.8629155"><ele>67.0</ele><time>2026-04-13T13:34:11.264Z</time></trkpt><trkpt lat="43.8340246" lon="12.8625312"><ele>67.0</ele><time>2026-04-13T13:34:12.264Z</time></trkpt><trkpt lat="43.8340265" lon="12.8621174"><ele>67.0</ele><time>2026-04-13T13:34:13.263Z</time></trkpt><trkpt lat="43.834026" lon="12.8616816"><ele>67.0</ele><time>2026-04-13T13:34:14.263Z</time></trkpt><trkpt lat="43.8340256" lon="12.8612486"><ele>67.0</ele><time>2026-04-13T13:34:15.263Z</time></trkpt><trkpt lat="43.8340347" lon="12.8608267"><ele>66.5</ele><time>2026-04-13T13:34:16.263Z</time></trkpt><trkpt lat="43.8340515" lon="12.8604516"><ele>66.0</ele><time>2026-04-13T13:34:17.263Z</time></trkpt><trkpt lat="43.8340742" lon="12.8601301"><ele>66.33333333333333</ele><time>2026-04-13T13:34:18.263Z</time></trkpt><trkpt lat="43.8341006" lon="12.8598564"><ele>66.66666666666666</ele><time>2026-04-13T13:34:19.263Z</time></trkpt><trkpt lat="43.8341258" lon="12.859631"><ele>67.0</ele><time>2026-04-13T13:34:20.263Z</time></trkpt><trkpt lat="43.8341483" lon="12.8594286"><ele>67.0</ele><time>2026-04-13T13:34:21.263Z</time></trkpt><trkpt lat="43.8341749" lon="12.8592711"><ele>67.0</ele><time>2026-04-13T13:34:22.263Z</time></trkpt><trkpt lat="43.8342007" lon="12.8591238"><ele>67.0</ele><time>2026-04-13T13:34:23.263Z</time></trkpt><trkpt lat="43.8342136" lon="12.8590009"><ele>67.0</ele><time>2026-04-13T13:34:24.263Z</time></trkpt><trkpt lat="43.8342297" lon="12.8589002"><ele>67.0</ele><time>2026-04-13T13:34:25.264Z</time></trkpt><trkpt lat="43.8342414" lon="12.8587851"><ele>67.0</ele><time>2026-04-13T13:34:27.264Z</time></trkpt><trkpt lat="43.8342505" lon="12.8586905"><ele>67.0</ele><time>2026-04-13T13:34:30.264Z</time></trkpt><trkpt lat="43.8342634" lon="12.8585714"><ele>67.0</ele><time>2026-04-13T13:35:23.263Z</time></trkpt><trkpt lat="43.8342773" lon="12.8584846"><ele>67.0</ele><time>2026-04-13T13:35:24.264Z</time></trkpt><trkpt lat="43.8342897" lon="12.8583879"><ele>67.0</ele><time>2026-04-13T13:35:25.264Z</time></trkpt><trkpt lat="43.8343018" lon="12.8582729"><ele>67.0</ele><time>2026-04-13T13:35:26.264Z</time></trkpt><trkpt lat="43.834316" lon="12.8581471"><ele>67.0</ele><time>2026-04-13T13:35:27.263Z</time></trkpt><trkpt lat="43.8343314" lon="12.8580167"><ele>67.0</ele><time>2026-04-13T13:35:28.262Z</time></trkpt><trkpt lat="43.8343514" lon="12.8578801"><ele>67.0</ele><time>2026-04-13T13:35:29.264Z</time></trkpt><trkpt lat="43.8343722" lon="12.857735"><ele>67.0</ele><time>2026-04-13T13:35:30.262Z</time></trkpt><trkpt lat="43.8343936" lon="12.8575827"><ele>67.0</ele><time>2026-04-13T13:35:31.262Z</time></trkpt><trkpt lat="43.8344156" lon="12.8574316"><ele>67.0</ele><time>2026-04-13T13:35:32.263Z</time></trkpt><trkpt lat="43.8344352" lon="12.8572991"><ele>67.0</ele><time>2026-04-13T13:35:33.263Z</time></trkpt><trkpt lat="43.8344499" lon="12.8571698"><ele>67.0</ele><time>2026-04-13T13:35:34.263Z</time></trkpt><trkpt lat="43.8344578" lon="12.8570489"><ele>67.0</ele><time>2026-04-13T13:35:35.264Z</time></trkpt><trkpt lat="43.8344595" lon="12.8569276"><ele>67.0</ele><time>2026-04-13T13:35:36.264Z</time></trkpt><trkpt lat="43.8344579" lon="12.856812"><ele>67.4</ele><time>2026-04-13T13:35:37.263Z</time></trkpt><trkpt lat="43.8344482" lon="12.8567019"><ele>67.80000000000001</ele><time>2026-04-13T13:35:38.263Z</time></trkpt><trkpt lat="43.8344333" lon="12.8565812"><ele>68.2</ele><time>2026-04-13T13:35:39.264Z</time></trkpt><trkpt lat="43.8344115" lon="12.8564523"><ele>68.60000000000001</ele><time>2026-04-13T13:35:40.263Z</time></trkpt><trkpt lat="43.8343873" lon="12.8563179"><ele>69.0</ele><time>2026-04-13T13:35:41.263Z</time></trkpt><trkpt lat="43.8343618" lon="12.8561814"><ele>69.0</ele><time>2026-04-13T13:35:42.264Z</time></trkpt><trkpt lat="43.8343321" lon="12.8560342"><ele>69.0</ele><time>2026-04-13T13:35:43.263Z</time></trkpt><trkpt lat="43.834302" lon="12.8558746"><ele>69.0</ele><time>2026-04-13T13:35:44.263Z</time></trkpt><trkpt lat="43.8342723" lon="12.8557037"><ele>69.0</ele><time>2026-04-13T13:35:45.263Z</time></trkpt><trkpt lat="43.8342456" lon="12.8555305"><ele>69.75</ele><time>2026-04-13T13:35:46.264Z</time></trkpt><trkpt lat="43.8342215" lon="12.8553537"><ele>70.5</ele><time>2026-04-13T13:35:47.262Z</time></trkpt><trkpt lat="43.8341992" lon="12.8551774"><ele>71.25</ele><time>2026-04-13T13:35:48.264Z</time></trkpt><trkpt lat="43.8341764" lon="12.8550038"><ele>72.0</ele><time>2026-04-13T13:35:49.263Z</time></trkpt><trkpt lat="43.8341494" lon="12.8548345"><ele>72.25</ele><time>2026-04-13T13:35:50.264Z</time></trkpt><trkpt lat="43.8341141" lon="12.8546606"><ele>72.5</ele><time>2026-04-13T13:35:51.264Z</time></trkpt><trkpt lat="43.8340659" lon="12.8544807"><ele>72.75</ele><time>2026-04-13T13:35:52.263Z</time></trkpt><trkpt lat="43.8340196" lon="12.8542952"><ele>73.0</ele><time>2026-04-13T13:35:53.264Z</time></trkpt><trkpt lat="43.8339968" lon="12.8540942"><ele>73.0</ele><time>2026-04-13T13:35:54.263Z</time></trkpt><trkpt lat="43.8340033" lon="12.8538902"><ele>73.0</ele><time>2026-04-13T13:35:55.263Z</time></trkpt><trkpt lat="43.8340327" lon="12.8536772"><ele>73.0</ele><time>2026-04-13T13:35:56.263Z</time></trkpt><trkpt lat="43.8340562" lon="12.8534594"><ele>73.66666666666666</ele><time>2026-04-13T13:35:57.263Z</time></trkpt><trkpt lat="43.8340614" lon="12.8532359"><ele>74.33333333333333</ele><time>2026-04-13T13:35:58.263Z</time></trkpt><trkpt lat="43.8340532" lon="12.8530162"><ele>75.0</ele><time>2026-04-13T13:35:59.263Z</time></trkpt><trkpt lat="43.8340348" lon="12.8527971"><ele>75.33333333333333</ele><time>2026-04-13T13:36:00.263Z</time></trkpt><trkpt lat="43.8340105" lon="12.8525743"><ele>75.66666666666666</ele><time>2026-04-13T13:36:01.264Z</time></trkpt><trkpt lat="43.8339868" lon="12.8523545"><ele>76.0</ele><time>2026-04-13T13:36:02.262Z</time></trkpt><trkpt lat="43.8339616" lon="12.8521308"><ele>76.0</ele><time>2026-04-13T13:36:03.264Z</time></trkpt><trkpt lat="43.833933" lon="12.8519032"><ele>76.0</ele><time>2026-04-13T13:36:04.263Z</time></trkpt><trkpt lat="43.8339033" lon="12.8516769"><ele>76.0</ele><time>2026-04-13T13:36:05.263Z</time></trkpt><trkpt lat="43.8338749" lon="12.851447"><ele>76.33333333333333</ele><time>2026-04-13T13:36:06.263Z</time></trkpt><trkpt lat="43.83385" lon="12.8512145"><ele>76.66666666666667</ele><time>2026-04-13T13:36:07.264Z</time></trkpt><trkpt lat="43.8338273" lon="12.8509803"><ele>77.0</ele><time>2026-04-13T13:36:08.264Z</time></trkpt><trkpt lat="43.8338082" lon="12.8507436"><ele>77.0</ele><time>2026-04-13T13:36:09.263Z</time></trkpt><trkpt lat="43.833786" lon="12.8505096"><ele>77.0</ele><time>2026-04-13T13:36:10.263Z</time></trkpt><trkpt lat="43.8337622" lon="12.8502747"><ele>77.0</ele><time>2026-04-13T13:36:11.263Z</time></trkpt><trkpt lat="43.8337385" lon="12.8500401"><ele>77.66666666666667</ele><time>2026-04-13T13:36:12.263Z</time></trkpt><trkpt lat="43.8337139" lon="12.8498092"><ele>78.33333333333333</ele><time>2026-04-13T13:36:13.263Z</time></trkpt><trkpt lat="43.8336901" lon="12.8495811"><ele>79.0</ele><time>2026-04-13T13:36:14.263Z</time></trkpt><trkpt lat="43.8336623" lon="12.8493473"><ele>78.66666666666666</ele><time>2026-04-13T13:36:15.264Z</time></trkpt><trkpt lat="43.8336323" lon="12.8491115"><ele>78.33333333333333</ele><time>2026-04-13T13:36:16.263Z</time></trkpt><trkpt lat="43.8336056" lon="12.8488747"><ele>78.0</ele><time>2026-04-13T13:36:17.263Z</time></trkpt><trkpt lat="43.8335789" lon="12.8486339"><ele>78.66666666666667</ele><time>2026-04-13T13:36:18.262Z</time></trkpt><trkpt lat="43.8335503" lon="12.8483923"><ele>79.33333333333334</ele><time>2026-04-13T13:36:19.262Z</time></trkpt><trkpt lat="43.8335239" lon="12.8481532"><ele>80.0</ele><time>2026-04-13T13:36:20.263Z</time></trkpt><trkpt lat="43.8334965" lon="12.8479219"><ele>79.66666666666667</ele><time>2026-04-13T13:36:21.264Z</time></trkpt><trkpt lat="43.8334694" lon="12.8476974"><ele>79.33333333333333</ele><time>2026-04-13T13:36:22.264Z</time></trkpt><trkpt lat="43.8334419" lon="12.8474738"><ele>79.0</ele><time>2026-04-13T13:36:23.263Z</time></trkpt><trkpt lat="43.8334172" lon="12.8472516"><ele>79.0</ele><time>2026-04-13T13:36:24.263Z</time></trkpt><trkpt lat="43.8333934" lon="12.8470302"><ele>79.0</ele><time>2026-04-13T13:36:25.263Z</time></trkpt><trkpt lat="43.8333691" lon="12.8468066"><ele>79.0</ele><time>2026-04-13T13:36:26.264Z</time></trkpt><trkpt lat="43.8333477" lon="12.846587"><ele>80.0</ele><time>2026-04-13T13:36:27.263Z</time></trkpt><trkpt lat="43.8333286" lon="12.8463888"><ele>81.0</ele><time>2026-04-13T13:36:28.264Z</time></trkpt><trkpt lat="43.8333102" lon="12.8462089"><ele>82.0</ele><time>2026-04-13T13:36:29.263Z</time></trkpt><trkpt lat="43.8332912" lon="12.8460293"><ele>83.0</ele><time>2026-04-13T13:36:30.264Z</time></trkpt><trkpt lat="43.8332675" lon="12.8458512"><ele>84.16666666666667</ele><time>2026-04-13T13:36:31.263Z</time></trkpt><trkpt lat="43.833246" lon="12.8457061"><ele>85.33333333333334</ele><time>2026-04-13T13:36:32.264Z</time></trkpt><trkpt lat="43.8332281" lon="12.8455953"><ele>86.5</ele><time>2026-04-13T13:36:34.264Z</time></trkpt><trkpt lat="43.8332014" lon="12.8454951"><ele>87.66666666666667</ele><time>2026-04-13T13:36:37.263Z</time></trkpt><trkpt lat="43.8331663" lon="12.8454141"><ele>88.83333333333333</ele><time>2026-04-13T13:36:38.263Z</time></trkpt><trkpt lat="43.8331034" lon="12.8453505"><ele>90.0</ele><time>2026-04-13T13:36:39.264Z</time></trkpt><trkpt lat="43.8330151" lon="12.8452866"><ele>90.0</ele><time>2026-04-13T13:36:40.264Z</time></trkpt><trkpt lat="43.83291" lon="12.8452079"><ele>90.0</ele><time>2026-04-13T13:36:41.264Z</time></trkpt><trkpt lat="43.8327929" lon="12.8451199"><ele>90.0</ele><time>2026-04-13T13:36:42.263Z</time></trkpt><trkpt lat="43.8326718" lon="12.8450245"><ele>90.0</ele><time>2026-04-13T13:36:43.263Z</time></trkpt><trkpt lat="43.8325506" lon="12.8449111"><ele>90.33333333333333</ele><time>2026-04-13T13:36:44.264Z</time></trkpt><trkpt lat="43.8324374" lon="12.8447651"><ele>90.66666666666666</ele><time>2026-04-13T13:36:45.263Z</time></trkpt><trkpt lat="43.8323339" lon="12.8446031"><ele>91.0</ele><time>2026-04-13T13:36:46.263Z</time></trkpt><trkpt lat="43.8322325" lon="12.844433"><ele>93.33333333333333</ele><time>2026-04-13T13:36:47.263Z</time></trkpt><trkpt lat="43.8321302" lon="12.8442578"><ele>95.66666666666666</ele><time>2026-04-13T13:36:48.264Z</time></trkpt><trkpt lat="43.8320326" lon="12.8440911"><ele>98.0</ele><time>2026-04-13T13:36:49.264Z</time></trkpt><trkpt lat="43.8319443" lon="12.8439365"><ele>98.0</ele><time>2026-04-13T13:36:50.263Z</time></trkpt><trkpt lat="43.8318605" lon="12.8437979"><ele>98.0</ele><time>2026-04-13T13:36:51.262Z</time></trkpt><trkpt lat="43.8317802" lon="12.8436616"><ele>98.0</ele><time>2026-04-13T13:36:52.264Z</time></trkpt><trkpt lat="43.8317071" lon="12.8435363"><ele>98.0</ele><time>2026-04-13T13:36:53.264Z</time></trkpt><trkpt lat="43.831649" lon="12.8434323"><ele>98.0</ele><time>2026-04-13T13:36:54.263Z</time></trkpt><trkpt lat="43.8316015" lon="12.8433415"><ele>98.0</ele><time>2026-04-13T13:36:55.264Z</time></trkpt><trkpt lat="43.8315467" lon="12.8432249"><ele>98.0</ele><time>2026-04-13T13:36:57.262Z</time></trkpt><trkpt lat="43.8314951" lon="12.8431673"><ele>98.0</ele><time>2026-04-13T13:37:00.263Z</time></trkpt><trkpt lat="43.8313801" lon="12.8432285"><ele>98.0</ele><time>2026-04-13T13:37:02.263Z</time></trkpt><trkpt lat="43.8312942" lon="12.8433076"><ele>98.0</ele><time>2026-04-13T13:37:03.264Z</time></trkpt><trkpt lat="43.8311975" lon="12.843397"><ele>98.0</ele><time>2026-04-13T13:37:04.263Z</time></trkpt><trkpt lat="43.8310915" lon="12.8434875"><ele>98.0</ele><time>2026-04-13T13:37:05.264Z</time></trkpt><trkpt lat="43.8309858" lon="12.843585"><ele>98.0</ele><time>2026-04-13T13:37:06.264Z</time></trkpt><trkpt lat="43.8308857" lon="12.8436723"><ele>96.80000000000001</ele><time>2026-04-13T13:37:07.263Z</time></trkpt><trkpt lat="43.8307923" lon="12.8437621"><ele>95.6</ele><time>2026-04-13T13:37:08.263Z</time></trkpt><trkpt lat="43.8307015" lon="12.8438433"><ele>94.4</ele><time>2026-04-13T13:37:09.263Z</time></trkpt><trkpt lat="43.8306154" lon="12.8439198"><ele>93.19999999999999</ele><time>2026-04-13T13:37:10.263Z</time></trkpt><trkpt lat="43.8305374" lon="12.8439789"><ele>92.0</ele><time>2026-04-13T13:37:11.262Z</time></trkpt><trkpt lat="43.8304627" lon="12.8440118"><ele>92.0</ele><time>2026-04-13T13:37:12.263Z</time></trkpt><trkpt lat="43.830392" lon="12.8440094"><ele>92.0</ele><time>2026-04-13T13:37:13.263Z</time></trkpt><trkpt lat="43.8303229" lon="12.8439744"><ele>92.0</ele><time>2026-04-13T13:37:14.262Z</time></trkpt><trkpt lat="43.8302541" lon="12.8439043"><ele>92.0</ele><time>2026-04-13T13:37:15.263Z</time></trkpt><trkpt lat="43.8301867" lon="12.8438065"><ele>92.0</ele><time>2026-04-13T13:37:16.263Z</time></trkpt><trkpt lat="43.8301152" lon="12.8436897"><ele>92.0</ele><time>2026-04-13T13:37:17.264Z</time></trkpt><trkpt lat="43.8300377" lon="12.8435604"><ele>91.5</ele><time>2026-04-13T13:37:18.263Z</time></trkpt><trkpt lat="43.8299555" lon="12.8434239"><ele>91.0</ele><time>2026-04-13T13:37:19.264Z</time></trkpt><trkpt lat="43.8298691" lon="12.8432959"><ele>90.5</ele><time>2026-04-13T13:37:20.263Z</time></trkpt><trkpt lat="43.8297744" lon="12.8431794"><ele>90.0</ele><time>2026-04-13T13:37:21.263Z</time></trkpt><trkpt lat="43.8296798" lon="12.8430704"><ele>90.0</ele><time>2026-04-13T13:37:22.262Z</time></trkpt><trkpt lat="43.8295824" lon="12.842971"><ele>90.0</ele><time>2026-04-13T13:37:23.263Z</time></trkpt><trkpt lat="43.8294729" lon="12.8428687"><ele>90.0</ele><time>2026-04-13T13:37:24.264Z</time></trkpt><trkpt lat="43.8293629" lon="12.8427676"><ele>90.0</ele><time>2026-04-13T13:37:25.264Z</time></trkpt><trkpt lat="43.8292545" lon="12.842675"><ele>89.0</ele><time>2026-04-13T13:37:26.264Z</time></trkpt><trkpt lat="43.8291595" lon="12.8425828"><ele>88.0</ele><time>2026-04-13T13:37:27.263Z</time></trkpt><trkpt lat="43.8290795" lon="12.842476"><ele>87.0</ele><time>2026-04-13T13:37:28.263Z</time></trkpt><trkpt lat="43.8290145" lon="12.8423373"><ele>86.0</ele><time>2026-04-13T13:37:29.263Z</time></trkpt><trkpt lat="43.8289522" lon="12.8421858"><ele>86.0</ele><time>2026-04-13T13:37:30.263Z</time></trkpt><trkpt lat="43.8288815" lon="12.8420597"><ele>86.0</ele><time>2026-04-13T13:37:31.263Z</time></trkpt><trkpt lat="43.8287967" lon="12.8419677"><ele>86.0</ele><time>2026-04-13T13:37:32.262Z</time></trkpt><trkpt lat="43.82869" lon="12.8418957"><ele>86.0</ele><time>2026-04-13T13:37:33.264Z</time></trkpt><trkpt lat="43.828572" lon="12.8418324"><ele>86.5</ele><time>2026-04-13T13:37:34.262Z</time></trkpt><trkpt lat="43.8284442" lon="12.8417757"><ele>87.0</ele><time>2026-04-13T13:37:35.264Z</time></trkpt><trkpt lat="43.8283057" lon="12.8417335"><ele>87.5</ele><time>2026-04-13T13:37:36.262Z</time></trkpt><trkpt lat="43.8281665" lon="12.841696"><ele>88.0</ele><time>2026-04-13T13:37:37.264Z</time></trkpt><trkpt lat="43.8280264" lon="12.8416629"><ele>88.0</ele><time>2026-04-13T13:37:38.263Z</time></trkpt><trkpt lat="43.8278863" lon="12.841624"><ele>88.0</ele><time>2026-04-13T13:37:39.263Z</time></trkpt><trkpt lat="43.8277483" lon="12.8415768"><ele>88.0</ele><time>2026-04-13T13:37:40.262Z</time></trkpt><trkpt lat="43.8276108" lon="12.8415204"><ele>88.0</ele><time>2026-04-13T13:37:41.263Z</time></trkpt><trkpt lat="43.8274704" lon="12.8414548"><ele>88.25</ele><time>2026-04-13T13:37:42.263Z</time></trkpt><trkpt lat="43.8273396" lon="12.8413934"><ele>88.5</ele><time>2026-04-13T13:37:43.263Z</time></trkpt><trkpt lat="43.8272114" lon="12.8413272"><ele>88.75</ele><time>2026-04-13T13:37:44.263Z</time></trkpt><trkpt lat="43.8270828" lon="12.8412493"><ele>89.0</ele><time>2026-04-13T13:37:45.263Z</time></trkpt><trkpt lat="43.8269479" lon="12.8411631"><ele>88.66666666666667</ele><time>2026-04-13T13:37:46.263Z</time></trkpt><trkpt lat="43.8268048" lon="12.8410721"><ele>88.33333333333333</ele><time>2026-04-13T13:37:47.264Z</time></trkpt><trkpt lat="43.8266621" lon="12.840981"><ele>88.0</ele><time>2026-04-13T13:37:48.263Z</time></trkpt><trkpt lat="43.8265117" lon="12.8408799"><ele>89.66666666666666</ele><time>2026-04-13T13:37:49.263Z</time></trkpt><trkpt lat="43.8263502" lon="12.8407808"><ele>91.33333333333333</ele><time>2026-04-13T13:37:50.263Z</time></trkpt><trkpt lat="43.8261833" lon="12.8406911"><ele>93.0</ele><time>2026-04-13T13:37:51.262Z</time></trkpt><trkpt lat="43.8260063" lon="12.8406074"><ele>92.0</ele><time>2026-04-13T13:37:52.263Z</time></trkpt><trkpt lat="43.8258234" lon="12.8405175"><ele>91.0</ele><time>2026-04-13T13:37:53.264Z</time></trkpt><trkpt lat="43.8256352" lon="12.8404143"><ele>90.0</ele><time>2026-04-13T13:37:54.263Z</time></trkpt><trkpt lat="43.8254385" lon="12.8403029"><ele>90.0</ele><time>2026-04-13T13:37:55.263Z</time></trkpt><trkpt lat="43.8252372" lon="12.8401854"><ele>90.0</ele><time>2026-04-13T13:37:56.263Z</time></trkpt><trkpt lat="43.8250362" lon="12.8400687"><ele>90.0</ele><time>2026-04-13T13:37:57.263Z</time></trkpt><trkpt lat="43.8248463" lon="12.8399627"><ele>90.66666666666667</ele><time>2026-04-13T13:37:58.263Z</time></trkpt><trkpt lat="43.824666" lon="12.839868"><ele>91.33333333333334</ele><time>2026-04-13T13:37:59.264Z</time></trkpt><trkpt lat="43.8244948" lon="12.8397914"><ele>92.0</ele><time>2026-04-13T13:38:00.263Z</time></trkpt><trkpt lat="43.8243318" lon="12.8397249"><ele>92.0</ele><time>2026-04-13T13:38:01.263Z</time></trkpt><trkpt lat="43.8241814" lon="12.8396645"><ele>92.0</ele><time>2026-04-13T13:38:02.263Z</time></trkpt><trkpt lat="43.8240431" lon="12.8395978"><ele>92.0</ele><time>2026-04-13T13:38:03.264Z</time></trkpt><trkpt lat="43.8239059" lon="12.8395233"><ele>92.0</ele><time>2026-04-13T13:38:04.264Z</time></trkpt><trkpt lat="43.8237643" lon="12.8394343"><ele>92.0</ele><time>2026-04-13T13:38:05.264Z</time></trkpt><trkpt lat="43.8236258" lon="12.8393248"><ele>92.0</ele><time>2026-04-13T13:38:06.263Z</time></trkpt><trkpt lat="43.8234965" lon="12.8392039"><ele>93.25</ele><time>2026-04-13T13:38:07.264Z</time></trkpt><trkpt lat="43.823379" lon="12.839086"><ele>94.5</ele><time>2026-04-13T13:38:08.264Z</time></trkpt><trkpt lat="43.8232605" lon="12.8389993"><ele>95.75</ele><time>2026-04-13T13:38:09.263Z</time></trkpt><trkpt lat="43.8231173" lon="12.838936"><ele>97.0</ele><time>2026-04-13T13:38:10.263Z</time></trkpt><trkpt lat="43.8229447" lon="12.8388948"><ele>97.0</ele><time>2026-04-13T13:38:11.263Z</time></trkpt><trkpt lat="43.8227445" lon="12.8388614"><ele>97.0</ele><time>2026-04-13T13:38:12.262Z</time></trkpt><trkpt lat="43.8225701" lon="12.8388261"><ele>97.0</ele><time>2026-04-13T13:38:13.264Z</time></trkpt><trkpt lat="43.8224481" lon="12.8388002"><ele>96.66666666666667</ele><time>2026-04-13T13:38:14.263Z</time></trkpt><trkpt lat="43.8223719" lon="12.8387843"><ele>96.33333333333334</ele><time>2026-04-13T13:38:15.263Z</time></trkpt><trkpt lat="43.822285" lon="12.838788"><ele>96.0</ele><time>2026-04-13T13:38:17.263Z</time></trkpt><trkpt lat="43.822256" lon="12.8388811"><ele>95.66666666666667</ele><time>2026-04-13T13:38:19.263Z</time></trkpt><trkpt lat="43.8222578" lon="12.8389865"><ele>95.33333333333334</ele><time>2026-04-13T13:38:20.263Z</time></trkpt><trkpt lat="43.8222707" lon="12.8391179"><ele>95.0</ele><time>2026-04-13T13:38:21.263Z</time></trkpt><trkpt lat="43.8222811" lon="12.8392374"><ele>94.33333333333334</ele><time>2026-04-13T13:38:22.263Z</time></trkpt><trkpt lat="43.8222933" lon="12.83936"><ele>93.66666666666667</ele><time>2026-04-13T13:38:23.263Z</time></trkpt><trkpt lat="43.8223011" lon="12.8394701"><ele>93.0</ele><time>2026-04-13T13:38:24.263Z</time></trkpt><trkpt lat="43.8223193" lon="12.8395779"><ele>92.33333333333333</ele><time>2026-04-13T13:38:25.264Z</time></trkpt><trkpt lat="43.8223514" lon="12.8396687"><ele>91.66666666666666</ele><time>2026-04-13T13:38:26.263Z</time></trkpt><trkpt lat="43.8224038" lon="12.8397693"><ele>91.0</ele><time>2026-04-13T13:38:27.263Z</time></trkpt><trkpt lat="43.822457" lon="12.8398521"><ele>91.0</ele><time>2026-04-13T13:38:28.263Z</time></trkpt><trkpt lat="43.8224971" lon="12.8399214"><ele>91.0</ele><time>2026-04-13T13:38:29.263Z</time></trkpt><trkpt lat="43.8225264" lon="12.8400053"><ele>91.0</ele><time>2026-04-13T13:38:30.264Z</time></trkpt><trkpt lat="43.8225267" lon="12.8401026"><ele>91.0</ele><time>2026-04-13T13:38:31.262Z</time></trkpt><trkpt lat="43.8225103" lon="12.840215"><ele>91.0</ele><time>2026-04-13T13:38:32.264Z</time></trkpt><trkpt lat="43.8225141" lon="12.8403216"><ele>91.0</ele><time>2026-04-13T13:38:33.263Z</time></trkpt><trkpt lat="43.8225456" lon="12.8404315"><ele>91.0</ele><time>2026-04-13T13:38:34.264Z</time></trkpt><trkpt lat="43.8226135" lon="12.8405636"><ele>91.0</ele><time>2026-04-13T13:38:35.263Z</time></trkpt><trkpt lat="43.8226729" lon="12.8406902"><ele>91.0</ele><time>2026-04-13T13:38:36.263Z</time></trkpt><trkpt lat="43.8227008" lon="12.840812"><ele>91.0</ele><time>2026-04-13T13:38:37.263Z</time></trkpt><trkpt lat="43.8227086" lon="12.8409447"><ele>91.0</ele><time>2026-04-13T13:38:38.263Z</time></trkpt><trkpt lat="43.8226904" lon="12.8410984"><ele>91.0</ele><time>2026-04-13T13:38:39.264Z</time></trkpt><trkpt lat="43.822653" lon="12.8412808"><ele>91.6</ele><time>2026-04-13T13:38:40.263Z</time></trkpt><trkpt lat="43.8226133" lon="12.8414694"><ele>92.19999999999999</ele><time>2026-04-13T13:38:41.264Z</time></trkpt><trkpt lat="43.8225857" lon="12.8416174"><ele>92.80000000000001</ele><time>2026-04-13T13:38:42.263Z</time></trkpt><trkpt lat="43.8225651" lon="12.8417351"><ele>93.4</ele><time>2026-04-13T13:38:43.263Z</time></trkpt><trkpt lat="43.8225296" lon="12.8418278"><ele>94.0</ele><time>2026-04-13T13:38:44.263Z</time></trkpt><trkpt lat="43.8224301" lon="12.8418755"><ele>94.0</ele><time>2026-04-13T13:38:46.263Z</time></trkpt><trkpt lat="43.8223483" lon="12.8418599"><ele>94.0</ele><time>2026-04-13T13:38:47.263Z</time></trkpt><trkpt lat="43.8222331" lon="12.8418217"><ele>94.0</ele><time>2026-04-13T13:38:48.263Z</time></trkpt><trkpt lat="43.8220811" lon="12.8417703"><ele>94.0</ele><time>2026-04-13T13:38:49.263Z</time></trkpt><trkpt lat="43.8218993" lon="12.8417056"><ele>94.6</ele><time>2026-04-13T13:38:50.263Z</time></trkpt><trkpt lat="43.8217801" lon="12.8416589"><ele>95.2</ele><time>2026-04-13T13:38:51.263Z</time></trkpt><trkpt lat="43.8216762" lon="12.8416164"><ele>95.8</ele><time>2026-04-13T13:38:52.263Z</time></trkpt><trkpt lat="43.8215898" lon="12.8415851"><ele>96.39999999999999</ele><time>2026-04-13T13:38:53.263Z</time></trkpt><trkpt lat="43.8215165" lon="12.8415666"><ele>97.0</ele><time>2026-04-13T13:38:54.263Z</time></trkpt><trkpt lat="43.8214473" lon="12.8415657"><ele>97.0</ele><time>2026-04-13T13:38:55.262Z</time></trkpt><trkpt lat="43.8213692" lon="12.8415781"><ele>97.0</ele><time>2026-04-13T13:38:56.263Z</time></trkpt><trkpt lat="43.8212936" lon="12.8416027"><ele>97.0</ele><time>2026-04-13T13:38:57.263Z</time></trkpt><trkpt lat="43.8212256" lon="12.8416346"><ele>97.0</ele><time>2026-04-13T13:38:58.262Z</time></trkpt><trkpt lat="43.8211577" lon="12.8416703"><ele>97.0</ele><time>2026-04-13T13:38:59.263Z</time></trkpt><trkpt lat="43.8210926" lon="12.8417029"><ele>97.0</ele><time>2026-04-13T13:39:00.264Z</time></trkpt><trkpt lat="43.8210299" lon="12.8417299"><ele>97.0</ele><time>2026-04-13T13:39:01.262Z</time></trkpt><trkpt lat="43.8209675" lon="12.8417481"><ele>97.14285714285714</ele><time>2026-04-13T13:39:02.263Z</time></trkpt><trkpt lat="43.8209009" lon="12.8417548"><ele>97.28571428571429</ele><time>2026-04-13T13:39:03.264Z</time></trkpt><trkpt lat="43.8208369" lon="12.8417447"><ele>97.42857142857143</ele><time>2026-04-13T13:39:04.264Z</time></trkpt><trkpt lat="43.8207727" lon="12.8417345"><ele>97.57142857142857</ele><time>2026-04-13T13:39:05.264Z</time></trkpt><trkpt lat="43.8207035" lon="12.8417208"><ele>97.71428571428572</ele><time>2026-04-13T13:39:06.264Z</time></trkpt><trkpt lat="43.8206342" lon="12.8416982"><ele>97.85714285714286</ele><time>2026-04-13T13:39:07.263Z</time></trkpt><trkpt lat="43.8205647" lon="12.8416701"><ele>98.0</ele><time>2026-04-13T13:39:08.264Z</time></trkpt><trkpt lat="43.8204927" lon="12.8416393"><ele>97.99999999999999</ele><time>2026-04-13T13:39:09.262Z</time></trkpt><trkpt lat="43.8204235" lon="12.8416075"><ele>98.0</ele><time>2026-04-13T13:39:10.263Z</time></trkpt><trkpt lat="43.8203506" lon="12.8415785"><ele>98.0</ele><time>2026-04-13T13:39:11.263Z</time></trkpt><trkpt lat="43.8202687" lon="12.8415509"><ele>98.0</ele><time>2026-04-13T13:39:12.263Z</time></trkpt><trkpt lat="43.8201798" lon="12.8415192"><ele>97.99999999999999</ele><time>2026-04-13T13:39:13.264Z</time></trkpt><trkpt lat="43.8200902" lon="12.8414916"><ele>98.0</ele><time>2026-04-13T13:39:14.263Z</time></trkpt><trkpt lat="43.8200035" lon="12.8414703"><ele>99.2</ele><time>2026-04-13T13:39:15.263Z</time></trkpt><trkpt lat="43.8199167" lon="12.8414558"><ele>100.4</ele><time>2026-04-13T13:39:16.263Z</time></trkpt><trkpt lat="43.8198299" lon="12.8414468"><ele>101.60000000000001</ele><time>2026-04-13T13:39:17.263Z</time></trkpt><trkpt lat="43.81974" lon="12.8414404"><ele>102.80000000000001</ele><time>2026-04-13T13:39:18.263Z</time></trkpt><trkpt lat="43.8196285" lon="12.8414311"><ele>104.0</ele><time>2026-04-13T13:39:19.263Z</time></trkpt><trkpt lat="43.8194692" lon="12.8414176"><ele>104.33333333333333</ele><time>2026-04-13T13:39:20.263Z</time></trkpt><trkpt lat="43.8192985" lon="12.8413977"><ele>104.66666666666666</ele><time>2026-04-13T13:39:21.264Z</time></trkpt><trkpt lat="43.8191448" lon="12.8413839"><ele>105.0</ele><time>2026-04-13T13:39:22.264Z</time></trkpt><trkpt lat="43.8189766" lon="12.8413952"><ele>105.0</ele><time>2026-04-13T13:39:23.264Z</time></trkpt><trkpt lat="43.8187793" lon="12.8414082"><ele>105.0</ele><time>2026-04-13T13:39:24.264Z</time></trkpt><trkpt lat="43.8185881" lon="12.8413983"><ele>105.0</ele><time>2026-04-13T13:39:25.264Z</time></trkpt><trkpt lat="43.818421" lon="12.8413726"><ele>104.75</ele><time>2026-04-13T13:39:26.265Z</time></trkpt><trkpt lat="43.8182787" lon="12.8413391"><ele>104.5</ele><time>2026-04-13T13:39:27.264Z</time></trkpt><trkpt lat="43.818161" lon="12.8412988"><ele>104.25</ele><time>2026-04-13T13:39:28.265Z</time></trkpt><trkpt lat="43.8180603" lon="12.8412628"><ele>104.0</ele><time>2026-04-13T13:39:29.264Z</time></trkpt><trkpt lat="43.8179437" lon="12.8412475"><ele>104.0</ele><time>2026-04-13T13:39:30.264Z</time></trkpt><trkpt lat="43.8177889" lon="12.8412656"><ele>104.0</ele><time>2026-04-13T13:39:31.264Z</time></trkpt><trkpt lat="43.8176147" lon="12.8413072"><ele>104.0</ele><time>2026-04-13T13:39:32.265Z</time></trkpt><trkpt lat="43.8174675" lon="12.8413413"><ele>103.25</ele><time>2026-04-13T13:39:33.265Z</time></trkpt><trkpt lat="43.8173245" lon="12.8413766"><ele>102.5</ele><time>2026-04-13T13:39:34.265Z</time></trkpt><trkpt lat="43.8171881" lon="12.841411"><ele>101.75</ele><time>2026-04-13T13:39:35.265Z</time></trkpt><trkpt lat="43.8170614" lon="12.8414465"><ele>101.0</ele><time>2026-04-13T13:39:36.264Z</time></trkpt><trkpt lat="43.8169416" lon="12.8414819"><ele>101.0</ele><time>2026-04-13T13:39:37.264Z</time></trkpt><trkpt lat="43.8168366" lon="12.8415179"><ele>101.0</ele><time>2026-04-13T13:39:38.264Z</time></trkpt><trkpt lat="43.816746" lon="12.8415678"><ele>101.0</ele><time>2026-04-13T13:39:39.264Z</time></trkpt><trkpt lat="43.8166598" lon="12.8416433"><ele>101.0</ele><time>2026-04-13T13:39:40.265Z</time></trkpt><trkpt lat="43.8165793" lon="12.8417503"><ele>101.0</ele><time>2026-04-13T13:39:41.263Z</time></trkpt><trkpt lat="43.8164999" lon="12.8418924"><ele>102.25</ele><time>2026-04-13T13:39:42.265Z</time></trkpt><trkpt lat="43.816408" lon="12.8420458"><ele>103.5</ele><time>2026-04-13T13:39:43.264Z</time></trkpt><trkpt lat="43.8163294" lon="12.8421917"><ele>104.75</ele><time>2026-04-13T13:39:44.264Z</time></trkpt><trkpt lat="43.8162595" lon="12.8423153"><ele>106.0</ele><time>2026-04-13T13:39:45.265Z</time></trkpt><trkpt lat="43.816191" lon="12.8424147"><ele>106.00000000000001</ele><time>2026-04-13T13:39:46.264Z</time></trkpt><trkpt lat="43.8161133" lon="12.8424918"><ele>106.0</ele><time>2026-04-13T13:39:47.263Z</time></trkpt><trkpt lat="43.8160373" lon="12.8425245"><ele>106.0</ele><time>2026-04-13T13:39:48.264Z</time></trkpt><trkpt lat="43.8159604" lon="12.842528"><ele>106.0</ele><time>2026-04-13T13:39:49.265Z</time></trkpt><trkpt lat="43.8158856" lon="12.8424953"><ele>106.00000000000001</ele><time>2026-04-13T13:39:50.264Z</time></trkpt><trkpt lat="43.8158159" lon="12.8424349"><ele>106.0</ele><time>2026-04-13T13:39:51.265Z</time></trkpt><trkpt lat="43.8157554" lon="12.8423379"><ele>106.75</ele><time>2026-04-13T13:39:52.265Z</time></trkpt><trkpt lat="43.8156874" lon="12.8421795"><ele>107.5</ele><time>2026-04-13T13:39:53.263Z</time></trkpt><trkpt lat="43.8156383" lon="12.8420111"><ele>108.25</ele><time>2026-04-13T13:39:54.265Z</time></trkpt><trkpt lat="43.8155854" lon="12.8418778"><ele>109.0</ele><time>2026-04-13T13:39:55.265Z</time></trkpt><trkpt lat="43.8155058" lon="12.8417372"><ele>106.66666666666667</ele><time>2026-04-13T13:39:56.263Z</time></trkpt><trkpt lat="43.8153857" lon="12.8415663"><ele>104.33333333333334</ele><time>2026-04-13T13:39:57.264Z</time></trkpt><trkpt lat="43.8152464" lon="12.8413916"><ele>102.0</ele><time>2026-04-13T13:39:58.264Z</time></trkpt><trkpt lat="43.8151449" lon="12.8412433"><ele>101.8</ele><time>2026-04-13T13:39:59.265Z</time></trkpt><trkpt lat="43.8150521" lon="12.8410969"><ele>101.6</ele><time>2026-04-13T13:40:00.264Z</time></trkpt><trkpt lat="43.8149792" lon="12.8409622"><ele>101.39999999999999</ele><time>2026-04-13T13:40:01.264Z</time></trkpt><trkpt lat="43.8149198" lon="12.8408601"><ele>101.19999999999999</ele><time>2026-04-13T13:40:02.265Z</time></trkpt><trkpt lat="43.8148655" lon="12.840791"><ele>101.0</ele><time>2026-04-13T13:40:03.264Z</time></trkpt><trkpt lat="43.8147886" lon="12.8407724"><ele>101.0</ele><time>2026-04-13T13:40:04.264Z</time></trkpt><trkpt lat="43.8147195" lon="12.8408181"><ele>101.0</ele><time>2026-04-13T13:40:05.264Z</time></trkpt><trkpt lat="43.814653" lon="12.8408625"><ele>101.0</ele><time>2026-04-13T13:40:06.264Z</time></trkpt><trkpt lat="43.8145821" lon="12.8409654"><ele>101.0</ele><time>2026-04-13T13:40:07.265Z</time></trkpt><trkpt lat="43.8144568" lon="12.841266"><ele>101.0</ele><time>2026-04-13T13:40:08.264Z</time></trkpt><trkpt lat="43.8143591" lon="12.8414867"><ele>101.0</ele><time>2026-04-13T13:40:09.264Z</time></trkpt><trkpt lat="43.8142874" lon="12.8416741"><ele>101.0</ele><time>2026-04-13T13:40:10.265Z</time></trkpt><trkpt lat="43.8142145" lon="12.841845"><ele>101.5</ele><time>2026-04-13T13:40:11.264Z</time></trkpt><trkpt lat="43.8141422" lon="12.8419829"><ele>102.0</ele><time>2026-04-13T13:40:12.264Z</time></trkpt><trkpt lat="43.8140595" lon="12.8421269"><ele>102.5</ele><time>2026-04-13T13:40:13.264Z</time></trkpt><trkpt lat="43.8140065" lon="12.8422361"><ele>103.0</ele><time>2026-04-13T13:40:14.265Z</time></trkpt><trkpt lat="43.813962" lon="12.8423661"><ele>103.0</ele><time>2026-04-13T13:40:15.264Z</time></trkpt><trkpt lat="43.8139361" lon="12.8425108"><ele>103.0</ele><time>2026-04-13T13:40:16.264Z</time></trkpt><trkpt lat="43.8139189" lon="12.8426866"><ele>103.0</ele><time>2026-04-13T13:40:17.264Z</time></trkpt><trkpt lat="43.8139033" lon="12.8428514"><ele>103.0</ele><time>2026-04-13T13:40:18.265Z</time></trkpt><trkpt lat="43.8138785" lon="12.8429803"><ele>104.00000000000001</ele><time>2026-04-13T13:40:19.264Z</time></trkpt><trkpt lat="43.8138375" lon="12.8431005"><ele>105.0</ele><time>2026-04-13T13:40:20.264Z</time></trkpt><trkpt lat="43.8137756" lon="12.8431894"><ele>106.0</ele><time>2026-04-13T13:40:21.264Z</time></trkpt><trkpt lat="43.8137028" lon="12.8432557"><ele>107.0</ele><time>2026-04-13T13:40:22.264Z</time></trkpt><trkpt lat="43.8136266" lon="12.8432808"><ele>108.00000000000001</ele><time>2026-04-13T13:40:23.264Z</time></trkpt><trkpt lat="43.8135427" lon="12.8432733"><ele>109.0</ele><time>2026-04-13T13:40:24.264Z</time></trkpt><trkpt lat="43.813472" lon="12.8432297"><ele>109.0</ele><time>2026-04-13T13:40:25.264Z</time></trkpt><trkpt lat="43.8133897" lon="12.8431496"><ele>109.0</ele><time>2026-04-13T13:40:26.264Z</time></trkpt><trkpt lat="43.813282" lon="12.8430183"><ele>109.0</ele><time>2026-04-13T13:40:27.265Z</time></trkpt><trkpt lat="43.8131638" lon="12.8428601"><ele>109.0</ele><time>2026-04-13T13:40:28.264Z</time></trkpt><trkpt lat="43.8130628" lon="12.8427301"><ele>108.80000000000001</ele><time>2026-04-13T13:40:29.264Z</time></trkpt><trkpt lat="43.8129748" lon="12.8426149"><ele>108.60000000000001</ele><time>2026-04-13T13:40:30.264Z</time></trkpt><trkpt lat="43.8129013" lon="12.84252"><ele>108.4</ele><time>2026-04-13T13:40:31.265Z</time></trkpt><trkpt lat="43.8128242" lon="12.8424631"><ele>108.2</ele><time>2026-04-13T13:40:32.265Z</time></trkpt><trkpt lat="43.8127278" lon="12.8424445"><ele>108.0</ele><time>2026-04-13T13:40:33.264Z</time></trkpt><trkpt lat="43.8125999" lon="12.8424548"><ele>108.0</ele><time>2026-04-13T13:40:34.265Z</time></trkpt><trkpt lat="43.812436" lon="12.8424701"><ele>108.0</ele><time>2026-04-13T13:40:35.264Z</time></trkpt><trkpt lat="43.8123168" lon="12.8424521"><ele>108.0</ele><time>2026-04-13T13:40:36.265Z</time></trkpt><trkpt lat="43.8122008" lon="12.8424007"><ele>108.0</ele><time>2026-04-13T13:40:37.265Z</time></trkpt><trkpt lat="43.8120474" lon="12.8423165"><ele>108.0</ele><time>2026-04-13T13:40:38.264Z</time></trkpt><trkpt lat="43.8119153" lon="12.8422302"><ele>108.0</ele><time>2026-04-13T13:40:39.264Z</time></trkpt><trkpt lat="43.8117891" lon="12.8421227"><ele>108.0</ele><time>2026-04-13T13:40:40.265Z</time></trkpt><trkpt lat="43.8116641" lon="12.8419892"><ele>107.80000000000001</ele><time>2026-04-13T13:40:41.264Z</time></trkpt><trkpt lat="43.8115526" lon="12.8418532"><ele>107.60000000000001</ele><time>2026-04-13T13:40:42.264Z</time></trkpt><trkpt lat="43.8114629" lon="12.8417404"><ele>107.39999999999999</ele><time>2026-04-13T13:40:43.264Z</time></trkpt><trkpt lat="43.8113892" lon="12.8416446"><ele>107.19999999999999</ele><time>2026-04-13T13:40:44.264Z</time></trkpt><trkpt lat="43.8113292" lon="12.8415756"><ele>107.0</ele><time>2026-04-13T13:40:45.264Z</time></trkpt><trkpt lat="43.811269" lon="12.8415341"><ele>107.0</ele><time>2026-04-13T13:40:46.264Z</time></trkpt><trkpt lat="43.811189" lon="12.8415108"><ele>106.99999999999999</ele><time>2026-04-13T13:40:47.264Z</time></trkpt><trkpt lat="43.811103" lon="12.841526"><ele>106.99999999999999</ele><time>2026-04-13T13:40:48.265Z</time></trkpt><trkpt lat="43.8110091" lon="12.84158"><ele>107.0</ele><time>2026-04-13T13:40:49.264Z</time></trkpt><trkpt lat="43.810913" lon="12.8416642"><ele>107.0</ele><time>2026-04-13T13:40:50.264Z</time></trkpt><trkpt lat="43.8108007" lon="12.8417727"><ele>110.66666666666666</ele><time>2026-04-13T13:40:51.264Z</time></trkpt><trkpt lat="43.810683" lon="12.8418857"><ele>114.33333333333334</ele><time>2026-04-13T13:40:52.264Z</time></trkpt><trkpt lat="43.810558" lon="12.842003"><ele>118.0</ele><time>2026-04-13T13:40:53.265Z</time></trkpt><trkpt lat="43.8104332" lon="12.8421383"><ele>118.0</ele><time>2026-04-13T13:40:54.265Z</time></trkpt><trkpt lat="43.8103126" lon="12.8422768"><ele>118.0</ele><time>2026-04-13T13:40:55.263Z</time></trkpt><trkpt lat="43.810184" lon="12.8423843"><ele>118.0</ele><time>2026-04-13T13:40:56.265Z</time></trkpt><trkpt lat="43.810042" lon="12.8424844"><ele>120.0</ele><time>2026-04-13T13:40:57.265Z</time></trkpt><trkpt lat="43.8098898" lon="12.8426034"><ele>122.0</ele><time>2026-04-13T13:40:58.264Z</time></trkpt><trkpt lat="43.8097449" lon="12.8426952"><ele>124.0</ele><time>2026-04-13T13:40:59.264Z</time></trkpt><trkpt lat="43.8096286" lon="12.8427617"><ele>125.6</ele><time>2026-04-13T13:41:00.264Z</time></trkpt><trkpt lat="43.8095326" lon="12.8428246"><ele>127.2</ele><time>2026-04-13T13:41:01.265Z</time></trkpt><trkpt lat="43.8094453" lon="12.8429113"><ele>128.79999999999998</ele><time>2026-04-13T13:41:02.263Z</time></trkpt><trkpt lat="43.8093678" lon="12.8430235"><ele>130.4</ele><time>2026-04-13T13:41:03.264Z</time></trkpt><trkpt lat="43.8093188" lon="12.8431348"><ele>132.0</ele><time>2026-04-13T13:41:04.264Z</time></trkpt><trkpt lat="43.8092829" lon="12.8432766"><ele>132.0</ele><time>2026-04-13T13:41:05.265Z</time></trkpt><trkpt lat="43.8092525" lon="12.8434555"><ele>132.0</ele><time>2026-04-13T13:41:06.265Z</time></trkpt><trkpt lat="43.8092383" lon="12.8436165"><ele>132.0</ele><time>2026-04-13T13:41:07.265Z</time></trkpt><trkpt lat="43.8092347" lon="12.8437459"><ele>132.0</ele><time>2026-04-13T13:41:08.264Z</time></trkpt><trkpt lat="43.8091986" lon="12.8438322"><ele>132.0</ele><time>2026-04-13T13:41:10.264Z</time></trkpt><trkpt lat="43.8091071" lon="12.843822"><ele>132.0</ele><time>2026-04-13T13:41:12.264Z</time></trkpt><trkpt lat="43.8090285" lon="12.8437753"><ele>132.0</ele><time>2026-04-13T13:41:13.265Z</time></trkpt><trkpt lat="43.808933" lon="12.8436934"><ele>132.0</ele><time>2026-04-13T13:41:14.265Z</time></trkpt><trkpt lat="43.8088427" lon="12.8435718"><ele>132.0</ele><time>2026-04-13T13:41:15.265Z</time></trkpt><trkpt lat="43.8087664" lon="12.8434048"><ele>132.0</ele><time>2026-04-13T13:41:16.265Z</time></trkpt><trkpt lat="43.8086936" lon="12.8431763"><ele>132.0</ele><time>2026-04-13T13:41:17.264Z</time></trkpt><trkpt lat="43.8086261" lon="12.8429146"><ele>132.0</ele><time>2026-04-13T13:41:18.265Z</time></trkpt><trkpt lat="43.8085693" lon="12.8427019"><ele>130.66666666666666</ele><time>2026-04-13T13:41:19.263Z</time></trkpt><trkpt lat="43.8085339" lon="12.8425"><ele>129.33333333333331</ele><time>2026-04-13T13:41:20.265Z</time></trkpt><trkpt lat="43.8085333" lon="12.8422812"><ele>128.0</ele><time>2026-04-13T13:41:21.264Z</time></trkpt><trkpt lat="43.8085456" lon="12.8420673"><ele>128.0</ele><time>2026-04-13T13:41:22.264Z</time></trkpt><trkpt lat="43.8085445" lon="12.8419108"><ele>128.0</ele><time>2026-04-13T13:41:23.265Z</time></trkpt><trkpt lat="43.8085189" lon="12.8417628"><ele>128.0</ele><time>2026-04-13T13:41:24.264Z</time></trkpt><trkpt lat="43.8084606" lon="12.8416395"><ele>128.0</ele><time>2026-04-13T13:41:25.264Z</time></trkpt><trkpt lat="43.8084009" lon="12.8415546"><ele>128.0</ele><time>2026-04-13T13:41:26.265Z</time></trkpt><trkpt lat="43.808347" lon="12.8414992"><ele>130.25</ele><time>2026-04-13T13:41:27.264Z</time></trkpt><trkpt lat="43.8082653" lon="12.8414432"><ele>132.5</ele><time>2026-04-13T13:41:29.264Z</time></trkpt><trkpt lat="43.8081372" lon="12.8414699"><ele>134.75</ele><time>2026-04-13T13:41:31.264Z</time></trkpt><trkpt lat="43.8080064" lon="12.8415569"><ele>137.0</ele><time>2026-04-13T13:41:32.265Z</time></trkpt><trkpt lat="43.8078395" lon="12.8416376"><ele>137.0</ele><time>2026-04-13T13:41:33.264Z</time></trkpt><trkpt lat="43.8076747" lon="12.8417189"><ele>137.0</ele><time>2026-04-13T13:41:34.264Z</time></trkpt><trkpt lat="43.807525" lon="12.8417546"><ele>137.0</ele><time>2026-04-13T13:41:35.264Z</time></trkpt><trkpt lat="43.8073665" lon="12.8417557"><ele>139.33333333333331</ele><time>2026-04-13T13:41:36.264Z</time></trkpt><trkpt lat="43.8072011" lon="12.8417222"><ele>141.66666666666666</ele><time>2026-04-13T13:41:37.264Z</time></trkpt><trkpt lat="43.8070682" lon="12.8416456"><ele>144.0</ele><time>2026-04-13T13:41:38.264Z</time></trkpt><trkpt lat="43.8069262" lon="12.8415251"><ele>148.0</ele><time>2026-04-13T13:41:39.265Z</time></trkpt><trkpt lat="43.8067915" lon="12.8414356"><ele>152.0</ele><time>2026-04-13T13:41:40.264Z</time></trkpt><trkpt lat="43.806628" lon="12.8413763"><ele>156.0</ele><time>2026-04-13T13:41:41.264Z</time></trkpt><trkpt lat="43.8064354" lon="12.8413299"><ele>156.0</ele><time>2026-04-13T13:41:42.263Z</time></trkpt><trkpt lat="43.8062253" lon="12.841305"><ele>156.0</ele><time>2026-04-13T13:41:43.265Z</time></trkpt><trkpt lat="43.8060661" lon="12.8412863"><ele>156.0</ele><time>2026-04-13T13:41:44.264Z</time></trkpt><trkpt lat="43.8059344" lon="12.8412859"><ele>157.25</ele><time>2026-04-13T13:41:45.265Z</time></trkpt><trkpt lat="43.805814" lon="12.8413333"><ele>158.5</ele><time>2026-04-13T13:41:46.265Z</time></trkpt><trkpt lat="43.8057059" lon="12.8414376"><ele>159.75</ele><time>2026-04-13T13:41:47.265Z</time></trkpt><trkpt lat="43.8056095" lon="12.8415946"><ele>161.0</ele><time>2026-04-13T13:41:48.265Z</time></trkpt><trkpt lat="43.8055087" lon="12.8417763"><ele>165.0</ele><time>2026-04-13T13:41:49.265Z</time></trkpt><trkpt lat="43.8053778" lon="12.8419181"><ele>169.0</ele><time>2026-04-13T13:41:50.264Z</time></trkpt><trkpt lat="43.8052094" lon="12.8420327"><ele>173.0</ele><time>2026-04-13T13:41:51.265Z</time></trkpt><trkpt lat="43.8050025" lon="12.8421603"><ele>173.0</ele><time>2026-04-13T13:41:52.265Z</time></trkpt><trkpt lat="43.8047835" lon="12.8423257"><ele>173.0</ele><time>2026-04-13T13:41:53.264Z</time></trkpt><trkpt lat="43.804561" lon="12.8425314"><ele>176.0</ele><time>2026-04-13T13:41:54.265Z</time></trkpt><trkpt lat="43.8043565" lon="12.842739"><ele>179.0</ele><time>2026-04-13T13:41:55.264Z</time></trkpt><trkpt lat="43.8041897" lon="12.8429181"><ele>179.0</ele><time>2026-04-13T13:41:56.264Z</time></trkpt><trkpt lat="43.8040486" lon="12.8430761"><ele>179.0</ele><time>2026-04-13T13:41:57.264Z</time></trkpt><trkpt lat="43.8039297" lon="12.8432102"><ele>179.0</ele><time>2026-04-13T13:41:58.265Z</time></trkpt><trkpt lat="43.803845" lon="12.8433129"><ele>179.0</ele><time>2026-04-13T13:41:59.264Z</time></trkpt><trkpt lat="43.8037938" lon="12.8434124"><ele>179.0</ele><time>2026-04-13T13:42:00.265Z</time></trkpt><trkpt lat="43.8037703" lon="12.8435138"><ele>179.0</ele><time>2026-04-13T13:42:01.264Z</time></trkpt><trkpt lat="43.8038104" lon="12.843604"><ele>179.0</ele><time>2026-04-13T13:42:02.265Z</time></trkpt><trkpt lat="43.8038951" lon="12.8436274"><ele>179.0</ele><time>2026-04-13T13:42:03.264Z</time></trkpt><trkpt lat="43.8039966" lon="12.8435766"><ele>179.0</ele><time>2026-04-13T13:42:04.264Z</time></trkpt><trkpt lat="43.8041218" lon="12.8434626"><ele>179.0</ele><time>2026-04-13T13:42:05.264Z</time></trkpt><trkpt lat="43.8042853" lon="12.8433125"><ele>179.0</ele><time>2026-04-13T13:42:06.264Z</time></trkpt><trkpt lat="43.8044758" lon="12.8431555"><ele>179.0</ele><time>2026-04-13T13:42:07.264Z</time></trkpt><trkpt lat="43.8046536" lon="12.8430362"><ele>183.33333333333331</ele><time>2026-04-13T13:42:08.264Z</time></trkpt><trkpt lat="43.80481" lon="12.8429764"><ele>187.66666666666666</ele><time>2026-04-13T13:42:09.264Z</time></trkpt><trkpt lat="43.8049761" lon="12.8429493"><ele>192.0</ele><time>2026-04-13T13:42:10.264Z</time></trkpt><trkpt lat="43.805119" lon="12.842951"><ele>190.5</ele><time>2026-04-13T13:42:11.265Z</time></trkpt><trkpt lat="43.8052355" lon="12.8429944"><ele>189.0</ele><time>2026-04-13T13:42:12.264Z</time></trkpt><trkpt lat="43.8053652" lon="12.8430918"><ele>187.5</ele><time>2026-04-13T13:42:13.264Z</time></trkpt><trkpt lat="43.8054849" lon="12.8432429"><ele>186.0</ele><time>2026-04-13T13:42:14.265Z</time></trkpt><trkpt lat="43.8055757" lon="12.8434428"><ele>190.0</ele><time>2026-04-13T13:42:15.264Z</time></trkpt><trkpt lat="43.8056418" lon="12.8436895"><ele>194.0</ele><time>2026-04-13T13:42:16.264Z</time></trkpt><trkpt lat="43.8056931" lon="12.8439391"><ele>198.0</ele><time>2026-04-13T13:42:17.264Z</time></trkpt><trkpt lat="43.8057553" lon="12.8441366"><ele>195.0</ele><time>2026-04-13T13:42:18.263Z</time></trkpt><trkpt lat="43.8058545" lon="12.8443077"><ele>192.0</ele><time>2026-04-13T13:42:19.264Z</time></trkpt><trkpt lat="43.8059613" lon="12.844456"><ele>189.0</ele><time>2026-04-13T13:42:20.265Z</time></trkpt><trkpt lat="43.8060124" lon="12.8445504"><ele>186.0</ele><time>2026-04-13T13:42:21.264Z</time></trkpt><trkpt lat="43.8060152" lon="12.8446403"><ele>191.4</ele><time>2026-04-13T13:42:22.264Z</time></trkpt><trkpt lat="43.8059752" lon="12.8447091"><ele>196.8</ele><time>2026-04-13T13:42:23.265Z</time></trkpt><trkpt lat="43.8058949" lon="12.8447168"><ele>202.20000000000002</ele><time>2026-04-13T13:42:24.264Z</time></trkpt><trkpt lat="43.8057686" lon="12.8446888"><ele>207.60000000000002</ele><time>2026-04-13T13:42:25.264Z</time></trkpt><trkpt lat="43.8056008" lon="12.8446458"><ele>213.0</ele><time>2026-04-13T13:42:26.265Z</time></trkpt><trkpt lat="43.8054048" lon="12.8445867"><ele>213.0</ele><time>2026-04-13T13:42:27.264Z</time></trkpt><trkpt lat="43.8052735" lon="12.8445558"><ele>213.0</ele><time>2026-04-13T13:42:28.264Z</time></trkpt><trkpt lat="43.8051419" lon="12.8445493"><ele>213.0</ele><time>2026-04-13T13:42:29.264Z</time></trkpt><trkpt lat="43.8050307" lon="12.8446285"><ele>213.0</ele><time>2026-04-13T13:42:30.264Z</time></trkpt><trkpt lat="43.8049433" lon="12.8447437"><ele>214.0</ele><time>2026-04-13T13:42:31.265Z</time></trkpt><trkpt lat="43.8048844" lon="12.8449107"><ele>215.0</ele><time>2026-04-13T13:42:32.264Z</time></trkpt><trkpt lat="43.8048526" lon="12.8451557"><ele>216.0</ele><time>2026-04-13T13:42:33.264Z</time></trkpt><trkpt lat="43.8048247" lon="12.8454513"><ele>218.33333333333331</ele><time>2026-04-13T13:42:34.265Z</time></trkpt><trkpt lat="43.8047935" lon="12.8457441"><ele>220.66666666666666</ele><time>2026-04-13T13:42:35.264Z</time></trkpt><trkpt lat="43.804765" lon="12.8459681"><ele>223.0</ele><time>2026-04-13T13:42:36.264Z</time></trkpt><trkpt lat="43.8047185" lon="12.846185"><ele>225.66666666666666</ele><time>2026-04-13T13:42:37.264Z</time></trkpt><trkpt lat="43.8046317" lon="12.8464087"><ele>228.33333333333331</ele><time>2026-04-13T13:42:38.264Z</time></trkpt><trkpt lat="43.8045045" lon="12.8466595"><ele>231.0</ele><time>2026-04-13T13:42:39.264Z</time></trkpt><trkpt lat="43.8043902" lon="12.8468747"><ele>233.0</ele><time>2026-04-13T13:42:40.265Z</time></trkpt><trkpt lat="43.8042863" lon="12.8470438"><ele>235.0</ele><time>2026-04-13T13:42:41.264Z</time></trkpt><trkpt lat="43.8041698" lon="12.8471877"><ele>237.0</ele><time>2026-04-13T13:42:42.265Z</time></trkpt><trkpt lat="43.8040257" lon="12.8472778"><ele>237.0</ele><time>2026-04-13T13:42:43.265Z</time></trkpt><trkpt lat="43.803856" lon="12.8473307"><ele>237.0</ele><time>2026-04-13T13:42:44.264Z</time></trkpt><trkpt lat="43.8036508" lon="12.8473901"><ele>237.0</ele><time>2026-04-13T13:42:45.264Z</time></trkpt><trkpt lat="43.8034132" lon="12.8474552"><ele>236.66666666666669</ele><time>2026-04-13T13:42:46.263Z</time></trkpt><trkpt lat="43.803182" lon="12.8475572"><ele>236.33333333333334</ele><time>2026-04-13T13:42:47.264Z</time></trkpt><trkpt lat="43.8029895" lon="12.8476271"><ele>236.0</ele><time>2026-04-13T13:42:48.263Z</time></trkpt><trkpt lat="43.8028065" lon="12.8476536"><ele>241.75</ele><time>2026-04-13T13:42:49.264Z</time></trkpt><trkpt lat="43.8026373" lon="12.8476592"><ele>247.5</ele><time>2026-04-13T13:42:50.264Z</time></trkpt><trkpt lat="43.8025061" lon="12.8476748"><ele>253.25</ele><time>2026-04-13T13:42:51.264Z</time></trkpt><trkpt lat="43.8023832" lon="12.8477266"><ele>259.0</ele><time>2026-04-13T13:42:52.265Z</time></trkpt><trkpt lat="43.8022816" lon="12.8478256"><ele>259.0</ele><time>2026-04-13T13:42:53.265Z</time></trkpt><trkpt lat="43.8022036" lon="12.8479781"><ele>259.0</ele><time>2026-04-13T13:42:54.264Z</time></trkpt><trkpt lat="43.8021241" lon="12.8482019"><ele>259.0</ele><time>2026-04-13T13:42:55.263Z</time></trkpt><trkpt lat="43.802026" lon="12.848389"><ele>259.0</ele><time>2026-04-13T13:42:56.264Z</time></trkpt><trkpt lat="43.8018833" lon="12.8485928"><ele>259.0</ele><time>2026-04-13T13:42:57.263Z</time></trkpt><trkpt lat="43.8017119" lon="12.8488045"><ele>259.0</ele><time>2026-04-13T13:42:58.265Z</time></trkpt><trkpt lat="43.8015327" lon="12.8490245"><ele>259.0</ele><time>2026-04-13T13:42:59.263Z</time></trkpt><trkpt lat="43.8013896" lon="12.8492036"><ele>259.0</ele><time>2026-04-13T13:43:00.263Z</time></trkpt><trkpt lat="43.8012631" lon="12.8493657"><ele>259.0</ele><time>2026-04-13T13:43:01.265Z</time></trkpt><trkpt lat="43.8011477" lon="12.8495098"><ele>261.0</ele><time>2026-04-13T13:43:02.263Z</time></trkpt><trkpt lat="43.8010533" lon="12.8496165"><ele>263.0</ele><time>2026-04-13T13:43:03.265Z</time></trkpt><trkpt lat="43.8009685" lon="12.8497016"><ele>265.0</ele><time>2026-04-13T13:43:04.265Z</time></trkpt><trkpt lat="43.8008816" lon="12.8497716"><ele>267.0</ele><time>2026-04-13T13:43:05.264Z</time></trkpt><trkpt lat="43.8007611" lon="12.8498459"><ele>267.0</ele><time>2026-04-13T13:43:06.265Z</time></trkpt><trkpt lat="43.8006122" lon="12.8499073"><ele>267.0</ele><time>2026-04-13T13:43:07.263Z</time></trkpt><trkpt lat="43.8004712" lon="12.8499446"><ele>267.0</ele><time>2026-04-13T13:43:08.264Z</time></trkpt><trkpt lat="43.8003386" lon="12.8499472"><ele>267.0</ele><time>2026-04-13T13:43:09.265Z</time></trkpt><trkpt lat="43.800199" lon="12.8499147"><ele>268.0</ele><time>2026-04-13T13:43:10.264Z</time></trkpt><trkpt lat="43.8000844" lon="12.8498295"><ele>269.0</ele><time>2026-04-13T13:43:11.264Z</time></trkpt><trkpt lat="43.7999692" lon="12.8497081"><ele>270.0</ele><time>2026-04-13T13:43:12.265Z</time></trkpt><trkpt lat="43.7998816" lon="12.8495958"><ele>271.0</ele><time>2026-04-13T13:43:13.265Z</time></trkpt><trkpt lat="43.7998019" lon="12.8495348"><ele>271.0</ele><time>2026-04-13T13:43:14.264Z</time></trkpt><trkpt lat="43.7997135" lon="12.8495161"><ele>271.0</ele><time>2026-04-13T13:43:15.264Z</time></trkpt><trkpt lat="43.7996312" lon="12.8495616"><ele>271.0</ele><time>2026-04-13T13:43:16.264Z</time></trkpt><trkpt lat="43.7995785" lon="12.8496587"><ele>271.0</ele><time>2026-04-13T13:43:17.264Z</time></trkpt><trkpt lat="43.7995727" lon="12.8497882"><ele>271.0</ele><time>2026-04-13T13:43:18.264Z</time></trkpt><trkpt lat="43.7995707" lon="12.8499489"><ele>274.0</ele><time>2026-04-13T13:43:19.265Z</time></trkpt><trkpt lat="43.7996542" lon="12.8501996"><ele>277.0</ele><time>2026-04-13T13:43:20.264Z</time></trkpt><trkpt lat="43.7997135" lon="12.8504716"><ele>280.0</ele><time>2026-04-13T13:43:21.264Z</time></trkpt><trkpt lat="43.7997681" lon="12.8507222"><ele>280.0</ele><time>2026-04-13T13:43:22.264Z</time></trkpt><trkpt lat="43.7998024" lon="12.850923"><ele>280.0</ele><time>2026-04-13T13:43:23.264Z</time></trkpt><trkpt lat="43.7998216" lon="12.8510919"><ele>280.0</ele><time>2026-04-13T13:43:24.265Z</time></trkpt><trkpt lat="43.7998162" lon="12.8512413"><ele>280.0</ele><time>2026-04-13T13:43:25.264Z</time></trkpt><trkpt lat="43.7997879" lon="12.8513682"><ele>281.75</ele><time>2026-04-13T13:43:26.264Z</time></trkpt><trkpt lat="43.799728" lon="12.851493"><ele>283.5</ele><time>2026-04-13T13:43:27.263Z</time></trkpt><trkpt lat="43.7996227" lon="12.8516082"><ele>285.25</ele><time>2026-04-13T13:43:28.263Z</time></trkpt><trkpt lat="43.7994935" lon="12.8516943"><ele>287.0</ele><time>2026-04-13T13:43:29.264Z</time></trkpt><trkpt lat="43.7993459" lon="12.8517543"><ele>291.6666666666667</ele><time>2026-04-13T13:43:30.264Z</time></trkpt><trkpt lat="43.7991663" lon="12.8518007"><ele>296.3333333333333</ele><time>2026-04-13T13:43:31.264Z</time></trkpt><trkpt lat="43.7989769" lon="12.8518287"><ele>301.0</ele><time>2026-04-13T13:43:32.264Z</time></trkpt><trkpt lat="43.7987979" lon="12.8518222"><ele>295.3333333333333</ele><time>2026-04-13T13:43:33.264Z</time></trkpt><trkpt lat="43.7986025" lon="12.8517823"><ele>289.6666666666667</ele><time>2026-04-13T13:43:34.264Z</time></trkpt><trkpt lat="43.7984195" lon="12.851721"><ele>284.0</ele><time>2026-04-13T13:43:35.264Z</time></trkpt><trkpt lat="43.7982805" lon="12.8516559"><ele>284.0</ele><time>2026-04-13T13:43:36.264Z</time></trkpt><trkpt lat="43.798166" lon="12.8516248"><ele>284.0</ele><time>2026-04-13T13:43:37.265Z</time></trkpt><trkpt lat="43.7980696" lon="12.8516003"><ele>284.0</ele><time>2026-04-13T13:43:38.265Z</time></trkpt><trkpt lat="43.7979742" lon="12.8516668"><ele>284.0</ele><time>2026-04-13T13:43:39.265Z</time></trkpt><trkpt lat="43.797918" lon="12.8517344"><ele>284.0</ele><time>2026-04-13T13:43:40.264Z</time></trkpt><trkpt lat="43.7978823" lon="12.8518349"><ele>288.25</ele><time>2026-04-13T13:43:41.265Z</time></trkpt><trkpt lat="43.7978703" lon="12.8519755"><ele>292.5</ele><time>2026-04-13T13:43:42.265Z</time></trkpt><trkpt lat="43.7978701" lon="12.8521412"><ele>296.75</ele><time>2026-04-13T13:43:43.263Z</time></trkpt><trkpt lat="43.797871" lon="12.852332"><ele>301.0</ele><time>2026-04-13T13:43:44.264Z</time></trkpt><trkpt lat="43.7978834" lon="12.8525495"><ele>302.66666666666663</ele><time>2026-04-13T13:43:45.265Z</time></trkpt><trkpt lat="43.7978949" lon="12.8527793"><ele>304.3333333333333</ele><time>2026-04-13T13:43:46.265Z</time></trkpt><trkpt lat="43.7979054" lon="12.8530023"><ele>306.0</ele><time>2026-04-13T13:43:47.265Z</time></trkpt><trkpt lat="43.7979173" lon="12.8532073"><ele>306.0</ele><time>2026-04-13T13:43:48.264Z</time></trkpt><trkpt lat="43.7979255" lon="12.8533909"><ele>306.0</ele><time>2026-04-13T13:43:49.264Z</time></trkpt><trkpt lat="43.7979278" lon="12.8535546"><ele>306.0</ele><time>2026-04-13T13:43:50.264Z</time></trkpt><trkpt lat="43.797928" lon="12.8536696"><ele>306.0</ele><time>2026-04-13T13:43:51.265Z</time></trkpt><trkpt lat="43.7979257" lon="12.8537938"><ele>306.0</ele><time>2026-04-13T13:43:53.264Z</time></trkpt><trkpt lat="43.7979619" lon="12.8538716"><ele>304.5</ele><time>2026-04-13T13:44:03.264Z</time></trkpt><trkpt lat="43.7979361" lon="12.8539924"><ele>303.0</ele><time>2026-04-13T13:44:06.264Z</time></trkpt><trkpt lat="43.79792" lon="12.8540995"><ele>301.5</ele><time>2026-04-13T13:44:08.264Z</time></trkpt><trkpt lat="43.7979505" lon="12.8542011"><ele>300.0</ele><time>2026-04-13T13:44:11.264Z</time></trkpt><trkpt lat="43.7980002" lon="12.854267"><ele>298.5</ele><time>2026-04-13T13:44:13.264Z</time></trkpt><trkpt lat="43.7980618" lon="12.8543411"><ele>297.0</ele><time>2026-04-13T13:44:15.265Z</time></trkpt><trkpt lat="43.7981458" lon="12.8544331"><ele>294.3333333333333</ele><time>2026-04-13T13:44:17.264Z</time></trkpt><trkpt lat="43.7982235" lon="12.8545065"><ele>291.6666666666667</ele><time>2026-04-13T13:44:19.264Z</time></trkpt><trkpt lat="43.7982938" lon="12.8545909"><ele>289.0</ele><time>2026-04-13T13:44:21.264Z</time></trkpt><trkpt lat="43.7983777" lon="12.8546864"><ele>286.33333333333337</ele><time>2026-04-13T13:44:23.264Z</time></trkpt><trkpt lat="43.7984284" lon="12.8547474"><ele>283.6666666666667</ele><time>2026-04-13T13:44:24.263Z</time></trkpt><trkpt lat="43.798486" lon="12.8548063"><ele>281.0</ele><time>2026-04-13T13:44:25.264Z</time></trkpt><trkpt lat="43.7985544" lon="12.8548574"><ele>281.0</ele><time>2026-04-13T13:44:26.264Z</time></trkpt><trkpt lat="43.7986169" lon="12.8548958"><ele>281.0</ele><time>2026-04-13T13:44:27.265Z</time></trkpt><trkpt lat="43.7987311" lon="12.8549689"><ele>281.0</ele><time>2026-04-13T13:44:29.264Z</time></trkpt><trkpt lat="43.798793" lon="12.8550087"><ele>281.0</ele><time>2026-04-13T13:44:30.264Z</time></trkpt><trkpt lat="43.7988576" lon="12.8550561"><ele>281.0</ele><time>2026-04-13T13:44:31.264Z</time></trkpt><trkpt lat="43.7989281" lon="12.8551099"><ele>281.0</ele><time>2026-04-13T13:44:32.265Z</time></trkpt><trkpt lat="43.7989965" lon="12.8551613"><ele>274.40000000000003</ele><time>2026-04-13T13:44:33.264Z</time></trkpt><trkpt lat="43.7990629" lon="12.8552118"><ele>267.8</ele><time>2026-04-13T13:44:34.265Z</time></trkpt><trkpt lat="43.7991286" lon="12.8552609"><ele>261.20000000000005</ele><time>2026-04-13T13:44:35.265Z</time></trkpt><trkpt lat="43.7991872" lon="12.8553009"><ele>254.60000000000002</ele><time>2026-04-13T13:44:36.264Z</time></trkpt><trkpt lat="43.7993031" lon="12.8553456"><ele>248.0</ele><time>2026-04-13T13:44:38.265Z</time></trkpt><trkpt lat="43.7994263" lon="12.8553535"><ele>245.60000000000002</ele><time>2026-04-13T13:44:40.265Z</time></trkpt><trkpt lat="43.7994887" lon="12.855335"><ele>243.20000000000002</ele><time>2026-04-13T13:44:41.263Z</time></trkpt><trkpt lat="43.7996056" lon="12.8553013"><ele>240.8</ele><time>2026-04-13T13:44:43.264Z</time></trkpt><trkpt lat="43.7996973" lon="12.8552675"><ele>238.4</ele><time>2026-04-13T13:44:44.264Z</time></trkpt><trkpt lat="43.7997926" lon="12.8552314"><ele>236.0</ele><time>2026-04-13T13:44:45.265Z</time></trkpt><trkpt lat="43.7998865" lon="12.8551982"><ele>236.00000000000003</ele><time>2026-04-13T13:44:46.264Z</time></trkpt><trkpt lat="43.7999805" lon="12.8551594"><ele>236.0</ele><time>2026-04-13T13:44:47.265Z</time></trkpt><trkpt lat="43.8000672" lon="12.8551218"><ele>236.0</ele><time>2026-04-13T13:44:48.265Z</time></trkpt><trkpt lat="43.8001427" lon="12.8550797"><ele>236.0</ele><time>2026-04-13T13:44:49.265Z</time></trkpt><trkpt lat="43.8002198" lon="12.8550315"><ele>236.00000000000003</ele><time>2026-04-13T13:44:50.263Z</time></trkpt><trkpt lat="43.8003034" lon="12.8549747"><ele>236.0</ele><time>2026-04-13T13:44:51.264Z</time></trkpt><trkpt lat="43.8003757" lon="12.8549251"><ele>237.50000000000003</ele><time>2026-04-13T13:44:52.265Z</time></trkpt><trkpt lat="43.8004355" lon="12.8548789"><ele>239.0</ele><time>2026-04-13T13:44:53.265Z</time></trkpt><trkpt lat="43.8004904" lon="12.8548336"><ele>240.5</ele><time>2026-04-13T13:44:54.264Z</time></trkpt><trkpt lat="43.8005478" lon="12.8547873"><ele>242.0</ele><time>2026-04-13T13:44:55.264Z</time></trkpt><trkpt lat="43.8006007" lon="12.8547384"><ele>243.50000000000003</ele><time>2026-04-13T13:44:56.264Z</time></trkpt><trkpt lat="43.8006809" lon="12.8546473"><ele>245.0</ele><time>2026-04-13T13:44:58.263Z</time></trkpt><trkpt lat="43.8007604" lon="12.8545351"><ele>245.0</ele><time>2026-04-13T13:45:00.263Z</time></trkpt><trkpt lat="43.8008157" lon="12.8543897"><ele>245.0</ele><time>2026-04-13T13:45:02.265Z</time></trkpt><trkpt lat="43.800844" lon="12.8543117"><ele>245.0</ele><time>2026-04-13T13:45:03.265Z</time></trkpt><trkpt lat="43.8008877" lon="12.8541575"><ele>245.0</ele><time>2026-04-13T13:45:05.264Z</time></trkpt><trkpt lat="43.8009358" lon="12.8540187"><ele>245.0</ele><time>2026-04-13T13:45:07.264Z</time></trkpt><trkpt lat="43.8009886" lon="12.8539182"><ele>243.00000000000003</ele><time>2026-04-13T13:45:09.264Z</time></trkpt><trkpt lat="43.8010495" lon="12.8538251"><ele>241.0</ele><time>2026-04-13T13:45:11.264Z</time></trkpt><trkpt lat="43.8011158" lon="12.8537454"><ele>239.0</ele><time>2026-04-13T13:45:13.264Z</time></trkpt><trkpt lat="43.8012126" lon="12.8537048"><ele>237.0</ele><time>2026-04-13T13:45:15.265Z</time></trkpt><trkpt lat="43.8013059" lon="12.8536729"><ele>235.00000000000003</ele><time>2026-04-13T13:45:17.264Z</time></trkpt><trkpt lat="43.8013732" lon="12.853668"><ele>233.0</ele><time>2026-04-13T13:45:18.263Z</time></trkpt><trkpt lat="43.8014422" lon="12.8536708"><ele>233.00000000000003</ele><time>2026-04-13T13:45:19.265Z</time></trkpt><trkpt lat="43.8015169" lon="12.8536761"><ele>233.0</ele><time>2026-04-13T13:45:20.265Z</time></trkpt><trkpt lat="43.801587" lon="12.8536631"><ele>233.0</ele><time>2026-04-13T13:45:21.264Z</time></trkpt><trkpt lat="43.8016529" lon="12.8536421"><ele>233.0</ele><time>2026-04-13T13:45:22.264Z</time></trkpt><trkpt lat="43.8017599" lon="12.8535677"><ele>233.00000000000003</ele><time>2026-04-13T13:45:24.264Z</time></trkpt><trkpt lat="43.8018319" lon="12.853457"><ele>233.0</ele><time>2026-04-13T13:45:26.264Z</time></trkpt><trkpt lat="43.8018764" lon="12.8533215"><ele>230.8</ele><time>2026-04-13T13:45:28.264Z</time></trkpt><trkpt lat="43.8019078" lon="12.8531632"><ele>228.60000000000002</ele><time>2026-04-13T13:45:30.264Z</time></trkpt><trkpt lat="43.8019343" lon="12.8530339"><ele>226.39999999999998</ele><time>2026-04-13T13:45:32.265Z</time></trkpt><trkpt lat="43.801957" lon="12.8528939"><ele>224.2</ele><time>2026-04-13T13:45:34.263Z</time></trkpt><trkpt lat="43.8019755" lon="12.8527528"><ele>222.0</ele><time>2026-04-13T13:45:36.264Z</time></trkpt><trkpt lat="43.8019813" lon="12.8526112"><ele>222.0</ele><time>2026-04-13T13:45:38.264Z</time></trkpt><trkpt lat="43.8019988" lon="12.8524572"><ele>222.0</ele><time>2026-04-13T13:45:40.265Z</time></trkpt><trkpt lat="43.8020303" lon="12.8523044"><ele>222.0</ele><time>2026-04-13T13:45:42.264Z</time></trkpt><trkpt lat="43.8020566" lon="12.8522095"><ele>222.0</ele><time>2026-04-13T13:45:43.264Z</time></trkpt><trkpt lat="43.8020876" lon="12.8520957"><ele>222.0</ele><time>2026-04-13T13:45:44.264Z</time></trkpt><trkpt lat="43.8021249" lon="12.8519611"><ele>222.0</ele><time>2026-04-13T13:45:45.265Z</time></trkpt><trkpt lat="43.8021657" lon="12.8518381"><ele>222.0</ele><time>2026-04-13T13:45:46.264Z</time></trkpt><trkpt lat="43.802206" lon="12.8517241"><ele>222.0</ele><time>2026-04-13T13:45:47.264Z</time></trkpt><trkpt lat="43.8022641" lon="12.8516182"><ele>222.0</ele><time>2026-04-13T13:45:48.263Z</time></trkpt><trkpt lat="43.8023249" lon="12.8515326"><ele>222.0</ele><time>2026-04-13T13:45:49.265Z</time></trkpt><trkpt lat="43.8023921" lon="12.8514595"><ele>221.0</ele><time>2026-04-13T13:45:50.264Z</time></trkpt><trkpt lat="43.8024609" lon="12.8514053"><ele>220.0</ele><time>2026-04-13T13:45:51.264Z</time></trkpt><trkpt lat="43.8025393" lon="12.8513664"><ele>219.0</ele><time>2026-04-13T13:45:52.265Z</time></trkpt><trkpt lat="43.8026283" lon="12.8513357"><ele>218.0</ele><time>2026-04-13T13:45:53.264Z</time></trkpt><trkpt lat="43.8027146" lon="12.8513355"><ele>217.0</ele><time>2026-04-13T13:45:54.263Z</time></trkpt><trkpt lat="43.8027971" lon="12.8513511"><ele>216.0</ele><time>2026-04-13T13:45:55.264Z</time></trkpt><trkpt lat="43.8028639" lon="12.8513716"><ele>216.0</ele><time>2026-04-13T13:45:56.264Z</time></trkpt><trkpt lat="43.8029346" lon="12.8513715"><ele>216.0</ele><time>2026-04-13T13:45:57.264Z</time></trkpt><trkpt lat="43.803004" lon="12.8513352"><ele>216.0</ele><time>2026-04-13T13:45:58.264Z</time></trkpt><trkpt lat="43.8030919" lon="12.8512796"><ele>216.0</ele><time>2026-04-13T13:45:59.264Z</time></trkpt><trkpt lat="43.8031791" lon="12.8512371"><ele>216.0</ele><time>2026-04-13T13:46:00.264Z</time></trkpt><trkpt lat="43.8032802" lon="12.8512113"><ele>216.0</ele><time>2026-04-13T13:46:01.264Z</time></trkpt><trkpt lat="43.8033967" lon="12.85119"><ele>213.8</ele><time>2026-04-13T13:46:02.265Z</time></trkpt><trkpt lat="43.803519" lon="12.8511755"><ele>211.60000000000002</ele><time>2026-04-13T13:46:03.264Z</time></trkpt><trkpt lat="43.8036267" lon="12.8511719"><ele>209.4</ele><time>2026-04-13T13:46:04.265Z</time></trkpt><trkpt lat="43.8037304" lon="12.8511701"><ele>207.2</ele><time>2026-04-13T13:46:05.264Z</time></trkpt><trkpt lat="43.8038314" lon="12.8511565"><ele>205.0</ele><time>2026-04-13T13:46:06.264Z</time></trkpt><trkpt lat="43.8039672" lon="12.851128"><ele>204.99999999999997</ele><time>2026-04-13T13:46:07.264Z</time></trkpt><trkpt lat="43.8040722" lon="12.8510897"><ele>205.0</ele><time>2026-04-13T13:46:08.264Z</time></trkpt><trkpt lat="43.804152" lon="12.8510619"><ele>205.0</ele><time>2026-04-13T13:46:09.265Z</time></trkpt><trkpt lat="43.8042259" lon="12.8510333"><ele>205.0</ele><time>2026-04-13T13:46:10.263Z</time></trkpt><trkpt lat="43.8042892" lon="12.851005"><ele>204.99999999999997</ele><time>2026-04-13T13:46:11.265Z</time></trkpt><trkpt lat="43.8043859" lon="12.8509679"><ele>205.0</ele><time>2026-04-13T13:46:13.264Z</time></trkpt><trkpt lat="43.8042897" lon="12.8510129"><ele>205.0</ele><time>2026-04-13T13:46:39.264Z</time></trkpt><trkpt lat="43.8042217" lon="12.8510351"><ele>205.0</ele><time>2026-04-13T13:46:40.264Z</time></trkpt><trkpt lat="43.804125" lon="12.851068"><ele>205.0</ele><time>2026-04-13T13:46:41.264Z</time></trkpt><trkpt lat="43.8039991" lon="12.8511116"><ele>205.0</ele><time>2026-04-13T13:46:42.264Z</time></trkpt><trkpt lat="43.8038904" lon="12.8511411"><ele>205.0</ele><time>2026-04-13T13:46:43.265Z</time></trkpt><trkpt lat="43.8038025" lon="12.8511555"><ele>204.99999999999997</ele><time>2026-04-13T13:46:44.264Z</time></trkpt><trkpt lat="43.8037195" lon="12.8511566"><ele>205.0</ele><time>2026-04-13T13:46:45.265Z</time></trkpt><trkpt lat="43.8036291" lon="12.8511637"><ele>205.0</ele><time>2026-04-13T13:46:46.265Z</time></trkpt><trkpt lat="43.8035399" lon="12.8511643"><ele>205.0</ele><time>2026-04-13T13:46:47.264Z</time></trkpt><trkpt lat="43.803454" lon="12.8511685"><ele>204.99999999999997</ele><time>2026-04-13T13:46:48.265Z</time></trkpt><trkpt lat="43.8033673" lon="12.851177"><ele>205.0</ele><time>2026-04-13T13:46:49.264Z</time></trkpt><trkpt lat="43.8032814" lon="12.8511955"><ele>206.83333333333331</ele><time>2026-04-13T13:46:50.265Z</time></trkpt><trkpt lat="43.8031931" lon="12.8512233"><ele>208.66666666666666</ele><time>2026-04-13T13:46:51.264Z</time></trkpt><trkpt lat="43.8031008" lon="12.8512619"><ele>210.5</ele><time>2026-04-13T13:46:52.264Z</time></trkpt><trkpt lat="43.8030112" lon="12.8513149"><ele>212.33333333333331</ele><time>2026-04-13T13:46:53.265Z</time></trkpt><trkpt lat="43.8029361" lon="12.8513448"><ele>214.16666666666666</ele><time>2026-04-13T13:46:54.264Z</time></trkpt><trkpt lat="43.8028582" lon="12.8513555"><ele>216.0</ele><time>2026-04-13T13:46:55.265Z</time></trkpt><trkpt lat="43.8027585" lon="12.8513394"><ele>219.60000000000002</ele><time>2026-04-13T13:46:56.264Z</time></trkpt><trkpt lat="43.8026549" lon="12.851331"><ele>223.20000000000002</ele><time>2026-04-13T13:46:57.265Z</time></trkpt><trkpt lat="43.802564" lon="12.851349"><ele>226.79999999999998</ele><time>2026-04-13T13:46:58.265Z</time></trkpt><trkpt lat="43.8024723" lon="12.8514036"><ele>230.39999999999998</ele><time>2026-04-13T13:46:59.265Z</time></trkpt><trkpt lat="43.8023772" lon="12.8514807"><ele>234.0</ele><time>2026-04-13T13:47:00.265Z</time></trkpt><trkpt lat="43.8022946" lon="12.8515711"><ele>234.0</ele><time>2026-04-13T13:47:01.265Z</time></trkpt><trkpt lat="43.8022181" lon="12.8516823"><ele>234.0</ele><time>2026-04-13T13:47:02.264Z</time></trkpt><trkpt lat="43.8021569" lon="12.8518368"><ele>234.0</ele><time>2026-04-13T13:47:03.264Z</time></trkpt><trkpt lat="43.8020998" lon="12.8520471"><ele>234.0</ele><time>2026-04-13T13:47:04.264Z</time></trkpt><trkpt lat="43.8020388" lon="12.8522712"><ele>231.0</ele><time>2026-04-13T13:47:05.264Z</time></trkpt><trkpt lat="43.8019954" lon="12.852462"><ele>228.0</ele><time>2026-04-13T13:47:06.264Z</time></trkpt><trkpt lat="43.8019611" lon="12.8526603"><ele>225.0</ele><time>2026-04-13T13:47:07.264Z</time></trkpt><trkpt lat="43.8019298" lon="12.8528447"><ele>222.0</ele><time>2026-04-13T13:47:08.264Z</time></trkpt><trkpt lat="43.8018958" lon="12.8530306"><ele>221.66666666666666</ele><time>2026-04-13T13:47:09.264Z</time></trkpt><trkpt lat="43.8018707" lon="12.8531907"><ele>221.33333333333331</ele><time>2026-04-13T13:47:10.264Z</time></trkpt><trkpt lat="43.8018452" lon="12.8533213"><ele>221.0</ele><time>2026-04-13T13:47:11.264Z</time></trkpt><trkpt lat="43.8018229" lon="12.8534135"><ele>220.66666666666666</ele><time>2026-04-13T13:47:12.264Z</time></trkpt><trkpt lat="43.8017786" lon="12.8535043"><ele>220.33333333333331</ele><time>2026-04-13T13:47:13.264Z</time></trkpt><trkpt lat="43.8017143" lon="12.8535765"><ele>220.0</ele><time>2026-04-13T13:47:14.265Z</time></trkpt><trkpt lat="43.8016315" lon="12.8536248"><ele>222.6</ele><time>2026-04-13T13:47:15.264Z</time></trkpt><trkpt lat="43.8015358" lon="12.8536565"><ele>225.2</ele><time>2026-04-13T13:47:16.264Z</time></trkpt><trkpt lat="43.8014347" lon="12.8536666"><ele>227.8</ele><time>2026-04-13T13:47:17.264Z</time></trkpt><trkpt lat="43.8013219" lon="12.8536626"><ele>230.4</ele><time>2026-04-13T13:47:18.263Z</time></trkpt><trkpt lat="43.8012305" lon="12.8536803"><ele>233.0</ele><time>2026-04-13T13:47:19.264Z</time></trkpt><trkpt lat="43.8011611" lon="12.853723"><ele>233.00000000000003</ele><time>2026-04-13T13:47:20.265Z</time></trkpt><trkpt lat="43.8010896" lon="12.8537716"><ele>233.0</ele><time>2026-04-13T13:47:21.264Z</time></trkpt><trkpt lat="43.8010274" lon="12.8538358"><ele>233.0</ele><time>2026-04-13T13:47:22.264Z</time></trkpt><trkpt lat="43.8009784" lon="12.853914"><ele>233.0</ele><time>2026-04-13T13:47:23.265Z</time></trkpt><trkpt lat="43.8009323" lon="12.8540031"><ele>233.00000000000003</ele><time>2026-04-13T13:47:24.265Z</time></trkpt><trkpt lat="43.8008852" lon="12.8541343"><ele>233.0</ele><time>2026-04-13T13:47:25.264Z</time></trkpt><trkpt lat="43.8008351" lon="12.8542725"><ele>235.4</ele><time>2026-04-13T13:47:26.265Z</time></trkpt><trkpt lat="43.8007849" lon="12.8544177"><ele>237.8</ele><time>2026-04-13T13:47:27.264Z</time></trkpt><trkpt lat="43.8007322" lon="12.8545272"><ele>240.2</ele><time>2026-04-13T13:47:28.264Z</time></trkpt><trkpt lat="43.8006611" lon="12.8546196"><ele>242.6</ele><time>2026-04-13T13:47:29.265Z</time></trkpt><trkpt lat="43.8005809" lon="12.8547263"><ele>245.0</ele><time>2026-04-13T13:47:30.264Z</time></trkpt><trkpt lat="43.8004691" lon="12.8548244"><ele>245.0</ele><time>2026-04-13T13:47:31.265Z</time></trkpt><trkpt lat="43.8003399" lon="12.8549254"><ele>245.0</ele><time>2026-04-13T13:47:32.264Z</time></trkpt><trkpt lat="43.8002177" lon="12.8550024"><ele>245.0</ele><time>2026-04-13T13:47:33.264Z</time></trkpt><trkpt lat="43.8001048" lon="12.8550729"><ele>245.0</ele><time>2026-04-13T13:47:34.265Z</time></trkpt><trkpt lat="43.7999886" lon="12.8551309"><ele>242.75</ele><time>2026-04-13T13:47:35.265Z</time></trkpt><trkpt lat="43.7998616" lon="12.8551833"><ele>240.5</ele><time>2026-04-13T13:47:36.264Z</time></trkpt><trkpt lat="43.799734" lon="12.855228"><ele>238.25</ele><time>2026-04-13T13:47:37.264Z</time></trkpt><trkpt lat="43.7996198" lon="12.8552777"><ele>236.0</ele><time>2026-04-13T13:47:38.265Z</time></trkpt><trkpt lat="43.7995164" lon="12.8553101"><ele>236.00000000000003</ele><time>2026-04-13T13:47:39.264Z</time></trkpt><trkpt lat="43.799426" lon="12.8553309"><ele>236.0</ele><time>2026-04-13T13:47:40.264Z</time></trkpt><trkpt lat="43.799331" lon="12.8553356"><ele>236.0</ele><time>2026-04-13T13:47:41.265Z</time></trkpt><trkpt lat="43.7992503" lon="12.8553122"><ele>236.0</ele><time>2026-04-13T13:47:42.264Z</time></trkpt><trkpt lat="43.799169" lon="12.8552758"><ele>236.00000000000003</ele><time>2026-04-13T13:47:43.265Z</time></trkpt><trkpt lat="43.7990852" lon="12.8552158"><ele>236.0</ele><time>2026-04-13T13:47:44.264Z</time></trkpt><trkpt lat="43.7989816" lon="12.8551372"><ele>247.25</ele><time>2026-04-13T13:47:45.264Z</time></trkpt><trkpt lat="43.7988789" lon="12.8550532"><ele>258.5</ele><time>2026-04-13T13:47:46.265Z</time></trkpt><trkpt lat="43.7987603" lon="12.8549759"><ele>269.75</ele><time>2026-04-13T13:47:47.264Z</time></trkpt><trkpt lat="43.7986606" lon="12.8549164"><ele>281.0</ele><time>2026-04-13T13:47:48.263Z</time></trkpt><trkpt lat="43.7985731" lon="12.8548611"><ele>280.5</ele><time>2026-04-13T13:47:49.264Z</time></trkpt><trkpt lat="43.7984889" lon="12.8548024"><ele>280.0</ele><time>2026-04-13T13:47:50.264Z</time></trkpt><trkpt lat="43.7984118" lon="12.8547229"><ele>279.5</ele><time>2026-04-13T13:47:51.263Z</time></trkpt><trkpt lat="43.7983458" lon="12.8546352"><ele>279.0</ele><time>2026-04-13T13:47:52.264Z</time></trkpt><trkpt lat="43.7982819" lon="12.8545559"><ele>278.5</ele><time>2026-04-13T13:47:53.264Z</time></trkpt><trkpt lat="43.7982184" lon="12.8544995"><ele>278.0</ele><time>2026-04-13T13:47:54.264Z</time></trkpt><trkpt lat="43.798152" lon="12.8544472"><ele>278.0</ele><time>2026-04-13T13:47:55.264Z</time></trkpt><trkpt lat="43.7980849" lon="12.8543793"><ele>278.0</ele><time>2026-04-13T13:47:56.264Z</time></trkpt><trkpt lat="43.798021" lon="12.8542976"><ele>278.0</ele><time>2026-04-13T13:47:57.265Z</time></trkpt><trkpt lat="43.7979744" lon="12.8542224"><ele>278.0</ele><time>2026-04-13T13:47:58.264Z</time></trkpt><trkpt lat="43.797939" lon="12.8541477"><ele>278.0</ele><time>2026-04-13T13:47:59.265Z</time></trkpt><trkpt lat="43.7979317" lon="12.8540135"><ele>278.0</ele><time>2026-04-13T13:48:01.264Z</time></trkpt><trkpt lat="43.7979604" lon="12.8538876"><ele>281.2</ele><time>2026-04-13T13:48:03.264Z</time></trkpt><trkpt lat="43.7979053" lon="12.8538168"><ele>284.4</ele><time>2026-04-13T13:48:31.264Z</time></trkpt><trkpt lat="43.7978659" lon="12.8539044"><ele>287.59999999999997</ele><time>2026-04-13T13:48:33.263Z</time></trkpt><trkpt lat="43.7978013" lon="12.8540384"><ele>290.8</ele><time>2026-04-13T13:48:35.265Z</time></trkpt><trkpt lat="43.7977127" lon="12.8541511"><ele>294.0</ele><time>2026-04-13T13:48:37.264Z</time></trkpt><trkpt lat="43.7976532" lon="12.8542032"><ele>294.0</ele><time>2026-04-13T13:48:38.265Z</time></trkpt><trkpt lat="43.7975642" lon="12.854276"><ele>294.0</ele><time>2026-04-13T13:48:40.264Z</time></trkpt><trkpt lat="43.7975" lon="12.8543418"><ele>294.0</ele><time>2026-04-13T13:48:43.263Z</time></trkpt><trkpt lat="43.7975254" lon="12.8544357"><ele>294.0</ele><time>2026-04-13T13:48:45.265Z</time></trkpt><trkpt lat="43.7975655" lon="12.8545544"><ele>294.0</ele><time>2026-04-13T13:48:47.265Z</time></trkpt><trkpt lat="43.797625" lon="12.8546949"><ele>294.8333333333333</ele><time>2026-04-13T13:48:49.264Z</time></trkpt><trkpt lat="43.7976579" lon="12.8547709"><ele>295.6666666666667</ele><time>2026-04-13T13:48:50.263Z</time></trkpt><trkpt lat="43.7977026" lon="12.8548777"><ele>296.5</ele><time>2026-04-13T13:48:51.264Z</time></trkpt><trkpt lat="43.7977406" lon="12.8549852"><ele>297.33333333333337</ele><time>2026-04-13T13:48:52.264Z</time></trkpt><trkpt lat="43.7977782" lon="12.855094"><ele>298.1666666666667</ele><time>2026-04-13T13:48:53.263Z</time></trkpt><trkpt lat="43.7978093" lon="12.8551867"><ele>299.0</ele><time>2026-04-13T13:48:54.264Z</time></trkpt><trkpt lat="43.7978362" lon="12.8552874"><ele>293.0</ele><time>2026-04-13T13:48:55.264Z</time></trkpt><trkpt lat="43.797863" lon="12.8553783"><ele>287.0</ele><time>2026-04-13T13:48:56.265Z</time></trkpt><trkpt lat="43.7979125" lon="12.8555269"><ele>281.0</ele><time>2026-04-13T13:48:58.265Z</time></trkpt><trkpt lat="43.7979714" lon="12.8556342"><ele>275.0</ele><time>2026-04-13T13:49:00.265Z</time></trkpt><trkpt lat="43.7980517" lon="12.8557306"><ele>269.0</ele><time>2026-04-13T13:49:02.263Z</time></trkpt><trkpt lat="43.7981363" lon="12.8558534"><ele>269.0</ele><time>2026-04-13T13:49:04.264Z</time></trkpt><trkpt lat="43.7981765" lon="12.8559374"><ele>269.0</ele><time>2026-04-13T13:49:05.265Z</time></trkpt><trkpt lat="43.7982164" lon="12.8560305"><ele>269.0</ele><time>2026-04-13T13:49:06.264Z</time></trkpt><trkpt lat="43.7982624" lon="12.8561497"><ele>269.0</ele><time>2026-04-13T13:49:07.264Z</time></trkpt><trkpt lat="43.7983027" lon="12.856287"><ele>269.0</ele><time>2026-04-13T13:49:08.264Z</time></trkpt><trkpt lat="43.7983523" lon="12.8564084"><ele>269.2</ele><time>2026-04-13T13:49:09.264Z</time></trkpt><trkpt lat="43.7984222" lon="12.8565277"><ele>269.4</ele><time>2026-04-13T13:49:10.264Z</time></trkpt><trkpt lat="43.7984972" lon="12.856643"><ele>269.6</ele><time>2026-04-13T13:49:11.264Z</time></trkpt><trkpt lat="43.7985755" lon="12.8567495"><ele>269.8</ele><time>2026-04-13T13:49:12.264Z</time></trkpt><trkpt lat="43.7986536" lon="12.8568477"><ele>270.0</ele><time>2026-04-13T13:49:13.265Z</time></trkpt><trkpt lat="43.7987238" lon="12.8569484"><ele>264.1666666666667</ele><time>2026-04-13T13:49:14.265Z</time></trkpt><trkpt lat="43.7987692" lon="12.8570472"><ele>258.3333333333333</ele><time>2026-04-13T13:49:15.264Z</time></trkpt><trkpt lat="43.7988017" lon="12.8571413"><ele>252.5</ele><time>2026-04-13T13:49:16.265Z</time></trkpt><trkpt lat="43.7988235" lon="12.8572403"><ele>246.66666666666666</ele><time>2026-04-13T13:49:17.264Z</time></trkpt><trkpt lat="43.7988328" lon="12.8573296"><ele>240.83333333333331</ele><time>2026-04-13T13:49:18.264Z</time></trkpt><trkpt lat="43.798834" lon="12.8575033"><ele>235.0</ele><time>2026-04-13T13:49:20.264Z</time></trkpt><trkpt lat="43.7988215" lon="12.8576083"><ele>234.99999999999997</ele><time>2026-04-13T13:49:21.263Z</time></trkpt><trkpt lat="43.7988045" lon="12.8576932"><ele>235.0</ele><time>2026-04-13T13:49:22.265Z</time></trkpt><trkpt lat="43.7987766" lon="12.857772"><ele>235.0</ele><time>2026-04-13T13:49:23.265Z</time></trkpt><trkpt lat="43.7987331" lon="12.8578456"><ele>235.0</ele><time>2026-04-13T13:49:24.264Z</time></trkpt><trkpt lat="43.7986659" lon="12.8579162"><ele>234.99999999999997</ele><time>2026-04-13T13:49:25.265Z</time></trkpt><trkpt lat="43.7985653" lon="12.8579872"><ele>235.0</ele><time>2026-04-13T13:49:26.265Z</time></trkpt><trkpt lat="43.7984404" lon="12.8580689"><ele>235.0</ele><time>2026-04-13T13:49:27.265Z</time></trkpt><trkpt lat="43.7983311" lon="12.8581441"><ele>235.0</ele><time>2026-04-13T13:49:28.263Z</time></trkpt><trkpt lat="43.7982383" lon="12.8582147"><ele>235.0</ele><time>2026-04-13T13:49:29.265Z</time></trkpt><trkpt lat="43.7981582" lon="12.8582781"><ele>235.0</ele><time>2026-04-13T13:49:30.263Z</time></trkpt><trkpt lat="43.7980817" lon="12.8583337"><ele>235.0</ele><time>2026-04-13T13:49:31.265Z</time></trkpt><trkpt lat="43.7980046" lon="12.8583866"><ele>234.99999999999997</ele><time>2026-04-13T13:49:32.264Z</time></trkpt><trkpt lat="43.7979217" lon="12.8584411"><ele>235.0</ele><time>2026-04-13T13:49:33.264Z</time></trkpt><trkpt lat="43.7978406" lon="12.8584861"><ele>235.0</ele><time>2026-04-13T13:49:34.265Z</time></trkpt><trkpt lat="43.7977672" lon="12.8585405"><ele>235.0</ele><time>2026-04-13T13:49:35.265Z</time></trkpt><trkpt lat="43.7976989" lon="12.8586026"><ele>234.99999999999997</ele><time>2026-04-13T13:49:36.264Z</time></trkpt><trkpt lat="43.7976431" lon="12.8586748"><ele>235.0</ele><time>2026-04-13T13:49:37.264Z</time></trkpt><trkpt lat="43.7975985" lon="12.8587418"><ele>232.6</ele><time>2026-04-13T13:49:38.265Z</time></trkpt><trkpt lat="43.7975367" lon="12.8588699"><ele>230.2</ele><time>2026-04-13T13:49:40.265Z</time></trkpt><trkpt lat="43.7975558" lon="12.8590378"><ele>227.8</ele><time>2026-04-13T13:49:42.263Z</time></trkpt><trkpt lat="43.7975987" lon="12.8591569"><ele>225.4</ele><time>2026-04-13T13:49:43.265Z</time></trkpt><trkpt lat="43.7976264" lon="12.8592434"><ele>223.0</ele><time>2026-04-13T13:49:44.264Z</time></trkpt><trkpt lat="43.7976441" lon="12.8593839"><ele>219.75</ele><time>2026-04-13T13:49:46.264Z</time></trkpt><trkpt lat="43.7975689" lon="12.859575"><ele>216.5</ele><time>2026-04-13T13:49:48.265Z</time></trkpt><trkpt lat="43.7975024" lon="12.859704"><ele>213.25</ele><time>2026-04-13T13:49:49.265Z</time></trkpt><trkpt lat="43.7974429" lon="12.8598062"><ele>210.0</ele><time>2026-04-13T13:49:50.264Z</time></trkpt><trkpt lat="43.7973824" lon="12.8598866"><ele>210.0</ele><time>2026-04-13T13:49:51.264Z</time></trkpt><trkpt lat="43.7973194" lon="12.8599375"><ele>210.0</ele><time>2026-04-13T13:49:52.263Z</time></trkpt><trkpt lat="43.7972416" lon="12.859959"><ele>210.0</ele><time>2026-04-13T13:49:53.265Z</time></trkpt><trkpt lat="43.7971368" lon="12.8599687"><ele>210.0</ele><time>2026-04-13T13:49:54.264Z</time></trkpt><trkpt lat="43.7970148" lon="12.8599921"><ele>210.0</ele><time>2026-04-13T13:49:55.265Z</time></trkpt><trkpt lat="43.7969124" lon="12.8600358"><ele>210.33333333333334</ele><time>2026-04-13T13:49:56.264Z</time></trkpt><trkpt lat="43.796817" lon="12.8600886"><ele>210.66666666666669</ele><time>2026-04-13T13:49:57.265Z</time></trkpt><trkpt lat="43.7967313" lon="12.8601425"><ele>211.0</ele><time>2026-04-13T13:49:58.264Z</time></trkpt><trkpt lat="43.7966512" lon="12.8601949"><ele>211.33333333333334</ele><time>2026-04-13T13:49:59.264Z</time></trkpt><trkpt lat="43.7965794" lon="12.8602353"><ele>211.66666666666669</ele><time>2026-04-13T13:50:00.264Z</time></trkpt><trkpt lat="43.7965094" lon="12.860262"><ele>212.0</ele><time>2026-04-13T13:50:01.264Z</time></trkpt><trkpt lat="43.7964316" lon="12.8602628"><ele>212.0</ele><time>2026-04-13T13:50:02.264Z</time></trkpt><trkpt lat="43.7963395" lon="12.8602437"><ele>212.0</ele><time>2026-04-13T13:50:03.265Z</time></trkpt><trkpt lat="43.7962493" lon="12.8602166"><ele>212.0</ele><time>2026-04-13T13:50:04.264Z</time></trkpt><trkpt lat="43.7961726" lon="12.8602066"><ele>212.0</ele><time>2026-04-13T13:50:05.264Z</time></trkpt><trkpt lat="43.7960581" lon="12.8602367"><ele>212.0</ele><time>2026-04-13T13:50:07.264Z</time></trkpt><trkpt lat="43.7959894" lon="12.8603249"><ele>212.0</ele><time>2026-04-13T13:50:09.265Z</time></trkpt><trkpt lat="43.7959772" lon="12.8604327"><ele>212.0</ele><time>2026-04-13T13:50:11.264Z</time></trkpt><trkpt lat="43.7960072" lon="12.8605134"><ele>212.0</ele><time>2026-04-13T13:50:12.263Z</time></trkpt><trkpt lat="43.7960604" lon="12.8606053"><ele>212.0</ele><time>2026-04-13T13:50:13.264Z</time></trkpt><trkpt lat="43.7961468" lon="12.8607175"><ele>212.0</ele><time>2026-04-13T13:50:14.264Z</time></trkpt><trkpt lat="43.7962347" lon="12.8608567"><ele>215.0</ele><time>2026-04-13T13:50:15.264Z</time></trkpt><trkpt lat="43.7963174" lon="12.8610253"><ele>218.0</ele><time>2026-04-13T13:50:16.264Z</time></trkpt><trkpt lat="43.7964122" lon="12.8611653"><ele>221.0</ele><time>2026-04-13T13:50:17.264Z</time></trkpt><trkpt lat="43.7965115" lon="12.8612672"><ele>224.0</ele><time>2026-04-13T13:50:18.264Z</time></trkpt><trkpt lat="43.796623" lon="12.8613589"><ele>224.0</ele><time>2026-04-13T13:50:19.264Z</time></trkpt><trkpt lat="43.7967343" lon="12.8614172"><ele>223.99999999999997</ele><time>2026-04-13T13:50:20.264Z</time></trkpt><trkpt lat="43.7968347" lon="12.8614668"><ele>223.99999999999997</ele><time>2026-04-13T13:50:21.264Z</time></trkpt><trkpt lat="43.7969036" lon="12.8615184"><ele>224.0</ele><time>2026-04-13T13:50:22.264Z</time></trkpt><trkpt lat="43.7969591" lon="12.8616648"><ele>224.0</ele><time>2026-04-13T13:50:24.264Z</time></trkpt><trkpt lat="43.7969682" lon="12.8617872"><ele>223.39999999999998</ele><time>2026-04-13T13:50:25.264Z</time></trkpt><trkpt lat="43.7969572" lon="12.8619487"><ele>222.79999999999998</ele><time>2026-04-13T13:50:26.265Z</time></trkpt><trkpt lat="43.7969512" lon="12.8620784"><ele>222.20000000000002</ele><time>2026-04-13T13:50:27.264Z</time></trkpt><trkpt lat="43.7969631" lon="12.8622077"><ele>221.60000000000002</ele><time>2026-04-13T13:50:28.264Z</time></trkpt><trkpt lat="43.7969945" lon="12.8623356"><ele>221.0</ele><time>2026-04-13T13:50:29.264Z</time></trkpt><trkpt lat="43.797044" lon="12.8624609"><ele>221.0</ele><time>2026-04-13T13:50:30.265Z</time></trkpt><trkpt lat="43.7971041" lon="12.8626013"><ele>221.0</ele><time>2026-04-13T13:50:31.264Z</time></trkpt><trkpt lat="43.7971762" lon="12.8627643"><ele>221.0</ele><time>2026-04-13T13:50:32.264Z</time></trkpt><trkpt lat="43.7972452" lon="12.8629251"><ele>221.0</ele><time>2026-04-13T13:50:33.264Z</time></trkpt><trkpt lat="43.7973092" lon="12.8630697"><ele>223.20000000000002</ele><time>2026-04-13T13:50:34.264Z</time></trkpt><trkpt lat="43.7973657" lon="12.8631956"><ele>225.40000000000003</ele><time>2026-04-13T13:50:35.264Z</time></trkpt><trkpt lat="43.7974195" lon="12.8633153"><ele>227.6</ele><time>2026-04-13T13:50:36.264Z</time></trkpt><trkpt lat="43.7974701" lon="12.8634151"><ele>229.8</ele><time>2026-04-13T13:50:37.265Z</time></trkpt><trkpt lat="43.7975229" lon="12.8634918"><ele>232.0</ele><time>2026-04-13T13:50:38.265Z</time></trkpt><trkpt lat="43.7975893" lon="12.8635454"><ele>232.42857142857144</ele><time>2026-04-13T13:50:39.265Z</time></trkpt><trkpt lat="43.7976645" lon="12.8635682"><ele>232.85714285714286</ele><time>2026-04-13T13:50:40.265Z</time></trkpt><trkpt lat="43.7977402" lon="12.8635715"><ele>233.28571428571428</ele><time>2026-04-13T13:50:41.263Z</time></trkpt><trkpt lat="43.7978197" lon="12.8635472"><ele>233.71428571428572</ele><time>2026-04-13T13:50:42.264Z</time></trkpt><trkpt lat="43.7978969" lon="12.8635334"><ele>234.1428571428571</ele><time>2026-04-13T13:50:43.264Z</time></trkpt><trkpt lat="43.7979609" lon="12.863521"><ele>234.57142857142856</ele><time>2026-04-13T13:50:44.264Z</time></trkpt><trkpt lat="43.7980279" lon="12.8635433"><ele>235.0</ele><time>2026-04-13T13:50:46.264Z</time></trkpt><trkpt lat="43.7980581" lon="12.8636432"><ele>235.0</ele><time>2026-04-13T13:50:55.264Z</time></trkpt><trkpt lat="43.7980214" lon="12.8637839"><ele>235.0</ele><time>2026-04-13T13:50:57.265Z</time></trkpt><trkpt lat="43.7979997" lon="12.8639016"><ele>235.0</ele><time>2026-04-13T13:50:58.264Z</time></trkpt><trkpt lat="43.7979686" lon="12.8640479"><ele>235.0</ele><time>2026-04-13T13:50:59.265Z</time></trkpt><trkpt lat="43.7979309" lon="12.8642439"><ele>236.75</ele><time>2026-04-13T13:51:00.264Z</time></trkpt><trkpt lat="43.7978933" lon="12.8644337"><ele>238.5</ele><time>2026-04-13T13:51:01.265Z</time></trkpt><trkpt lat="43.7978579" lon="12.8646072"><ele>240.25</ele><time>2026-04-13T13:51:02.265Z</time></trkpt><trkpt lat="43.797827" lon="12.8647439"><ele>242.0</ele><time>2026-04-13T13:51:03.264Z</time></trkpt><trkpt lat="43.7978022" lon="12.8648587"><ele>242.00000000000003</ele><time>2026-04-13T13:51:04.263Z</time></trkpt><trkpt lat="43.7977826" lon="12.8649624"><ele>242.0</ele><time>2026-04-13T13:51:05.264Z</time></trkpt><trkpt lat="43.7977573" lon="12.865075"><ele>242.0</ele><time>2026-04-13T13:51:06.265Z</time></trkpt><trkpt lat="43.7977292" lon="12.8651896"><ele>242.0</ele><time>2026-04-13T13:51:07.265Z</time></trkpt><trkpt lat="43.7977001" lon="12.8652869"><ele>242.00000000000003</ele><time>2026-04-13T13:51:08.265Z</time></trkpt><trkpt lat="43.7976658" lon="12.8653657"><ele>242.0</ele><time>2026-04-13T13:51:09.264Z</time></trkpt><trkpt lat="43.7975987" lon="12.8654756"><ele>242.66666666666669</ele><time>2026-04-13T13:51:11.265Z</time></trkpt><trkpt lat="43.7975241" lon="12.8655035"><ele>243.33333333333334</ele><time>2026-04-13T13:51:13.263Z</time></trkpt><trkpt lat="43.7974354" lon="12.8654777"><ele>244.0</ele><time>2026-04-13T13:51:17.264Z</time></trkpt><trkpt lat="43.7973705" lon="12.8654144"><ele>244.66666666666669</ele><time>2026-04-13T13:51:19.265Z</time></trkpt><trkpt lat="43.7973235" lon="12.8653185"><ele>245.33333333333334</ele><time>2026-04-13T13:51:21.264Z</time></trkpt><trkpt lat="43.79727" lon="12.8652688"><ele>246.0</ele><time>2026-04-13T13:51:32.264Z</time></trkpt><trkpt lat="43.7972547" lon="12.865376"><ele>246.0</ele><time>2026-04-13T13:51:34.264Z</time></trkpt><trkpt lat="43.7973639" lon="12.865479"><ele>246.0</ele><time>2026-04-13T13:51:36.264Z</time></trkpt><trkpt lat="43.7974575" lon="12.8655639"><ele>246.0</ele><time>2026-04-13T13:51:37.265Z</time></trkpt><trkpt lat="43.7975645" lon="12.8656732"><ele>246.0</ele><time>2026-04-13T13:51:38.263Z</time></trkpt><trkpt lat="43.7976614" lon="12.8657642"><ele>246.25</ele><time>2026-04-13T13:51:39.264Z</time></trkpt><trkpt lat="43.7977712" lon="12.8658578"><ele>246.5</ele><time>2026-04-13T13:51:40.263Z</time></trkpt><trkpt lat="43.7978825" lon="12.8659354"><ele>246.75</ele><time>2026-04-13T13:51:41.265Z</time></trkpt><trkpt lat="43.7979887" lon="12.8659975"><ele>247.0</ele><time>2026-04-13T13:51:42.265Z</time></trkpt><trkpt lat="43.798091" lon="12.8660496"><ele>246.83333333333331</ele><time>2026-04-13T13:51:43.264Z</time></trkpt><trkpt lat="43.7981842" lon="12.8660914"><ele>246.66666666666666</ele><time>2026-04-13T13:51:44.264Z</time></trkpt><trkpt lat="43.7982704" lon="12.8661339"><ele>246.5</ele><time>2026-04-13T13:51:45.264Z</time></trkpt><trkpt lat="43.7983517" lon="12.8661766"><ele>246.33333333333331</ele><time>2026-04-13T13:51:46.264Z</time></trkpt><trkpt lat="43.7984343" lon="12.8662283"><ele>246.16666666666666</ele><time>2026-04-13T13:51:47.264Z</time></trkpt><trkpt lat="43.7985054" lon="12.8662799"><ele>246.0</ele><time>2026-04-13T13:51:48.265Z</time></trkpt><trkpt lat="43.7985719" lon="12.8663352"><ele>246.0</ele><time>2026-04-13T13:51:49.264Z</time></trkpt><trkpt lat="43.7986473" lon="12.8664014"><ele>246.0</ele><time>2026-04-13T13:51:50.264Z</time></trkpt><trkpt lat="43.7987131" lon="12.8664714"><ele>246.0</ele><time>2026-04-13T13:51:51.264Z</time></trkpt><trkpt lat="43.7987803" lon="12.8665452"><ele>246.0</ele><time>2026-04-13T13:51:52.263Z</time></trkpt><trkpt lat="43.7988381" lon="12.8666188"><ele>246.0</ele><time>2026-04-13T13:51:53.264Z</time></trkpt><trkpt lat="43.798901" lon="12.8667037"><ele>246.0</ele><time>2026-04-13T13:51:54.264Z</time></trkpt><trkpt lat="43.7989617" lon="12.8667949"><ele>244.66666666666666</ele><time>2026-04-13T13:51:55.264Z</time></trkpt><trkpt lat="43.7990197" lon="12.8668796"><ele>243.33333333333331</ele><time>2026-04-13T13:51:56.264Z</time></trkpt><trkpt lat="43.799078" lon="12.8669601"><ele>242.0</ele><time>2026-04-13T13:51:57.264Z</time></trkpt><trkpt lat="43.7991366" lon="12.8670341"><ele>240.66666666666666</ele><time>2026-04-13T13:51:58.264Z</time></trkpt><trkpt lat="43.7991994" lon="12.8671103"><ele>239.33333333333331</ele><time>2026-04-13T13:51:59.264Z</time></trkpt><trkpt lat="43.7992645" lon="12.8671936"><ele>238.0</ele><time>2026-04-13T13:52:00.263Z</time></trkpt><trkpt lat="43.7993266" lon="12.8672649"><ele>237.4</ele><time>2026-04-13T13:52:01.264Z</time></trkpt><trkpt lat="43.7993982" lon="12.8673285"><ele>236.8</ele><time>2026-04-13T13:52:02.264Z</time></trkpt><trkpt lat="43.7994839" lon="12.8673824"><ele>236.2</ele><time>2026-04-13T13:52:03.264Z</time></trkpt><trkpt lat="43.7995821" lon="12.8674052"><ele>235.6</ele><time>2026-04-13T13:52:04.264Z</time></trkpt><trkpt lat="43.7996897" lon="12.8674069"><ele>235.0</ele><time>2026-04-13T13:52:05.264Z</time></trkpt><trkpt lat="43.7997967" lon="12.8673936"><ele>235.0</ele><time>2026-04-13T13:52:06.264Z</time></trkpt><trkpt lat="43.7998989" lon="12.8673742"><ele>235.0</ele><time>2026-04-13T13:52:07.264Z</time></trkpt><trkpt lat="43.8000003" lon="12.8673485"><ele>235.0</ele><time>2026-04-13T13:52:08.265Z</time></trkpt><trkpt lat="43.800105" lon="12.8673156"><ele>235.0</ele><time>2026-04-13T13:52:09.264Z</time></trkpt><trkpt lat="43.8002052" lon="12.8672792"><ele>235.0</ele><time>2026-04-13T13:52:10.263Z</time></trkpt><trkpt lat="43.8003067" lon="12.8672391"><ele>234.25</ele><time>2026-04-13T13:52:11.265Z</time></trkpt><trkpt lat="43.8004045" lon="12.8671914"><ele>233.5</ele><time>2026-04-13T13:52:12.264Z</time></trkpt><trkpt lat="43.8005108" lon="12.8671164"><ele>232.75</ele><time>2026-04-13T13:52:13.264Z</time></trkpt><trkpt lat="43.8006453" lon="12.8670114"><ele>232.0</ele><time>2026-04-13T13:52:14.264Z</time></trkpt><trkpt lat="43.8007914" lon="12.8668963"><ele>232.66666666666666</ele><time>2026-04-13T13:52:15.265Z</time></trkpt><trkpt lat="43.800946" lon="12.8667751"><ele>233.33333333333331</ele><time>2026-04-13T13:52:16.264Z</time></trkpt><trkpt lat="43.8010994" lon="12.8666506"><ele>234.0</ele><time>2026-04-13T13:52:17.265Z</time></trkpt><trkpt lat="43.8012402" lon="12.8665318"><ele>234.0</ele><time>2026-04-13T13:52:18.264Z</time></trkpt><trkpt lat="43.8013613" lon="12.8664302"><ele>234.0</ele><time>2026-04-13T13:52:19.264Z</time></trkpt><trkpt lat="43.8014759" lon="12.8663474"><ele>234.0</ele><time>2026-04-13T13:52:20.264Z</time></trkpt><trkpt lat="43.8015921" lon="12.8662702"><ele>234.0</ele><time>2026-04-13T13:52:21.264Z</time></trkpt><trkpt lat="43.8017215" lon="12.8661947"><ele>233.75</ele><time>2026-04-13T13:52:22.265Z</time></trkpt><trkpt lat="43.8018551" lon="12.8661176"><ele>233.5</ele><time>2026-04-13T13:52:23.263Z</time></trkpt><trkpt lat="43.8019915" lon="12.8660373"><ele>233.25</ele><time>2026-04-13T13:52:24.264Z</time></trkpt><trkpt lat="43.8021255" lon="12.8659468"><ele>233.0</ele><time>2026-04-13T13:52:25.263Z</time></trkpt><trkpt lat="43.8022492" lon="12.8658421"><ele>233.0</ele><time>2026-04-13T13:52:26.264Z</time></trkpt><trkpt lat="43.8023664" lon="12.8657312"><ele>233.0</ele><time>2026-04-13T13:52:27.264Z</time></trkpt><trkpt lat="43.8024751" lon="12.8656192"><ele>233.0</ele><time>2026-04-13T13:52:28.264Z</time></trkpt><trkpt lat="43.8025736" lon="12.8655085"><ele>233.0</ele><time>2026-04-13T13:52:29.265Z</time></trkpt><trkpt lat="43.8026573" lon="12.8653996"><ele>230.4</ele><time>2026-04-13T13:52:30.264Z</time></trkpt><trkpt lat="43.8027304" lon="12.8652934"><ele>227.8</ele><time>2026-04-13T13:52:31.264Z</time></trkpt><trkpt lat="43.8027904" lon="12.8651809"><ele>225.2</ele><time>2026-04-13T13:52:32.265Z</time></trkpt><trkpt lat="43.8028412" lon="12.8650732"><ele>222.6</ele><time>2026-04-13T13:52:33.265Z</time></trkpt><trkpt lat="43.8028735" lon="12.8649974"><ele>220.0</ele><time>2026-04-13T13:52:34.264Z</time></trkpt><trkpt lat="43.8029347" lon="12.8648601"><ele>220.0</ele><time>2026-04-13T13:52:36.263Z</time></trkpt><trkpt lat="43.8029804" lon="12.8647381"><ele>220.0</ele><time>2026-04-13T13:52:37.264Z</time></trkpt><trkpt lat="43.8030382" lon="12.8645844"><ele>220.0</ele><time>2026-04-13T13:52:38.264Z</time></trkpt><trkpt lat="43.8031002" lon="12.864446"><ele>220.0</ele><time>2026-04-13T13:52:39.265Z</time></trkpt><trkpt lat="43.8031805" lon="12.8643309"><ele>222.0</ele><time>2026-04-13T13:52:40.265Z</time></trkpt><trkpt lat="43.8032945" lon="12.86423"><ele>224.0</ele><time>2026-04-13T13:52:41.264Z</time></trkpt><trkpt lat="43.8034478" lon="12.864109"><ele>226.0</ele><time>2026-04-13T13:52:42.265Z</time></trkpt><trkpt lat="43.8035982" lon="12.8639845"><ele>222.0</ele><time>2026-04-13T13:52:43.263Z</time></trkpt><trkpt lat="43.8037248" lon="12.8638541"><ele>218.0</ele><time>2026-04-13T13:52:44.264Z</time></trkpt><trkpt lat="43.8038349" lon="12.8637058"><ele>214.0</ele><time>2026-04-13T13:52:45.264Z</time></trkpt><trkpt lat="43.8039419" lon="12.8635071"><ele>216.66666666666666</ele><time>2026-04-13T13:52:46.264Z</time></trkpt><trkpt lat="43.8040526" lon="12.8632803"><ele>219.33333333333331</ele><time>2026-04-13T13:52:47.265Z</time></trkpt><trkpt lat="43.8041452" lon="12.8630993"><ele>222.0</ele><time>2026-04-13T13:52:48.264Z</time></trkpt><trkpt lat="43.8042495" lon="12.8629457"><ele>222.0</ele><time>2026-04-13T13:52:49.264Z</time></trkpt><trkpt lat="43.8043715" lon="12.8628135"><ele>222.0</ele><time>2026-04-13T13:52:50.263Z</time></trkpt><trkpt lat="43.8045073" lon="12.8627056"><ele>222.0</ele><time>2026-04-13T13:52:51.264Z</time></trkpt><trkpt lat="43.804659" lon="12.8626132"><ele>222.0</ele><time>2026-04-13T13:52:52.264Z</time></trkpt><trkpt lat="43.8048158" lon="12.8625207"><ele>222.0</ele><time>2026-04-13T13:52:53.264Z</time></trkpt><trkpt lat="43.8049654" lon="12.8624376"><ele>222.0</ele><time>2026-04-13T13:52:54.264Z</time></trkpt><trkpt lat="43.8051121" lon="12.8623567"><ele>218.0</ele><time>2026-04-13T13:52:55.265Z</time></trkpt><trkpt lat="43.8052509" lon="12.8622679"><ele>214.0</ele><time>2026-04-13T13:52:56.265Z</time></trkpt><trkpt lat="43.8053842" lon="12.8621663"><ele>210.0</ele><time>2026-04-13T13:52:57.264Z</time></trkpt><trkpt lat="43.805513" lon="12.8620555"><ele>210.0</ele><time>2026-04-13T13:52:58.264Z</time></trkpt><trkpt lat="43.8056306" lon="12.8619314"><ele>210.0</ele><time>2026-04-13T13:52:59.264Z</time></trkpt><trkpt lat="43.805736" lon="12.8617833"><ele>210.0</ele><time>2026-04-13T13:53:00.265Z</time></trkpt><trkpt lat="43.8058356" lon="12.8616107"><ele>212.0</ele><time>2026-04-13T13:53:01.264Z</time></trkpt><trkpt lat="43.8059377" lon="12.861441"><ele>214.0</ele><time>2026-04-13T13:53:02.264Z</time></trkpt><trkpt lat="43.8060441" lon="12.8612612"><ele>216.0</ele><time>2026-04-13T13:53:03.264Z</time></trkpt><trkpt lat="43.806154" lon="12.8610712"><ele>215.0</ele><time>2026-04-13T13:53:04.264Z</time></trkpt><trkpt lat="43.8062688" lon="12.860876"><ele>214.0</ele><time>2026-04-13T13:53:05.263Z</time></trkpt><trkpt lat="43.8063796" lon="12.8606871"><ele>213.0</ele><time>2026-04-13T13:53:06.264Z</time></trkpt><trkpt lat="43.8064792" lon="12.8605208"><ele>213.0</ele><time>2026-04-13T13:53:07.264Z</time></trkpt><trkpt lat="43.8065591" lon="12.8603894"><ele>213.0</ele><time>2026-04-13T13:53:08.264Z</time></trkpt><trkpt lat="43.8066349" lon="12.8602709"><ele>213.0</ele><time>2026-04-13T13:53:09.264Z</time></trkpt><trkpt lat="43.80672" lon="12.8601511"><ele>213.0</ele><time>2026-04-13T13:53:10.264Z</time></trkpt><trkpt lat="43.8068252" lon="12.8600349"><ele>212.60000000000002</ele><time>2026-04-13T13:53:11.264Z</time></trkpt><trkpt lat="43.8069184" lon="12.8599343"><ele>212.20000000000002</ele><time>2026-04-13T13:53:12.264Z</time></trkpt><trkpt lat="43.8069772" lon="12.8598702"><ele>211.8</ele><time>2026-04-13T13:53:13.264Z</time></trkpt><trkpt lat="43.8070295" lon="12.8598135"><ele>211.4</ele><time>2026-04-13T13:53:14.265Z</time></trkpt><trkpt lat="43.8071264" lon="12.8597004"><ele>211.0</ele><time>2026-04-13T13:53:16.265Z</time></trkpt><trkpt lat="43.8071793" lon="12.8596409"><ele>211.0</ele><time>2026-04-13T13:53:17.264Z</time></trkpt><trkpt lat="43.8072461" lon="12.8595617"><ele>211.0</ele><time>2026-04-13T13:53:18.264Z</time></trkpt><trkpt lat="43.8073202" lon="12.8594723"><ele>211.0</ele><time>2026-04-13T13:53:19.265Z</time></trkpt><trkpt lat="43.8073943" lon="12.8593776"><ele>211.0</ele><time>2026-04-13T13:53:20.264Z</time></trkpt><trkpt lat="43.807476" lon="12.8592795"><ele>211.0</ele><time>2026-04-13T13:53:21.264Z</time></trkpt><trkpt lat="43.8075657" lon="12.8591809"><ele>212.25</ele><time>2026-04-13T13:53:22.265Z</time></trkpt><trkpt lat="43.8076562" lon="12.859082"><ele>213.5</ele><time>2026-04-13T13:53:23.265Z</time></trkpt><trkpt lat="43.807751" lon="12.8589782"><ele>214.75</ele><time>2026-04-13T13:53:24.264Z</time></trkpt><trkpt lat="43.807845" lon="12.858877"><ele>216.0</ele><time>2026-04-13T13:53:25.263Z</time></trkpt><trkpt lat="43.8079346" lon="12.8587731"><ele>214.60000000000002</ele><time>2026-04-13T13:53:26.263Z</time></trkpt><trkpt lat="43.8080175" lon="12.858674"><ele>213.20000000000002</ele><time>2026-04-13T13:53:27.264Z</time></trkpt><trkpt lat="43.8080981" lon="12.8585796"><ele>211.8</ele><time>2026-04-13T13:53:28.264Z</time></trkpt><trkpt lat="43.8081753" lon="12.8584884"><ele>210.39999999999998</ele><time>2026-04-13T13:53:29.263Z</time></trkpt><trkpt lat="43.8082454" lon="12.8583957"><ele>209.0</ele><time>2026-04-13T13:53:30.263Z</time></trkpt><trkpt lat="43.8083136" lon="12.8583063"><ele>209.00000000000003</ele><time>2026-04-13T13:53:31.264Z</time></trkpt><trkpt lat="43.8083796" lon="12.8582207"><ele>209.0</ele><time>2026-04-13T13:53:32.264Z</time></trkpt><trkpt lat="43.8084421" lon="12.8581411"><ele>209.0</ele><time>2026-04-13T13:53:33.264Z</time></trkpt><trkpt lat="43.8085059" lon="12.858068"><ele>209.0</ele><time>2026-04-13T13:53:34.264Z</time></trkpt><trkpt lat="43.8085716" lon="12.8579993"><ele>209.00000000000003</ele><time>2026-04-13T13:53:35.264Z</time></trkpt><trkpt lat="43.8086405" lon="12.8579558"><ele>209.0</ele><time>2026-04-13T13:53:36.264Z</time></trkpt><trkpt lat="43.8087114" lon="12.8579543"><ele>207.2</ele><time>2026-04-13T13:53:37.264Z</time></trkpt><trkpt lat="43.8087804" lon="12.8579857"><ele>205.39999999999998</ele><time>2026-04-13T13:53:38.264Z</time></trkpt><trkpt lat="43.8088497" lon="12.858082"><ele>203.6</ele><time>2026-04-13T13:53:39.264Z</time></trkpt><trkpt lat="43.8089237" lon="12.8581961"><ele>201.8</ele><time>2026-04-13T13:53:40.264Z</time></trkpt><trkpt lat="43.8090118" lon="12.8583249"><ele>200.0</ele><time>2026-04-13T13:53:41.264Z</time></trkpt><trkpt lat="43.8091168" lon="12.8584584"><ele>198.0</ele><time>2026-04-13T13:53:42.265Z</time></trkpt><trkpt lat="43.8092394" lon="12.8585962"><ele>196.0</ele><time>2026-04-13T13:53:43.265Z</time></trkpt><trkpt lat="43.8093824" lon="12.8587411"><ele>194.0</ele><time>2026-04-13T13:53:44.265Z</time></trkpt><trkpt lat="43.8095418" lon="12.8588909"><ele>194.0</ele><time>2026-04-13T13:53:45.265Z</time></trkpt><trkpt lat="43.8097112" lon="12.8590379"><ele>194.0</ele><time>2026-04-13T13:53:46.264Z</time></trkpt><trkpt lat="43.809889" lon="12.8591833"><ele>194.0</ele><time>2026-04-13T13:53:47.265Z</time></trkpt><trkpt lat="43.8100648" lon="12.8593243"><ele>192.0</ele><time>2026-04-13T13:53:48.264Z</time></trkpt><trkpt lat="43.8102323" lon="12.8594577"><ele>190.0</ele><time>2026-04-13T13:53:49.265Z</time></trkpt><trkpt lat="43.8103869" lon="12.8595734"><ele>188.0</ele><time>2026-04-13T13:53:50.265Z</time></trkpt><trkpt lat="43.8104887" lon="12.8596505"><ele>188.0</ele><time>2026-04-13T13:53:51.264Z</time></trkpt><trkpt lat="43.8105763" lon="12.8597275"><ele>188.0</ele><time>2026-04-13T13:53:53.265Z</time></trkpt><trkpt lat="43.8106331" lon="12.8597698"><ele>188.0</ele><time>2026-04-13T13:53:54.263Z</time></trkpt><trkpt lat="43.8107097" lon="12.8598267"><ele>188.0</ele><time>2026-04-13T13:53:55.264Z</time></trkpt><trkpt lat="43.8108039" lon="12.8598998"><ele>188.0</ele><time>2026-04-13T13:53:56.264Z</time></trkpt><trkpt lat="43.8109099" lon="12.8599801"><ele>188.0</ele><time>2026-04-13T13:53:57.264Z</time></trkpt><trkpt lat="43.8110269" lon="12.8600686"><ele>188.0</ele><time>2026-04-13T13:53:58.264Z</time></trkpt><trkpt lat="43.8111517" lon="12.860164"><ele>188.0</ele><time>2026-04-13T13:53:59.265Z</time></trkpt><trkpt lat="43.811283" lon="12.8602659"><ele>188.0</ele><time>2026-04-13T13:54:00.265Z</time></trkpt><trkpt lat="43.8114251" lon="12.8603709"><ele>188.0</ele><time>2026-04-13T13:54:01.265Z</time></trkpt><trkpt lat="43.8115735" lon="12.8604765"><ele>188.0</ele><time>2026-04-13T13:54:02.264Z</time></trkpt><trkpt lat="43.8117264" lon="12.8605824"><ele>188.0</ele><time>2026-04-13T13:54:03.265Z</time></trkpt><trkpt lat="43.8118829" lon="12.8606861"><ele>186.33333333333331</ele><time>2026-04-13T13:54:04.265Z</time></trkpt><trkpt lat="43.8120438" lon="12.8607889"><ele>184.66666666666666</ele><time>2026-04-13T13:54:05.264Z</time></trkpt><trkpt lat="43.8122114" lon="12.8608936"><ele>183.0</ele><time>2026-04-13T13:54:06.264Z</time></trkpt><trkpt lat="43.812383" lon="12.8610019"><ele>183.0</ele><time>2026-04-13T13:54:07.264Z</time></trkpt><trkpt lat="43.8125597" lon="12.8611147"><ele>183.0</ele><time>2026-04-13T13:54:08.264Z</time></trkpt><trkpt lat="43.8127382" lon="12.8612283"><ele>183.0</ele><time>2026-04-13T13:54:09.265Z</time></trkpt><trkpt lat="43.8129023" lon="12.8613327"><ele>179.5</ele><time>2026-04-13T13:54:10.264Z</time></trkpt><trkpt lat="43.8130445" lon="12.8614224"><ele>176.0</ele><time>2026-04-13T13:54:11.264Z</time></trkpt><trkpt lat="43.8131782" lon="12.861509"><ele>172.5</ele><time>2026-04-13T13:54:12.265Z</time></trkpt><trkpt lat="43.8132958" lon="12.8615824"><ele>169.0</ele><time>2026-04-13T13:54:13.264Z</time></trkpt><trkpt lat="43.8133973" lon="12.8616461"><ele>169.0</ele><time>2026-04-13T13:54:14.265Z</time></trkpt><trkpt lat="43.8134764" lon="12.8616993"><ele>169.0</ele><time>2026-04-13T13:54:15.264Z</time></trkpt><trkpt lat="43.813533" lon="12.8617402"><ele>169.0</ele><time>2026-04-13T13:54:16.265Z</time></trkpt><trkpt lat="43.8136024" lon="12.861791"><ele>169.0</ele><time>2026-04-13T13:54:18.264Z</time></trkpt><trkpt lat="43.8137019" lon="12.8618776"><ele>169.0</ele><time>2026-04-13T13:54:20.263Z</time></trkpt><trkpt lat="43.8137816" lon="12.8619453"><ele>169.0</ele><time>2026-04-13T13:54:21.265Z</time></trkpt><trkpt lat="43.8138767" lon="12.8620285"><ele>167.0</ele><time>2026-04-13T13:54:22.264Z</time></trkpt><trkpt lat="43.8139763" lon="12.8621192"><ele>165.0</ele><time>2026-04-13T13:54:23.265Z</time></trkpt><trkpt lat="43.8141096" lon="12.8622454"><ele>163.0</ele><time>2026-04-13T13:54:24.264Z</time></trkpt><trkpt lat="43.8142768" lon="12.8624061"><ele>163.33333333333334</ele><time>2026-04-13T13:54:25.264Z</time></trkpt><trkpt lat="43.8144654" lon="12.8625798"><ele>163.66666666666666</ele><time>2026-04-13T13:54:26.265Z</time></trkpt><trkpt lat="43.8146314" lon="12.8627175"><ele>164.0</ele><time>2026-04-13T13:54:27.265Z</time></trkpt><trkpt lat="43.8147877" lon="12.862824"><ele>162.0</ele><time>2026-04-13T13:54:28.265Z</time></trkpt><trkpt lat="43.814953" lon="12.8629189"><ele>160.0</ele><time>2026-04-13T13:54:29.264Z</time></trkpt><trkpt lat="43.8151264" lon="12.8629934"><ele>158.0</ele><time>2026-04-13T13:54:30.263Z</time></trkpt><trkpt lat="43.8153251" lon="12.8630624"><ele>158.0</ele><time>2026-04-13T13:54:31.263Z</time></trkpt><trkpt lat="43.8155479" lon="12.8631405"><ele>158.0</ele><time>2026-04-13T13:54:32.265Z</time></trkpt><trkpt lat="43.8158065" lon="12.8632373"><ele>157.0</ele><time>2026-04-13T13:54:33.265Z</time></trkpt><trkpt lat="43.8160251" lon="12.8633284"><ele>156.0</ele><time>2026-04-13T13:54:34.265Z</time></trkpt><trkpt lat="43.8162307" lon="12.8634339"><ele>155.0</ele><time>2026-04-13T13:54:35.264Z</time></trkpt><trkpt lat="43.8164316" lon="12.8635706"><ele>151.0</ele><time>2026-04-13T13:54:36.265Z</time></trkpt><trkpt lat="43.8166255" lon="12.8637299"><ele>147.0</ele><time>2026-04-13T13:54:37.264Z</time></trkpt><trkpt lat="43.8168069" lon="12.8639186"><ele>148.5</ele><time>2026-04-13T13:54:38.265Z</time></trkpt><trkpt lat="43.8169828" lon="12.864124"><ele>150.0</ele><time>2026-04-13T13:54:39.264Z</time></trkpt><trkpt lat="43.8171586" lon="12.8643315"><ele>147.0</ele><time>2026-04-13T13:54:40.265Z</time></trkpt><trkpt lat="43.8173359" lon="12.864547"><ele>144.0</ele><time>2026-04-13T13:54:41.264Z</time></trkpt><trkpt lat="43.8175216" lon="12.8647687"><ele>143.5</ele><time>2026-04-13T13:54:42.265Z</time></trkpt><trkpt lat="43.8177174" lon="12.8650055"><ele>143.0</ele><time>2026-04-13T13:54:43.265Z</time></trkpt><trkpt lat="43.8179014" lon="12.8652323"><ele>142.5</ele><time>2026-04-13T13:54:44.264Z</time></trkpt><trkpt lat="43.8180733" lon="12.8654471"><ele>142.0</ele><time>2026-04-13T13:54:45.264Z</time></trkpt><trkpt lat="43.8182396" lon="12.865649"><ele>142.0</ele><time>2026-04-13T13:54:46.264Z</time></trkpt><trkpt lat="43.8183956" lon="12.8658434"><ele>142.0</ele><time>2026-04-13T13:54:47.265Z</time></trkpt><trkpt lat="43.8185421" lon="12.866023"><ele>142.0</ele><time>2026-04-13T13:54:48.264Z</time></trkpt><trkpt lat="43.8186816" lon="12.8661879"><ele>140.75</ele><time>2026-04-13T13:54:49.264Z</time></trkpt><trkpt lat="43.8187954" lon="12.8663281"><ele>139.5</ele><time>2026-04-13T13:54:50.263Z</time></trkpt><trkpt lat="43.8188936" lon="12.8664504"><ele>138.25</ele><time>2026-04-13T13:54:51.265Z</time></trkpt><trkpt lat="43.8189814" lon="12.8665569"><ele>137.0</ele><time>2026-04-13T13:54:52.264Z</time></trkpt><trkpt lat="43.8190565" lon="12.8666509"><ele>137.0</ele><time>2026-04-13T13:54:53.264Z</time></trkpt><trkpt lat="43.8191256" lon="12.8667376"><ele>137.0</ele><time>2026-04-13T13:54:54.264Z</time></trkpt><trkpt lat="43.8191995" lon="12.8668262"><ele>137.0</ele><time>2026-04-13T13:54:55.265Z</time></trkpt><trkpt lat="43.8192694" lon="12.8669135"><ele>137.0</ele><time>2026-04-13T13:54:56.264Z</time></trkpt><trkpt lat="43.8193357" lon="12.8669949"><ele>137.0</ele><time>2026-04-13T13:54:57.263Z</time></trkpt><trkpt lat="43.8194017" lon="12.8670714"><ele>137.0</ele><time>2026-04-13T13:54:58.264Z</time></trkpt><trkpt lat="43.8194688" lon="12.8671487"><ele>137.0</ele><time>2026-04-13T13:54:59.264Z</time></trkpt><trkpt lat="43.8195391" lon="12.8672232"><ele>137.0</ele><time>2026-04-13T13:55:00.264Z</time></trkpt><trkpt lat="43.8196145" lon="12.8672985"><ele>137.0</ele><time>2026-04-13T13:55:01.264Z</time></trkpt><trkpt lat="43.819688" lon="12.8673681"><ele>137.0</ele><time>2026-04-13T13:55:02.264Z</time></trkpt><trkpt lat="43.819757" lon="12.8674273"><ele>137.0</ele><time>2026-04-13T13:55:03.263Z</time></trkpt><trkpt lat="43.8198203" lon="12.8674787"><ele>137.0</ele><time>2026-04-13T13:55:04.264Z</time></trkpt><trkpt lat="43.8198934" lon="12.8675301"><ele>137.0</ele><time>2026-04-13T13:55:05.265Z</time></trkpt><trkpt lat="43.8199678" lon="12.8675816"><ele>137.0</ele><time>2026-04-13T13:55:06.264Z</time></trkpt><trkpt lat="43.8200466" lon="12.8676244"><ele>137.0</ele><time>2026-04-13T13:55:07.263Z</time></trkpt><trkpt lat="43.8201294" lon="12.8676604"><ele>137.0</ele><time>2026-04-13T13:55:08.264Z</time></trkpt><trkpt lat="43.820214" lon="12.8676922"><ele>137.0</ele><time>2026-04-13T13:55:09.264Z</time></trkpt><trkpt lat="43.8203003" lon="12.8677258"><ele>136.5</ele><time>2026-04-13T13:55:10.264Z</time></trkpt><trkpt lat="43.8203923" lon="12.8677568"><ele>136.0</ele><time>2026-04-13T13:55:11.264Z</time></trkpt><trkpt lat="43.8204823" lon="12.8677848"><ele>135.5</ele><time>2026-04-13T13:55:12.265Z</time></trkpt><trkpt lat="43.8205648" lon="12.867815"><ele>135.0</ele><time>2026-04-13T13:55:13.264Z</time></trkpt><trkpt lat="43.8206487" lon="12.8678453"><ele>134.5</ele><time>2026-04-13T13:55:14.264Z</time></trkpt><trkpt lat="43.8207345" lon="12.8678725"><ele>134.0</ele><time>2026-04-13T13:55:15.264Z</time></trkpt><trkpt lat="43.8208252" lon="12.8678983"><ele>134.0</ele><time>2026-04-13T13:55:16.263Z</time></trkpt><trkpt lat="43.8209154" lon="12.8679292"><ele>134.0</ele><time>2026-04-13T13:55:17.264Z</time></trkpt><trkpt lat="43.8210011" lon="12.8679581"><ele>134.0</ele><time>2026-04-13T13:55:18.264Z</time></trkpt><trkpt lat="43.821081" lon="12.8679853"><ele>134.0</ele><time>2026-04-13T13:55:19.264Z</time></trkpt><trkpt lat="43.8211604" lon="12.8680141"><ele>134.0</ele><time>2026-04-13T13:55:20.264Z</time></trkpt><trkpt lat="43.8212499" lon="12.8680464"><ele>134.0</ele><time>2026-04-13T13:55:21.265Z</time></trkpt><trkpt lat="43.8213374" lon="12.8680739"><ele>134.25</ele><time>2026-04-13T13:55:22.264Z</time></trkpt><trkpt lat="43.8214243" lon="12.8681014"><ele>134.5</ele><time>2026-04-13T13:55:23.265Z</time></trkpt><trkpt lat="43.821528" lon="12.8681241"><ele>134.75</ele><time>2026-04-13T13:55:24.264Z</time></trkpt><trkpt lat="43.8216718" lon="12.868167"><ele>135.0</ele><time>2026-04-13T13:55:25.265Z</time></trkpt><trkpt lat="43.8218444" lon="12.8682362"><ele>132.5</ele><time>2026-04-13T13:55:26.265Z</time></trkpt><trkpt lat="43.8220891" lon="12.8683332"><ele>130.0</ele><time>2026-04-13T13:55:27.265Z</time></trkpt><trkpt lat="43.8223482" lon="12.868434"><ele>130.0</ele><time>2026-04-13T13:55:28.264Z</time></trkpt><trkpt lat="43.82262" lon="12.8685301"><ele>130.0</ele><time>2026-04-13T13:55:29.263Z</time></trkpt><trkpt lat="43.8228758" lon="12.8686214"><ele>127.5</ele><time>2026-04-13T13:55:30.264Z</time></trkpt><trkpt lat="43.8231122" lon="12.8687029"><ele>125.0</ele><time>2026-04-13T13:55:31.264Z</time></trkpt><trkpt lat="43.8233466" lon="12.8687687"><ele>125.5</ele><time>2026-04-13T13:55:32.264Z</time></trkpt><trkpt lat="43.8236008" lon="12.8688154"><ele>126.0</ele><time>2026-04-13T13:55:33.265Z</time></trkpt><trkpt lat="43.8238779" lon="12.8688441"><ele>126.0</ele><time>2026-04-13T13:55:34.264Z</time></trkpt><trkpt lat="43.8241708" lon="12.868863"><ele>126.0</ele><time>2026-04-13T13:55:35.264Z</time></trkpt><trkpt lat="43.8244822" lon="12.8688733"><ele>125.5</ele><time>2026-04-13T13:55:36.265Z</time></trkpt><trkpt lat="43.8247892" lon="12.8688816"><ele>125.0</ele><time>2026-04-13T13:55:37.264Z</time></trkpt><trkpt lat="43.8250769" lon="12.8688917"><ele>124.0</ele><time>2026-04-13T13:55:38.264Z</time></trkpt><trkpt lat="43.8253486" lon="12.868903"><ele>123.0</ele><time>2026-04-13T13:55:39.264Z</time></trkpt><trkpt lat="43.8256109" lon="12.8689125"><ele>123.0</ele><time>2026-04-13T13:55:40.264Z</time></trkpt><trkpt lat="43.8258662" lon="12.8689244"><ele>123.0</ele><time>2026-04-13T13:55:41.264Z</time></trkpt><trkpt lat="43.82613" lon="12.8689367"><ele>118.5</ele><time>2026-04-13T13:55:42.264Z</time></trkpt><trkpt lat="43.8263973" lon="12.8689454"><ele>114.0</ele><time>2026-04-13T13:55:43.264Z</time></trkpt><trkpt lat="43.8266568" lon="12.8689544"><ele>110.5</ele><time>2026-04-13T13:55:44.264Z</time></trkpt><trkpt lat="43.8269098" lon="12.8689646"><ele>107.0</ele><time>2026-04-13T13:55:45.265Z</time></trkpt><trkpt lat="43.8271615" lon="12.8689756"><ele>107.0</ele><time>2026-04-13T13:55:46.264Z</time></trkpt><trkpt lat="43.8274117" lon="12.8689834"><ele>107.0</ele><time>2026-04-13T13:55:47.264Z</time></trkpt><trkpt lat="43.8276582" lon="12.8689945"><ele>103.0</ele><time>2026-04-13T13:55:48.265Z</time></trkpt><trkpt lat="43.8278985" lon="12.8690076"><ele>99.0</ele><time>2026-04-13T13:55:49.264Z</time></trkpt><trkpt lat="43.8281379" lon="12.8690161"><ele>99.0</ele><time>2026-04-13T13:55:50.264Z</time></trkpt><trkpt lat="43.8283775" lon="12.8690245"><ele>99.0</ele><time>2026-04-13T13:55:51.264Z</time></trkpt><trkpt lat="43.8286184" lon="12.8690358"><ele>95.0</ele><time>2026-04-13T13:55:52.265Z</time></trkpt><trkpt lat="43.8288546" lon="12.8690431"><ele>91.0</ele><time>2026-04-13T13:55:53.264Z</time></trkpt><trkpt lat="43.8290917" lon="12.8690508"><ele>89.0</ele><time>2026-04-13T13:55:54.264Z</time></trkpt><trkpt lat="43.8293291" lon="12.8690583"><ele>87.0</ele><time>2026-04-13T13:55:55.265Z</time></trkpt><trkpt lat="43.8295651" lon="12.8690672"><ele>87.0</ele><time>2026-04-13T13:55:56.264Z</time></trkpt><trkpt lat="43.829803" lon="12.8690755"><ele>87.0</ele><time>2026-04-13T13:55:57.265Z</time></trkpt><trkpt lat="43.8300371" lon="12.8690873"><ele>83.0</ele><time>2026-04-13T13:55:58.264Z</time></trkpt><trkpt lat="43.8302695" lon="12.8690962"><ele>79.0</ele><time>2026-04-13T13:55:59.264Z</time></trkpt><trkpt lat="43.8304872" lon="12.8691057"><ele>79.0</ele><time>2026-04-13T13:56:00.264Z</time></trkpt><trkpt lat="43.8306844" lon="12.8691159"><ele>79.0</ele><time>2026-04-13T13:56:01.265Z</time></trkpt><trkpt lat="43.8308708" lon="12.8691238"><ele>79.0</ele><time>2026-04-13T13:56:02.264Z</time></trkpt><trkpt lat="43.8310452" lon="12.8691351"><ele>77.66666666666666</ele><time>2026-04-13T13:56:03.265Z</time></trkpt><trkpt lat="43.8312095" lon="12.8691574"><ele>76.33333333333333</ele><time>2026-04-13T13:56:04.264Z</time></trkpt><trkpt lat="43.8313695" lon="12.8692119"><ele>75.0</ele><time>2026-04-13T13:56:05.263Z</time></trkpt><trkpt lat="43.8315319" lon="12.8693011"><ele>75.0</ele><time>2026-04-13T13:56:06.264Z</time></trkpt><trkpt lat="43.8316785" lon="12.8694126"><ele>75.0</ele><time>2026-04-13T13:56:07.264Z</time></trkpt><trkpt lat="43.8318042" lon="12.8695523"><ele>75.0</ele><time>2026-04-13T13:56:08.265Z</time></trkpt><trkpt lat="43.8319168" lon="12.8697314"><ele>73.66666666666667</ele><time>2026-04-13T13:56:09.265Z</time></trkpt><trkpt lat="43.8320192" lon="12.8699553"><ele>72.33333333333334</ele><time>2026-04-13T13:56:10.265Z</time></trkpt><trkpt lat="43.8321228" lon="12.8702366"><ele>71.0</ele><time>2026-04-13T13:56:11.264Z</time></trkpt><trkpt lat="43.8322256" lon="12.8705617"><ele>71.0</ele><time>2026-04-13T13:56:12.264Z</time></trkpt><trkpt lat="43.8323359" lon="12.8709156"><ele>71.0</ele><time>2026-04-13T13:56:13.264Z</time></trkpt><trkpt lat="43.8324496" lon="12.8712757"><ele>70.5</ele><time>2026-04-13T13:56:14.265Z</time></trkpt><trkpt lat="43.8325607" lon="12.8716052"><ele>70.0</ele><time>2026-04-13T13:56:15.264Z</time></trkpt><trkpt lat="43.8326726" lon="12.8719276"><ele>69.5</ele><time>2026-04-13T13:56:16.264Z</time></trkpt><trkpt lat="43.8327844" lon="12.8722371"><ele>69.0</ele><time>2026-04-13T13:56:17.263Z</time></trkpt><trkpt lat="43.8328947" lon="12.8725304"><ele>67.5</ele><time>2026-04-13T13:56:18.264Z</time></trkpt><trkpt lat="43.833006" lon="12.8728248"><ele>66.0</ele><time>2026-04-13T13:56:19.265Z</time></trkpt><trkpt lat="43.8331075" lon="12.8731207"><ele>66.0</ele><time>2026-04-13T13:56:20.264Z</time></trkpt><trkpt lat="43.8331882" lon="12.8734004"><ele>66.0</ele><time>2026-04-13T13:56:21.265Z</time></trkpt><trkpt lat="43.8332478" lon="12.8736847"><ele>66.0</ele><time>2026-04-13T13:56:22.265Z</time></trkpt><trkpt lat="43.8332907" lon="12.8739883"><ele>66.0</ele><time>2026-04-13T13:56:23.264Z</time></trkpt><trkpt lat="43.8333237" lon="12.8743038"><ele>66.0</ele><time>2026-04-13T13:56:24.265Z</time></trkpt><trkpt lat="43.8333576" lon="12.8745977"><ele>66.0</ele><time>2026-04-13T13:56:25.264Z</time></trkpt><trkpt lat="43.8333999" lon="12.8748662"><ele>66.33333333333333</ele><time>2026-04-13T13:56:26.265Z</time></trkpt><trkpt lat="43.8334612" lon="12.8751348"><ele>66.66666666666666</ele><time>2026-04-13T13:56:27.264Z</time></trkpt><trkpt lat="43.8335565" lon="12.8754203"><ele>67.0</ele><time>2026-04-13T13:56:28.263Z</time></trkpt><trkpt lat="43.8336827" lon="12.8757335"><ele>65.5</ele><time>2026-04-13T13:56:29.265Z</time></trkpt><trkpt lat="43.8338385" lon="12.8760651"><ele>64.0</ele><time>2026-04-13T13:56:30.264Z</time></trkpt><trkpt lat="43.8339893" lon="12.8763753"><ele>64.0</ele><time>2026-04-13T13:56:31.264Z</time></trkpt><trkpt lat="43.8341285" lon="12.8766605"><ele>64.0</ele><time>2026-04-13T13:56:32.264Z</time></trkpt><trkpt lat="43.8342401" lon="12.876893"><ele>63.33333333333333</ele><time>2026-04-13T13:56:33.264Z</time></trkpt><trkpt lat="43.834349" lon="12.8771174"><ele>62.66666666666667</ele><time>2026-04-13T13:56:34.263Z</time></trkpt><trkpt lat="43.8344505" lon="12.877333"><ele>62.0</ele><time>2026-04-13T13:56:35.265Z</time></trkpt><trkpt lat="43.8345471" lon="12.8775354"><ele>62.333333333333336</ele><time>2026-04-13T13:56:36.263Z</time></trkpt><trkpt lat="43.8346373" lon="12.8777249"><ele>62.66666666666667</ele><time>2026-04-13T13:56:37.265Z</time></trkpt><trkpt lat="43.8347256" lon="12.8779121"><ele>63.0</ele><time>2026-04-13T13:56:38.264Z</time></trkpt><trkpt lat="43.8348074" lon="12.878114"><ele>63.0</ele><time>2026-04-13T13:56:39.265Z</time></trkpt><trkpt lat="43.8348843" lon="12.8783162"><ele>63.0</ele><time>2026-04-13T13:56:40.264Z</time></trkpt><trkpt lat="43.8349534" lon="12.87853"><ele>63.0</ele><time>2026-04-13T13:56:41.264Z</time></trkpt><trkpt lat="43.835017" lon="12.8787558"><ele>63.0</ele><time>2026-04-13T13:56:42.264Z</time></trkpt><trkpt lat="43.8350712" lon="12.8789787"><ele>63.0</ele><time>2026-04-13T13:56:43.265Z</time></trkpt><trkpt lat="43.835124" lon="12.8792016"><ele>63.0</ele><time>2026-04-13T13:56:44.265Z</time></trkpt><trkpt lat="43.8351759" lon="12.8794298"><ele>62.66666666666667</ele><time>2026-04-13T13:56:45.265Z</time></trkpt><trkpt lat="43.8352286" lon="12.8796574"><ele>62.333333333333336</ele><time>2026-04-13T13:56:46.264Z</time></trkpt><trkpt lat="43.8352817" lon="12.8798841"><ele>62.0</ele><time>2026-04-13T13:56:47.264Z</time></trkpt><trkpt lat="43.8353317" lon="12.8801084"><ele>62.66666666666667</ele><time>2026-04-13T13:56:48.264Z</time></trkpt><trkpt lat="43.8353832" lon="12.8803388"><ele>63.33333333333333</ele><time>2026-04-13T13:56:49.264Z</time></trkpt><trkpt lat="43.8354317" lon="12.8805764"><ele>64.0</ele><time>2026-04-13T13:56:50.264Z</time></trkpt><trkpt lat="43.8354813" lon="12.8808088"><ele>62.666666666666664</ele><time>2026-04-13T13:56:51.265Z</time></trkpt><trkpt lat="43.8355342" lon="12.8810392"><ele>61.33333333333333</ele><time>2026-04-13T13:56:52.264Z</time></trkpt><trkpt lat="43.8355935" lon="12.8812749"><ele>60.0</ele><time>2026-04-13T13:56:53.265Z</time></trkpt><trkpt lat="43.8356552" lon="12.8815056"><ele>60.0</ele><time>2026-04-13T13:56:54.265Z</time></trkpt><trkpt lat="43.8357177" lon="12.8817335"><ele>60.0</ele><time>2026-04-13T13:56:55.264Z</time></trkpt><trkpt lat="43.8357877" lon="12.8819643"><ele>60.0</ele><time>2026-04-13T13:56:56.264Z</time></trkpt><trkpt lat="43.8358573" lon="12.8821972"><ele>60.0</ele><time>2026-04-13T13:56:57.264Z</time></trkpt><trkpt lat="43.8359254" lon="12.8824285"><ele>60.0</ele><time>2026-04-13T13:56:58.264Z</time></trkpt><trkpt lat="43.8359955" lon="12.8826636"><ele>60.0</ele><time>2026-04-13T13:56:59.265Z</time></trkpt><trkpt lat="43.836067" lon="12.8828952"><ele>60.33333333333333</ele><time>2026-04-13T13:57:00.264Z</time></trkpt><trkpt lat="43.8361369" lon="12.8831339"><ele>60.666666666666664</ele><time>2026-04-13T13:57:01.265Z</time></trkpt><trkpt lat="43.8362074" lon="12.8833736"><ele>61.0</ele><time>2026-04-13T13:57:02.264Z</time></trkpt><trkpt lat="43.8362757" lon="12.8836041"><ele>60.666666666666664</ele><time>2026-04-13T13:57:03.264Z</time></trkpt><trkpt lat="43.836344" lon="12.8838363"><ele>60.33333333333333</ele><time>2026-04-13T13:57:04.264Z</time></trkpt><trkpt lat="43.8364231" lon="12.8840738"><ele>60.0</ele><time>2026-04-13T13:57:05.265Z</time></trkpt><trkpt lat="43.8365266" lon="12.8843213"><ele>60.0</ele><time>2026-04-13T13:57:06.265Z</time></trkpt><trkpt lat="43.8366571" lon="12.8846016"><ele>60.0</ele><time>2026-04-13T13:57:07.264Z</time></trkpt><trkpt lat="43.8368025" lon="12.8849192"><ele>59.5</ele><time>2026-04-13T13:57:08.265Z</time></trkpt><trkpt lat="43.8369638" lon="12.8852675"><ele>59.0</ele><time>2026-04-13T13:57:09.264Z</time></trkpt><trkpt lat="43.8371344" lon="12.8856439"><ele>58.0</ele><time>2026-04-13T13:57:10.263Z</time></trkpt><trkpt lat="43.8373101" lon="12.8860287"><ele>57.0</ele><time>2026-04-13T13:57:11.264Z</time></trkpt><trkpt lat="43.8374721" lon="12.8863782"><ele>57.0</ele><time>2026-04-13T13:57:12.264Z</time></trkpt><trkpt lat="43.8376213" lon="12.8867001"><ele>57.0</ele><time>2026-04-13T13:57:13.263Z</time></trkpt><trkpt lat="43.8377594" lon="12.8870014"><ele>57.0</ele><time>2026-04-13T13:57:14.264Z</time></trkpt><trkpt lat="43.8378832" lon="12.8873037"><ele>57.0</ele><time>2026-04-13T13:57:15.265Z</time></trkpt><trkpt lat="43.8379915" lon="12.8876223"><ele>57.5</ele><time>2026-04-13T13:57:16.264Z</time></trkpt><trkpt lat="43.8380905" lon="12.8879757"><ele>58.0</ele><time>2026-04-13T13:57:17.264Z</time></trkpt><trkpt lat="43.838181" lon="12.8883429"><ele>57.0</ele><time>2026-04-13T13:57:18.265Z</time></trkpt><trkpt lat="43.8382594" lon="12.8886739"><ele>56.0</ele><time>2026-04-13T13:57:19.264Z</time></trkpt><trkpt lat="43.8383292" lon="12.8889746"><ele>56.0</ele><time>2026-04-13T13:57:20.263Z</time></trkpt><trkpt lat="43.8383942" lon="12.8892518"><ele>56.0</ele><time>2026-04-13T13:57:21.265Z</time></trkpt><trkpt lat="43.8384546" lon="12.8895078"><ele>56.0</ele><time>2026-04-13T13:57:22.264Z</time></trkpt><trkpt lat="43.8385111" lon="12.8897541"><ele>56.0</ele><time>2026-04-13T13:57:23.265Z</time></trkpt><trkpt lat="43.8385674" lon="12.8899974"><ele>56.0</ele><time>2026-04-13T13:57:24.264Z</time></trkpt><trkpt lat="43.838621" lon="12.8902333"><ele>56.0</ele><time>2026-04-13T13:57:25.265Z</time></trkpt><trkpt lat="43.8386725" lon="12.890462"><ele>56.0</ele><time>2026-04-13T13:57:26.264Z</time></trkpt><trkpt lat="43.8387236" lon="12.8906845"><ele>56.0</ele><time>2026-04-13T13:57:27.263Z</time></trkpt><trkpt lat="43.8387725" lon="12.8908944"><ele>56.0</ele><time>2026-04-13T13:57:28.265Z</time></trkpt><trkpt lat="43.8388251" lon="12.8911223"><ele>55.66666666666667</ele><time>2026-04-13T13:57:29.264Z</time></trkpt><trkpt lat="43.8388862" lon="12.8913757"><ele>55.33333333333333</ele><time>2026-04-13T13:57:30.264Z</time></trkpt><trkpt lat="43.838939" lon="12.891607"><ele>55.0</ele><time>2026-04-13T13:57:31.264Z</time></trkpt><trkpt lat="43.838984" lon="12.8918061"><ele>55.0</ele><time>2026-04-13T13:57:32.264Z</time></trkpt><trkpt lat="43.8390299" lon="12.8920109"><ele>55.0</ele><time>2026-04-13T13:57:33.264Z</time></trkpt><trkpt lat="43.8390775" lon="12.8922202"><ele>55.0</ele><time>2026-04-13T13:57:34.264Z</time></trkpt><trkpt lat="43.8391244" lon="12.8924289"><ele>55.0</ele><time>2026-04-13T13:57:35.263Z</time></trkpt><trkpt lat="43.8391676" lon="12.8926421"><ele>55.0</ele><time>2026-04-13T13:57:36.265Z</time></trkpt><trkpt lat="43.8392038" lon="12.8928612"><ele>55.0</ele><time>2026-04-13T13:57:37.265Z</time></trkpt><trkpt lat="43.8392297" lon="12.8930925"><ele>55.0</ele><time>2026-04-13T13:57:38.264Z</time></trkpt><trkpt lat="43.8392526" lon="12.8933312"><ele>55.0</ele><time>2026-04-13T13:57:39.264Z</time></trkpt><trkpt lat="43.8392773" lon="12.8935731"><ele>55.0</ele><time>2026-04-13T13:57:40.264Z</time></trkpt><trkpt lat="43.8392992" lon="12.8937986"><ele>54.0</ele><time>2026-04-13T13:57:41.265Z</time></trkpt><trkpt lat="43.8393215" lon="12.8940093"><ele>53.0</ele><time>2026-04-13T13:57:42.263Z</time></trkpt><trkpt lat="43.8393437" lon="12.8942048"><ele>52.0</ele><time>2026-04-13T13:57:43.264Z</time></trkpt><trkpt lat="43.8393767" lon="12.8943765"><ele>51.0</ele><time>2026-04-13T13:57:44.263Z</time></trkpt><trkpt lat="43.8394364" lon="12.8945276"><ele>51.0</ele><time>2026-04-13T13:57:45.264Z</time></trkpt><trkpt lat="43.8395173" lon="12.8946422"><ele>51.0</ele><time>2026-04-13T13:57:46.265Z</time></trkpt><trkpt lat="43.8396175" lon="12.8947109"><ele>51.0</ele><time>2026-04-13T13:57:47.263Z</time></trkpt><trkpt lat="43.8397383" lon="12.8947414"><ele>51.0</ele><time>2026-04-13T13:57:48.263Z</time></trkpt><trkpt lat="43.839917" lon="12.8947497"><ele>51.0</ele><time>2026-04-13T13:57:49.264Z</time></trkpt><trkpt lat="43.8400965" lon="12.8947653"><ele>51.0</ele><time>2026-04-13T13:57:50.265Z</time></trkpt><trkpt lat="43.8402597" lon="12.894769"><ele>51.0</ele><time>2026-04-13T13:57:51.265Z</time></trkpt><trkpt lat="43.8404129" lon="12.8947534"><ele>51.75</ele><time>2026-04-13T13:57:52.264Z</time></trkpt><trkpt lat="43.8405522" lon="12.8947169"><ele>52.5</ele><time>2026-04-13T13:57:53.264Z</time></trkpt><trkpt lat="43.8406886" lon="12.8946558"><ele>53.25</ele><time>2026-04-13T13:57:54.264Z</time></trkpt><trkpt lat="43.8408302" lon="12.8945971"><ele>54.0</ele><time>2026-04-13T13:57:55.264Z</time></trkpt><trkpt lat="43.8409673" lon="12.8945531"><ele>54.75</ele><time>2026-04-13T13:57:56.264Z</time></trkpt><trkpt lat="43.841092" lon="12.894533"><ele>55.5</ele><time>2026-04-13T13:57:57.264Z</time></trkpt><trkpt lat="43.8412089" lon="12.8945234"><ele>56.25</ele><time>2026-04-13T13:57:58.264Z</time></trkpt><trkpt lat="43.8413211" lon="12.8945213"><ele>57.0</ele><time>2026-04-13T13:57:59.265Z</time></trkpt><trkpt lat="43.8414232" lon="12.8945181"><ele>57.0</ele><time>2026-04-13T13:58:00.264Z</time></trkpt><trkpt lat="43.84151" lon="12.894518"><ele>57.0</ele><time>2026-04-13T13:58:01.264Z</time></trkpt><trkpt lat="43.8415848" lon="12.8945191"><ele>57.0</ele><time>2026-04-13T13:58:02.264Z</time></trkpt><trkpt lat="43.8416851" lon="12.8945289"><ele>57.0</ele><time>2026-04-13T13:58:04.265Z</time></trkpt><trkpt lat="43.8417647" lon="12.8945532"><ele>57.0</ele><time>2026-04-13T13:58:06.265Z</time></trkpt><trkpt lat="43.8418613" lon="12.8944806"><ele>57.75</ele><time>2026-04-13T13:58:09.265Z</time></trkpt><trkpt lat="43.8419041" lon="12.8943874"><ele>58.5</ele><time>2026-04-13T13:58:10.265Z</time></trkpt><trkpt lat="43.8419493" lon="12.8942437"><ele>59.25</ele><time>2026-04-13T13:58:11.266Z</time></trkpt><trkpt lat="43.842002" lon="12.894059"><ele>60.0</ele><time>2026-04-13T13:58:12.266Z</time></trkpt><trkpt lat="43.842056" lon="12.8938496"><ele>60.33333333333333</ele><time>2026-04-13T13:58:13.265Z</time></trkpt><trkpt lat="43.8421047" lon="12.8936302"><ele>60.666666666666664</ele><time>2026-04-13T13:58:14.265Z</time></trkpt><trkpt lat="43.8421451" lon="12.8933978"><ele>61.0</ele><time>2026-04-13T13:58:15.266Z</time></trkpt><trkpt lat="43.842176" lon="12.8931532"><ele>61.0</ele><time>2026-04-13T13:58:16.266Z</time></trkpt><trkpt lat="43.8421962" lon="12.8928926"><ele>61.0</ele><time>2026-04-13T13:58:17.265Z</time></trkpt><trkpt lat="43.8422028" lon="12.8926079"><ele>61.0</ele><time>2026-04-13T13:58:18.266Z</time></trkpt><trkpt lat="43.8422088" lon="12.8922999"><ele>60.5</ele><time>2026-04-13T13:58:19.265Z</time></trkpt><trkpt lat="43.8422179" lon="12.8919432"><ele>60.0</ele><time>2026-04-13T13:58:20.265Z</time></trkpt><trkpt lat="43.8422317" lon="12.8915827"><ele>61.5</ele><time>2026-04-13T13:58:21.265Z</time></trkpt><trkpt lat="43.8422487" lon="12.8912427"><ele>63.0</ele><time>2026-04-13T13:58:22.266Z</time></trkpt><trkpt lat="43.8422641" lon="12.8909212"><ele>63.0</ele><time>2026-04-13T13:58:23.266Z</time></trkpt><trkpt lat="43.8422841" lon="12.8906212"><ele>63.0</ele><time>2026-04-13T13:58:24.265Z</time></trkpt><trkpt lat="43.8423128" lon="12.8903503"><ele>63.0</ele><time>2026-04-13T13:58:25.265Z</time></trkpt><trkpt lat="43.8423617" lon="12.8900955"><ele>62.33333333333333</ele><time>2026-04-13T13:58:26.265Z</time></trkpt><trkpt lat="43.8424327" lon="12.8898508"><ele>61.666666666666664</ele><time>2026-04-13T13:58:27.265Z</time></trkpt><trkpt lat="43.8425296" lon="12.889635"><ele>61.0</ele><time>2026-04-13T13:58:28.265Z</time></trkpt><trkpt lat="43.8426565" lon="12.8894412"><ele>62.666666666666664</ele><time>2026-04-13T13:58:29.265Z</time></trkpt><trkpt lat="43.8428044" lon="12.8892747"><ele>64.33333333333333</ele><time>2026-04-13T13:58:30.266Z</time></trkpt><trkpt lat="43.8429707" lon="12.8891177"><ele>66.0</ele><time>2026-04-13T13:58:31.265Z</time></trkpt><trkpt lat="43.8431585" lon="12.8889464"><ele>66.0</ele><time>2026-04-13T13:58:32.265Z</time></trkpt><trkpt lat="43.8433796" lon="12.8887601"><ele>66.0</ele><time>2026-04-13T13:58:33.266Z</time></trkpt><trkpt lat="43.8436245" lon="12.8885702"><ele>66.0</ele><time>2026-04-13T13:58:34.265Z</time></trkpt><trkpt lat="43.8438779" lon="12.8883736"><ele>66.0</ele><time>2026-04-13T13:58:35.264Z</time></trkpt><trkpt lat="43.8441347" lon="12.8881651"><ele>70.0</ele><time>2026-04-13T13:58:36.264Z</time></trkpt><trkpt lat="43.8443892" lon="12.8879442"><ele>74.0</ele><time>2026-04-13T13:58:37.265Z</time></trkpt><trkpt lat="43.8446441" lon="12.8877091"><ele>70.0</ele><time>2026-04-13T13:58:38.266Z</time></trkpt><trkpt lat="43.844892" lon="12.8874769"><ele>66.0</ele><time>2026-04-13T13:58:39.265Z</time></trkpt><trkpt lat="43.8451217" lon="12.8872547"><ele>70.5</ele><time>2026-04-13T13:58:40.266Z</time></trkpt><trkpt lat="43.8453392" lon="12.8870449"><ele>75.0</ele><time>2026-04-13T13:58:41.265Z</time></trkpt><trkpt lat="43.8455505" lon="12.8868415"><ele>72.0</ele><time>2026-04-13T13:58:42.265Z</time></trkpt><trkpt lat="43.845758" lon="12.8866433"><ele>69.0</ele><time>2026-04-13T13:58:43.266Z</time></trkpt><trkpt lat="43.8459531" lon="12.8864545"><ele>71.5</ele><time>2026-04-13T13:58:44.265Z</time></trkpt><trkpt lat="43.846141" lon="12.8862705"><ele>74.0</ele><time>2026-04-13T13:58:45.265Z</time></trkpt><trkpt lat="43.8463287" lon="12.8860735"><ele>72.0</ele><time>2026-04-13T13:58:46.265Z</time></trkpt><trkpt lat="43.8465144" lon="12.8858594"><ele>70.0</ele><time>2026-04-13T13:58:47.265Z</time></trkpt><trkpt lat="43.8466948" lon="12.8856252"><ele>72.5</ele><time>2026-04-13T13:58:48.265Z</time></trkpt><trkpt lat="43.84687" lon="12.885372"><ele>75.0</ele><time>2026-04-13T13:58:49.266Z</time></trkpt><trkpt lat="43.8470447" lon="12.8851084"><ele>73.0</ele><time>2026-04-13T13:58:50.265Z</time></trkpt><trkpt lat="43.8472224" lon="12.8848309"><ele>71.0</ele><time>2026-04-13T13:58:51.265Z</time></trkpt><trkpt lat="43.8474102" lon="12.8845382"><ele>71.5</ele><time>2026-04-13T13:58:52.265Z</time></trkpt><trkpt lat="43.8476124" lon="12.8842254"><ele>72.0</ele><time>2026-04-13T13:58:53.265Z</time></trkpt><trkpt lat="43.8478235" lon="12.8839004"><ele>72.0</ele><time>2026-04-13T13:58:54.265Z</time></trkpt><trkpt lat="43.8480483" lon="12.88356"><ele>72.0</ele><time>2026-04-13T13:58:55.265Z</time></trkpt><trkpt lat="43.8482872" lon="12.8832076"><ele>73.0</ele><time>2026-04-13T13:58:56.265Z</time></trkpt><trkpt lat="43.8485134" lon="12.8828758"><ele>74.0</ele><time>2026-04-13T13:58:57.266Z</time></trkpt><trkpt lat="43.8487251" lon="12.8825652"><ele>74.0</ele><time>2026-04-13T13:58:58.265Z</time></trkpt><trkpt lat="43.8489204" lon="12.8822794"><ele>74.0</ele><time>2026-04-13T13:58:59.266Z</time></trkpt><trkpt lat="43.8490995" lon="12.8820143"><ele>74.0</ele><time>2026-04-13T13:59:00.266Z</time></trkpt><trkpt lat="43.8492686" lon="12.8817668"><ele>74.0</ele><time>2026-04-13T13:59:01.265Z</time></trkpt><trkpt lat="43.8494238" lon="12.8815386"><ele>74.0</ele><time>2026-04-13T13:59:02.265Z</time></trkpt><trkpt lat="43.8495642" lon="12.8813414"><ele>74.0</ele><time>2026-04-13T13:59:03.264Z</time></trkpt><trkpt lat="43.8496956" lon="12.8811897"><ele>74.0</ele><time>2026-04-13T13:59:04.265Z</time></trkpt><trkpt lat="43.8498287" lon="12.8810904"><ele>74.0</ele><time>2026-04-13T13:59:05.266Z</time></trkpt><trkpt lat="43.8499794" lon="12.881046"><ele>74.0</ele><time>2026-04-13T13:59:06.265Z</time></trkpt><trkpt lat="43.8501432" lon="12.8810573"><ele>74.0</ele><time>2026-04-13T13:59:07.265Z</time></trkpt><trkpt lat="43.8503132" lon="12.8811278"><ele>78.5</ele><time>2026-04-13T13:59:08.265Z</time></trkpt><trkpt lat="43.8505081" lon="12.8812539"><ele>83.0</ele><time>2026-04-13T13:59:09.265Z</time></trkpt><trkpt lat="43.8507156" lon="12.8814209"><ele>83.0</ele><time>2026-04-13T13:59:10.265Z</time></trkpt><trkpt lat="43.8509034" lon="12.8815577"><ele>83.0</ele><time>2026-04-13T13:59:11.265Z</time></trkpt><trkpt lat="43.8510749" lon="12.8816484"><ele>83.0</ele><time>2026-04-13T13:59:12.265Z</time></trkpt><trkpt lat="43.851265" lon="12.8816999"><ele>87.0</ele><time>2026-04-13T13:59:13.264Z</time></trkpt><trkpt lat="43.8514873" lon="12.881712"><ele>91.0</ele><time>2026-04-13T13:59:14.265Z</time></trkpt><trkpt lat="43.85173" lon="12.8816883"><ele>92.5</ele><time>2026-04-13T13:59:15.266Z</time></trkpt><trkpt lat="43.8519938" lon="12.8816503"><ele>94.0</ele><time>2026-04-13T13:59:16.265Z</time></trkpt><trkpt lat="43.8522227" lon="12.8816311"><ele>94.0</ele><time>2026-04-13T13:59:17.266Z</time></trkpt><trkpt lat="43.8524222" lon="12.8816205"><ele>94.0</ele><time>2026-04-13T13:59:18.265Z</time></trkpt><trkpt lat="43.8525918" lon="12.8816245"><ele>94.0</ele><time>2026-04-13T13:59:19.266Z</time></trkpt><trkpt lat="43.8527294" lon="12.8816335"><ele>94.0</ele><time>2026-04-13T13:59:20.266Z</time></trkpt><trkpt lat="43.852839" lon="12.8816296"><ele>94.0</ele><time>2026-04-13T13:59:21.264Z</time></trkpt><trkpt lat="43.8529255" lon="12.8815903"><ele>94.0</ele><time>2026-04-13T13:59:22.265Z</time></trkpt><trkpt lat="43.8529839" lon="12.8815024"><ele>94.0</ele><time>2026-04-13T13:59:23.266Z</time></trkpt><trkpt lat="43.8530065" lon="12.8813903"><ele>94.0</ele><time>2026-04-13T13:59:24.265Z</time></trkpt><trkpt lat="43.8529757" lon="12.8812886"><ele>94.0</ele><time>2026-04-13T13:59:25.266Z</time></trkpt><trkpt lat="43.852902" lon="12.8812259"><ele>94.0</ele><time>2026-04-13T13:59:26.265Z</time></trkpt><trkpt lat="43.852774" lon="12.881182"><ele>94.0</ele><time>2026-04-13T13:59:27.265Z</time></trkpt><trkpt lat="43.8525925" lon="12.8811351"><ele>94.0</ele><time>2026-04-13T13:59:28.265Z</time></trkpt><trkpt lat="43.8523825" lon="12.8810897"><ele>94.0</ele><time>2026-04-13T13:59:29.265Z</time></trkpt><trkpt lat="43.8521811" lon="12.8810642"><ele>94.0</ele><time>2026-04-13T13:59:30.264Z</time></trkpt><trkpt lat="43.8520021" lon="12.8810546"><ele>94.0</ele><time>2026-04-13T13:59:31.266Z</time></trkpt><trkpt lat="43.8518614" lon="12.8810432"><ele>93.25</ele><time>2026-04-13T13:59:32.265Z</time></trkpt><trkpt lat="43.8517447" lon="12.880992"><ele>92.5</ele><time>2026-04-13T13:59:33.266Z</time></trkpt><trkpt lat="43.8516476" lon="12.8808881"><ele>91.75</ele><time>2026-04-13T13:59:34.264Z</time></trkpt><trkpt lat="43.8515875" lon="12.8807466"><ele>91.0</ele><time>2026-04-13T13:59:35.265Z</time></trkpt><trkpt lat="43.8515755" lon="12.8806021"><ele>93.25</ele><time>2026-04-13T13:59:36.264Z</time></trkpt><trkpt lat="43.8516036" lon="12.8804537"><ele>95.5</ele><time>2026-04-13T13:59:37.265Z</time></trkpt><trkpt lat="43.8516727" lon="12.880334"><ele>97.75</ele><time>2026-04-13T13:59:38.264Z</time></trkpt><trkpt lat="43.851778" lon="12.8802467"><ele>100.0</ele><time>2026-04-13T13:59:39.266Z</time></trkpt><trkpt lat="43.8519127" lon="12.8801818"><ele>101.5</ele><time>2026-04-13T13:59:40.265Z</time></trkpt><trkpt lat="43.8521424" lon="12.8801255"><ele>103.0</ele><time>2026-04-13T13:59:41.265Z</time></trkpt><trkpt lat="43.85238" lon="12.8800547"><ele>109.5</ele><time>2026-04-13T13:59:42.265Z</time></trkpt><trkpt lat="43.8526409" lon="12.8799824"><ele>116.0</ele><time>2026-04-13T13:59:43.265Z</time></trkpt><trkpt lat="43.8528775" lon="12.8799068"><ele>116.0</ele><time>2026-04-13T13:59:44.265Z</time></trkpt><trkpt lat="43.8530986" lon="12.879818"><ele>116.0</ele><time>2026-04-13T13:59:45.265Z</time></trkpt><trkpt lat="43.8533114" lon="12.8796889"><ele>118.0</ele><time>2026-04-13T13:59:46.265Z</time></trkpt><trkpt lat="43.8535214" lon="12.8795283"><ele>120.0</ele><time>2026-04-13T13:59:47.265Z</time></trkpt><trkpt lat="43.8537358" lon="12.8792671"><ele>122.0</ele><time>2026-04-13T13:59:48.265Z</time></trkpt><trkpt lat="43.8539669" lon="12.8790118"><ele>124.0</ele><time>2026-04-13T13:59:49.266Z</time></trkpt><trkpt lat="43.8542141" lon="12.8787291"><ele>126.5</ele><time>2026-04-13T13:59:50.265Z</time></trkpt><trkpt lat="43.8544686" lon="12.878434"><ele>129.0</ele><time>2026-04-13T13:59:51.265Z</time></trkpt><trkpt lat="43.8546996" lon="12.8781682"><ele>129.0</ele><time>2026-04-13T13:59:52.265Z</time></trkpt><trkpt lat="43.8549164" lon="12.8779141"><ele>129.0</ele><time>2026-04-13T13:59:53.266Z</time></trkpt><trkpt lat="43.8551128" lon="12.8776812"><ele>132.0</ele><time>2026-04-13T13:59:54.265Z</time></trkpt><trkpt lat="43.8553059" lon="12.8774559"><ele>135.0</ele><time>2026-04-13T13:59:55.265Z</time></trkpt><trkpt lat="43.8555108" lon="12.8772229"><ele>135.0</ele><time>2026-04-13T13:59:56.266Z</time></trkpt><trkpt lat="43.8557163" lon="12.8770104"><ele>135.0</ele><time>2026-04-13T13:59:57.266Z</time></trkpt><trkpt lat="43.8559182" lon="12.8768358"><ele>136.0</ele><time>2026-04-13T13:59:58.266Z</time></trkpt><trkpt lat="43.8561123" lon="12.8766934"><ele>137.0</ele><time>2026-04-13T13:59:59.266Z</time></trkpt><trkpt lat="43.8562758" lon="12.8765739"><ele>138.0</ele><time>2026-04-13T14:00:00.266Z</time></trkpt><trkpt lat="43.8564183" lon="12.8764693"><ele>138.0</ele><time>2026-04-13T14:00:01.265Z</time></trkpt><trkpt lat="43.8565486" lon="12.8763686"><ele>138.0</ele><time>2026-04-13T14:00:02.266Z</time></trkpt><trkpt lat="43.8566687" lon="12.876275"><ele>138.0</ele><time>2026-04-13T14:00:03.266Z</time></trkpt><trkpt lat="43.8567779" lon="12.8761919"><ele>138.0</ele><time>2026-04-13T14:00:04.266Z</time></trkpt><trkpt lat="43.8568821" lon="12.8761136"><ele>137.75</ele><time>2026-04-13T14:00:05.265Z</time></trkpt><trkpt lat="43.8569956" lon="12.8760306"><ele>137.5</ele><time>2026-04-13T14:00:06.265Z</time></trkpt><trkpt lat="43.8571178" lon="12.8759409"><ele>137.25</ele><time>2026-04-13T14:00:07.266Z</time></trkpt><trkpt lat="43.8572453" lon="12.8758501"><ele>137.0</ele><time>2026-04-13T14:00:08.265Z</time></trkpt><trkpt lat="43.8573716" lon="12.8757682"><ele>136.5</ele><time>2026-04-13T14:00:09.265Z</time></trkpt><trkpt lat="43.8574902" lon="12.8756808"><ele>136.0</ele><time>2026-04-13T14:00:10.265Z</time></trkpt><trkpt lat="43.8575959" lon="12.8755652"><ele>135.5</ele><time>2026-04-13T14:00:11.265Z</time></trkpt><trkpt lat="43.8577022" lon="12.875406"><ele>135.0</ele><time>2026-04-13T14:00:12.265Z</time></trkpt><trkpt lat="43.8578216" lon="12.8751977"><ele>129.66666666666666</ele><time>2026-04-13T14:00:13.266Z</time></trkpt><trkpt lat="43.8579538" lon="12.8749493"><ele>124.33333333333333</ele><time>2026-04-13T14:00:14.265Z</time></trkpt><trkpt lat="43.8580804" lon="12.8747156"><ele>119.0</ele><time>2026-04-13T14:00:15.265Z</time></trkpt><trkpt lat="43.858188" lon="12.8745142"><ele>119.0</ele><time>2026-04-13T14:00:16.265Z</time></trkpt><trkpt lat="43.858277" lon="12.8743394"><ele>119.0</ele><time>2026-04-13T14:00:17.266Z</time></trkpt><trkpt lat="43.858341" lon="12.8741836"><ele>119.0</ele><time>2026-04-13T14:00:18.265Z</time></trkpt><trkpt lat="43.8583827" lon="12.8740159"><ele>119.0</ele><time>2026-04-13T14:00:19.265Z</time></trkpt><trkpt lat="43.8583966" lon="12.8738292"><ele>120.66666666666666</ele><time>2026-04-13T14:00:20.266Z</time></trkpt><trkpt lat="43.8583839" lon="12.8736143"><ele>122.33333333333334</ele><time>2026-04-13T14:00:21.266Z</time></trkpt><trkpt lat="43.858346" lon="12.8733527"><ele>124.0</ele><time>2026-04-13T14:00:22.266Z</time></trkpt><trkpt lat="43.8582977" lon="12.873036"><ele>124.5</ele><time>2026-04-13T14:00:23.266Z</time></trkpt><trkpt lat="43.8582386" lon="12.8726793"><ele>125.0</ele><time>2026-04-13T14:00:24.266Z</time></trkpt><trkpt lat="43.8581864" lon="12.8723664"><ele>123.0</ele><time>2026-04-13T14:00:25.265Z</time></trkpt><trkpt lat="43.8581416" lon="12.8720858"><ele>121.0</ele><time>2026-04-13T14:00:26.265Z</time></trkpt><trkpt lat="43.8580993" lon="12.8718161"><ele>119.0</ele><time>2026-04-13T14:00:27.265Z</time></trkpt><trkpt lat="43.8580572" lon="12.8715513"><ele>116.66666666666666</ele><time>2026-04-13T14:00:28.266Z</time></trkpt><trkpt lat="43.8580132" lon="12.8712824"><ele>114.33333333333334</ele><time>2026-04-13T14:00:29.266Z</time></trkpt><trkpt lat="43.8579699" lon="12.8710239"><ele>112.0</ele><time>2026-04-13T14:00:30.265Z</time></trkpt><trkpt lat="43.8579288" lon="12.8707586"><ele>109.66666666666667</ele><time>2026-04-13T14:00:31.265Z</time></trkpt><trkpt lat="43.8579008" lon="12.8704814"><ele>107.33333333333334</ele><time>2026-04-13T14:00:32.266Z</time></trkpt><trkpt lat="43.8578949" lon="12.8701974"><ele>105.0</ele><time>2026-04-13T14:00:33.265Z</time></trkpt><trkpt lat="43.857909" lon="12.8699068"><ele>103.66666666666666</ele><time>2026-04-13T14:00:34.265Z</time></trkpt><trkpt lat="43.8579392" lon="12.8696073"><ele>102.33333333333333</ele><time>2026-04-13T14:00:35.265Z</time></trkpt><trkpt lat="43.8579811" lon="12.8692969"><ele>101.0</ele><time>2026-04-13T14:00:36.266Z</time></trkpt><trkpt lat="43.8580278" lon="12.8689912"><ele>99.66666666666666</ele><time>2026-04-13T14:00:37.266Z</time></trkpt><trkpt lat="43.8580719" lon="12.8686989"><ele>98.33333333333334</ele><time>2026-04-13T14:00:38.265Z</time></trkpt><trkpt lat="43.8581157" lon="12.8684219"><ele>97.0</ele><time>2026-04-13T14:00:39.265Z</time></trkpt><trkpt lat="43.8581598" lon="12.86816"><ele>96.33333333333334</ele><time>2026-04-13T14:00:40.265Z</time></trkpt><trkpt lat="43.8581997" lon="12.8679213"><ele>95.66666666666667</ele><time>2026-04-13T14:00:41.266Z</time></trkpt><trkpt lat="43.8582339" lon="12.8677008"><ele>95.0</ele><time>2026-04-13T14:00:42.266Z</time></trkpt><trkpt lat="43.8582663" lon="12.8675024"><ele>95.0</ele><time>2026-04-13T14:00:43.265Z</time></trkpt><trkpt lat="43.8583083" lon="12.8673336"><ele>95.0</ele><time>2026-04-13T14:00:44.266Z</time></trkpt><trkpt lat="43.8583697" lon="12.8671783"><ele>95.0</ele><time>2026-04-13T14:00:45.266Z</time></trkpt><trkpt lat="43.8584484" lon="12.8670571"><ele>95.0</ele><time>2026-04-13T14:00:46.264Z</time></trkpt><trkpt lat="43.8585364" lon="12.866967"><ele>94.0</ele><time>2026-04-13T14:00:47.265Z</time></trkpt><trkpt lat="43.8586362" lon="12.8669047"><ele>93.0</ele><time>2026-04-13T14:00:48.265Z</time></trkpt><trkpt lat="43.8587442" lon="12.8668719"><ele>92.0</ele><time>2026-04-13T14:00:49.265Z</time></trkpt><trkpt lat="43.8588583" lon="12.8668724"><ele>91.0</ele><time>2026-04-13T14:00:50.264Z</time></trkpt><trkpt lat="43.858974" lon="12.8669107"><ele>91.0</ele><time>2026-04-13T14:00:51.265Z</time></trkpt><trkpt lat="43.8590809" lon="12.8669737"><ele>91.0</ele><time>2026-04-13T14:00:52.265Z</time></trkpt><trkpt lat="43.8591659" lon="12.8670567"><ele>91.0</ele><time>2026-04-13T14:00:53.265Z</time></trkpt><trkpt lat="43.8592363" lon="12.8671586"><ele>91.0</ele><time>2026-04-13T14:00:54.265Z</time></trkpt><trkpt lat="43.859301" lon="12.8672952"><ele>91.0</ele><time>2026-04-13T14:00:55.265Z</time></trkpt><trkpt lat="43.8593778" lon="12.8674958"><ele>90.5</ele><time>2026-04-13T14:00:56.264Z</time></trkpt><trkpt lat="43.8594804" lon="12.8677553"><ele>90.0</ele><time>2026-04-13T14:00:57.265Z</time></trkpt><trkpt lat="43.859598" lon="12.8680649"><ele>90.0</ele><time>2026-04-13T14:00:58.265Z</time></trkpt><trkpt lat="43.8597296" lon="12.8684181"><ele>90.0</ele><time>2026-04-13T14:00:59.265Z</time></trkpt><trkpt lat="43.8598736" lon="12.8688079"><ele>87.5</ele><time>2026-04-13T14:01:00.266Z</time></trkpt><trkpt lat="43.8600259" lon="12.8692175"><ele>85.0</ele><time>2026-04-13T14:01:01.265Z</time></trkpt><trkpt lat="43.8601626" lon="12.8695776"><ele>85.0</ele><time>2026-04-13T14:01:02.265Z</time></trkpt><trkpt lat="43.8602852" lon="12.8698926"><ele>85.0</ele><time>2026-04-13T14:01:03.266Z</time></trkpt><trkpt lat="43.8603894" lon="12.8701752"><ele>82.0</ele><time>2026-04-13T14:01:04.265Z</time></trkpt><trkpt lat="43.8604937" lon="12.8704382"><ele>79.0</ele><time>2026-04-13T14:01:05.266Z</time></trkpt><trkpt lat="43.8606034" lon="12.8706816"><ele>76.0</ele><time>2026-04-13T14:01:06.265Z</time></trkpt><trkpt lat="43.8607384" lon="12.8709126"><ele>76.5</ele><time>2026-04-13T14:01:07.264Z</time></trkpt><trkpt lat="43.8609162" lon="12.8711533"><ele>77.0</ele><time>2026-04-13T14:01:08.265Z</time></trkpt><trkpt lat="43.8611245" lon="12.8714267"><ele>77.0</ele><time>2026-04-13T14:01:09.265Z</time></trkpt><trkpt lat="43.8613539" lon="12.8717321"><ele>77.0</ele><time>2026-04-13T14:01:10.265Z</time></trkpt><trkpt lat="43.8615959" lon="12.8720499"><ele>76.5</ele><time>2026-04-13T14:01:11.265Z</time></trkpt><trkpt lat="43.8618451" lon="12.8723828"><ele>76.0</ele><time>2026-04-13T14:01:12.266Z</time></trkpt><trkpt lat="43.8620756" lon="12.8726922"><ele>72.5</ele><time>2026-04-13T14:01:13.266Z</time></trkpt><trkpt lat="43.862292" lon="12.8729824"><ele>69.0</ele><time>2026-04-13T14:01:14.264Z</time></trkpt><trkpt lat="43.8624995" lon="12.8732543"><ele>72.0</ele><time>2026-04-13T14:01:15.265Z</time></trkpt><trkpt lat="43.8627042" lon="12.8735244"><ele>75.0</ele><time>2026-04-13T14:01:16.266Z</time></trkpt><trkpt lat="43.8629063" lon="12.8737928"><ele>75.0</ele><time>2026-04-13T14:01:17.264Z</time></trkpt><trkpt lat="43.8631053" lon="12.8740569"><ele>75.0</ele><time>2026-04-13T14:01:18.265Z</time></trkpt><trkpt lat="43.8633048" lon="12.874322"><ele>75.0</ele><time>2026-04-13T14:01:19.265Z</time></trkpt><trkpt lat="43.8635082" lon="12.8745848"><ele>75.0</ele><time>2026-04-13T14:01:20.266Z</time></trkpt><trkpt lat="43.8637216" lon="12.8748457"><ele>72.5</ele><time>2026-04-13T14:01:21.265Z</time></trkpt><trkpt lat="43.8639604" lon="12.8751156"><ele>70.0</ele><time>2026-04-13T14:01:22.265Z</time></trkpt><trkpt lat="43.8642057" lon="12.875383"><ele>72.0</ele><time>2026-04-13T14:01:23.265Z</time></trkpt><trkpt lat="43.8644391" lon="12.875628"><ele>74.0</ele><time>2026-04-13T14:01:24.266Z</time></trkpt><trkpt lat="43.8646577" lon="12.8758555"><ele>69.0</ele><time>2026-04-13T14:01:25.265Z</time></trkpt><trkpt lat="43.8648561" lon="12.8760628"><ele>64.0</ele><time>2026-04-13T14:01:26.266Z</time></trkpt><trkpt lat="43.8650417" lon="12.8762621"><ele>66.66666666666666</ele><time>2026-04-13T14:01:27.265Z</time></trkpt><trkpt lat="43.8652105" lon="12.8764604"><ele>69.33333333333333</ele><time>2026-04-13T14:01:28.265Z</time></trkpt><trkpt lat="43.865364" lon="12.8766808"><ele>72.0</ele><time>2026-04-13T14:01:29.265Z</time></trkpt><trkpt lat="43.8655007" lon="12.876939"><ele>72.0</ele><time>2026-04-13T14:01:30.264Z</time></trkpt><trkpt lat="43.865627" lon="12.8772418"><ele>72.0</ele><time>2026-04-13T14:01:31.265Z</time></trkpt><trkpt lat="43.8657537" lon="12.8775916"><ele>67.5</ele><time>2026-04-13T14:01:32.265Z</time></trkpt><trkpt lat="43.8658849" lon="12.8779652"><ele>63.0</ele><time>2026-04-13T14:01:33.265Z</time></trkpt><trkpt lat="43.8660205" lon="12.8783488"><ele>69.0</ele><time>2026-04-13T14:01:34.265Z</time></trkpt><trkpt lat="43.8661478" lon="12.8787031"><ele>75.0</ele><time>2026-04-13T14:01:35.265Z</time></trkpt><trkpt lat="43.8662633" lon="12.8790248"><ele>70.5</ele><time>2026-04-13T14:01:36.265Z</time></trkpt><trkpt lat="43.8663665" lon="12.8793231"><ele>66.0</ele><time>2026-04-13T14:01:37.264Z</time></trkpt><trkpt lat="43.866472" lon="12.8796187"><ele>66.0</ele><time>2026-04-13T14:01:38.265Z</time></trkpt><trkpt lat="43.8665721" lon="12.8799034"><ele>66.0</ele><time>2026-04-13T14:01:39.266Z</time></trkpt><trkpt lat="43.8666683" lon="12.8801711"><ele>66.0</ele><time>2026-04-13T14:01:40.266Z</time></trkpt><trkpt lat="43.8667656" lon="12.8804351"><ele>68.33333333333333</ele><time>2026-04-13T14:01:41.266Z</time></trkpt><trkpt lat="43.8668677" lon="12.8806753"><ele>70.66666666666666</ele><time>2026-04-13T14:01:42.266Z</time></trkpt><trkpt lat="43.866994" lon="12.8808974"><ele>73.0</ele><time>2026-04-13T14:01:43.266Z</time></trkpt><trkpt lat="43.8671537" lon="12.8811122"><ele>66.0</ele><time>2026-04-13T14:01:44.265Z</time></trkpt><trkpt lat="43.8673345" lon="12.8813258"><ele>59.0</ele><time>2026-04-13T14:01:45.266Z</time></trkpt><trkpt lat="43.8675418" lon="12.8815514"><ele>55.5</ele><time>2026-04-13T14:01:46.266Z</time></trkpt><trkpt lat="43.8677601" lon="12.8817811"><ele>52.0</ele><time>2026-04-13T14:01:47.265Z</time></trkpt><trkpt lat="43.867999" lon="12.8820117"><ele>52.0</ele><time>2026-04-13T14:01:48.265Z</time></trkpt><trkpt lat="43.8682527" lon="12.8822465"><ele>52.0</ele><time>2026-04-13T14:01:49.265Z</time></trkpt><trkpt lat="43.8684917" lon="12.882463"><ele>52.0</ele><time>2026-04-13T14:01:50.265Z</time></trkpt><trkpt lat="43.8687304" lon="12.882681"><ele>52.0</ele><time>2026-04-13T14:01:51.266Z</time></trkpt><trkpt lat="43.8689642" lon="12.8829145"><ele>52.0</ele><time>2026-04-13T14:01:52.266Z</time></trkpt><trkpt lat="43.8691974" lon="12.8831611"><ele>52.0</ele><time>2026-04-13T14:01:53.265Z</time></trkpt><trkpt lat="43.8694334" lon="12.8834141"><ele>49.5</ele><time>2026-04-13T14:01:54.264Z</time></trkpt><trkpt lat="43.8696878" lon="12.8836804"><ele>47.0</ele><time>2026-04-13T14:01:55.265Z</time></trkpt><trkpt lat="43.86993" lon="12.8839332"><ele>49.0</ele><time>2026-04-13T14:01:56.264Z</time></trkpt><trkpt lat="43.8701555" lon="12.884169"><ele>51.0</ele><time>2026-04-13T14:01:57.265Z</time></trkpt><trkpt lat="43.8703792" lon="12.8844064"><ele>47.0</ele><time>2026-04-13T14:01:58.266Z</time></trkpt><trkpt lat="43.8705957" lon="12.8846429"><ele>43.0</ele><time>2026-04-13T14:01:59.266Z</time></trkpt><trkpt lat="43.8708056" lon="12.8848759"><ele>43.0</ele><time>2026-04-13T14:02:00.266Z</time></trkpt><trkpt lat="43.8710015" lon="12.8851223"><ele>43.0</ele><time>2026-04-13T14:02:01.265Z</time></trkpt><trkpt lat="43.8712042" lon="12.8854002"><ele>43.0</ele><time>2026-04-13T14:02:02.265Z</time></trkpt><trkpt lat="43.871392" lon="12.8856837"><ele>43.0</ele><time>2026-04-13T14:02:03.265Z</time></trkpt><trkpt lat="43.8715591" lon="12.8859552"><ele>42.0</ele><time>2026-04-13T14:02:04.264Z</time></trkpt><trkpt lat="43.8717123" lon="12.8862102"><ele>41.0</ele><time>2026-04-13T14:02:05.266Z</time></trkpt><trkpt lat="43.8718497" lon="12.8864582"><ele>43.0</ele><time>2026-04-13T14:02:06.265Z</time></trkpt><trkpt lat="43.8719645" lon="12.8867028"><ele>45.0</ele><time>2026-04-13T14:02:07.265Z</time></trkpt><trkpt lat="43.872063" lon="12.8869628"><ele>47.0</ele><time>2026-04-13T14:02:08.265Z</time></trkpt><trkpt lat="43.8721444" lon="12.8872203"><ele>47.0</ele><time>2026-04-13T14:02:09.264Z</time></trkpt><trkpt lat="43.8722085" lon="12.8874556"><ele>47.0</ele><time>2026-04-13T14:02:10.266Z</time></trkpt><trkpt lat="43.872266" lon="12.8876672"><ele>47.0</ele><time>2026-04-13T14:02:11.264Z</time></trkpt><trkpt lat="43.8723151" lon="12.8878697"><ele>45.75</ele><time>2026-04-13T14:02:12.265Z</time></trkpt><trkpt lat="43.8723607" lon="12.8880575"><ele>44.5</ele><time>2026-04-13T14:02:13.266Z</time></trkpt><trkpt lat="43.8724104" lon="12.8882514"><ele>43.25</ele><time>2026-04-13T14:02:14.265Z</time></trkpt><trkpt lat="43.8724639" lon="12.8884471"><ele>42.0</ele><time>2026-04-13T14:02:15.264Z</time></trkpt><trkpt lat="43.8725215" lon="12.8886335"><ele>41.0</ele><time>2026-04-13T14:02:16.265Z</time></trkpt><trkpt lat="43.8725886" lon="12.8888245"><ele>40.0</ele><time>2026-04-13T14:02:17.266Z</time></trkpt><trkpt lat="43.8726629" lon="12.8890241"><ele>39.0</ele><time>2026-04-13T14:02:18.265Z</time></trkpt><trkpt lat="43.8727316" lon="12.8892151"><ele>39.75</ele><time>2026-04-13T14:02:19.265Z</time></trkpt><trkpt lat="43.8727947" lon="12.8894052"><ele>40.5</ele><time>2026-04-13T14:02:20.265Z</time></trkpt><trkpt lat="43.8728598" lon="12.8895875"><ele>41.25</ele><time>2026-04-13T14:02:21.265Z</time></trkpt><trkpt lat="43.8729247" lon="12.8897652"><ele>42.0</ele><time>2026-04-13T14:02:22.265Z</time></trkpt><trkpt lat="43.8729875" lon="12.88994"><ele>41.0</ele><time>2026-04-13T14:02:23.266Z</time></trkpt><trkpt lat="43.8730572" lon="12.8901186"><ele>40.0</ele><time>2026-04-13T14:02:24.265Z</time></trkpt><trkpt lat="43.8731278" lon="12.8902966"><ele>39.0</ele><time>2026-04-13T14:02:25.265Z</time></trkpt><trkpt lat="43.8731902" lon="12.8904701"><ele>38.0</ele><time>2026-04-13T14:02:26.265Z</time></trkpt><trkpt lat="43.8732582" lon="12.8906463"><ele>38.0</ele><time>2026-04-13T14:02:27.265Z</time></trkpt><trkpt lat="43.8733389" lon="12.89083"><ele>38.0</ele><time>2026-04-13T14:02:28.264Z</time></trkpt><trkpt lat="43.873423" lon="12.8909932"><ele>38.0</ele><time>2026-04-13T14:02:29.265Z</time></trkpt><trkpt lat="43.8735242" lon="12.8911526"><ele>37.666666666666664</ele><time>2026-04-13T14:02:30.266Z</time></trkpt><trkpt lat="43.8736457" lon="12.8913047"><ele>37.333333333333336</ele><time>2026-04-13T14:02:31.265Z</time></trkpt><trkpt lat="43.8737675" lon="12.8914747"><ele>37.0</ele><time>2026-04-13T14:02:32.265Z</time></trkpt><trkpt lat="43.8739654" lon="12.891667"><ele>34.5</ele><time>2026-04-13T14:02:33.266Z</time></trkpt><trkpt lat="43.8741872" lon="12.8918946"><ele>32.0</ele><time>2026-04-13T14:02:34.265Z</time></trkpt><trkpt lat="43.8743706" lon="12.8920877"><ele>32.0</ele><time>2026-04-13T14:02:35.266Z</time></trkpt><trkpt lat="43.8745509" lon="12.8922698"><ele>32.0</ele><time>2026-04-13T14:02:36.266Z</time></trkpt><trkpt lat="43.874732" lon="12.8924548"><ele>32.0</ele><time>2026-04-13T14:02:37.265Z</time></trkpt><trkpt lat="43.8749233" lon="12.8926484"><ele>32.5</ele><time>2026-04-13T14:02:38.265Z</time></trkpt><trkpt lat="43.8751361" lon="12.8928662"><ele>33.0</ele><time>2026-04-13T14:02:39.265Z</time></trkpt><trkpt lat="43.8753559" lon="12.8930912"><ele>33.0</ele><time>2026-04-13T14:02:40.266Z</time></trkpt><trkpt lat="43.8755634" lon="12.8933046"><ele>33.0</ele><time>2026-04-13T14:02:41.265Z</time></trkpt><trkpt lat="43.8757581" lon="12.8935039"><ele>34.5</ele><time>2026-04-13T14:02:42.266Z</time></trkpt><trkpt lat="43.8759437" lon="12.8936951"><ele>36.0</ele><time>2026-04-13T14:02:43.265Z</time></trkpt><trkpt lat="43.8761319" lon="12.8938894"><ele>36.0</ele><time>2026-04-13T14:02:44.266Z</time></trkpt><trkpt lat="43.8763224" lon="12.8940872"><ele>36.0</ele><time>2026-04-13T14:02:45.266Z</time></trkpt><trkpt lat="43.8765102" lon="12.8942933"><ele>36.0</ele><time>2026-04-13T14:02:46.266Z</time></trkpt><trkpt lat="43.8766978" lon="12.8945107"><ele>36.0</ele><time>2026-04-13T14:02:47.266Z</time></trkpt><trkpt lat="43.8768885" lon="12.8947366"><ele>36.0</ele><time>2026-04-13T14:02:48.266Z</time></trkpt><trkpt lat="43.8770798" lon="12.8949673"><ele>36.0</ele><time>2026-04-13T14:02:49.264Z</time></trkpt><trkpt lat="43.877274" lon="12.8951982"><ele>35.0</ele><time>2026-04-13T14:02:50.264Z</time></trkpt><trkpt lat="43.877467" lon="12.8954307"><ele>34.0</ele><time>2026-04-13T14:02:51.264Z</time></trkpt><trkpt lat="43.8776543" lon="12.8956599"><ele>34.0</ele><time>2026-04-13T14:02:52.265Z</time></trkpt><trkpt lat="43.8778317" lon="12.8958711"><ele>34.0</ele><time>2026-04-13T14:02:53.265Z</time></trkpt><trkpt lat="43.8779976" lon="12.8960731"><ele>32.333333333333336</ele><time>2026-04-13T14:02:54.266Z</time></trkpt><trkpt lat="43.8781647" lon="12.8962751"><ele>30.666666666666664</ele><time>2026-04-13T14:02:55.264Z</time></trkpt><trkpt lat="43.8783359" lon="12.8964781"><ele>29.0</ele><time>2026-04-13T14:02:56.264Z</time></trkpt><trkpt lat="43.8785087" lon="12.8966847"><ele>27.5</ele><time>2026-04-13T14:02:57.265Z</time></trkpt><trkpt lat="43.8786833" lon="12.8968943"><ele>26.0</ele><time>2026-04-13T14:02:58.266Z</time></trkpt><trkpt lat="43.8788613" lon="12.8971086"><ele>26.0</ele><time>2026-04-13T14:02:59.264Z</time></trkpt><trkpt lat="43.8790418" lon="12.897327"><ele>26.0</ele><time>2026-04-13T14:03:00.266Z</time></trkpt><trkpt lat="43.8792256" lon="12.8975463"><ele>29.5</ele><time>2026-04-13T14:03:01.265Z</time></trkpt><trkpt lat="43.8794123" lon="12.8977689"><ele>33.0</ele><time>2026-04-13T14:03:02.265Z</time></trkpt><trkpt lat="43.8795959" lon="12.8979928"><ele>33.0</ele><time>2026-04-13T14:03:03.265Z</time></trkpt><trkpt lat="43.8797805" lon="12.8982199"><ele>33.0</ele><time>2026-04-13T14:03:04.266Z</time></trkpt><trkpt lat="43.8799657" lon="12.8984466"><ele>33.0</ele><time>2026-04-13T14:03:05.266Z</time></trkpt><trkpt lat="43.8801508" lon="12.8986704"><ele>33.0</ele><time>2026-04-13T14:03:06.265Z</time></trkpt><trkpt lat="43.8803296" lon="12.8988843"><ele>33.0</ele><time>2026-04-13T14:03:07.265Z</time></trkpt><trkpt lat="43.8804954" lon="12.8990889"><ele>33.0</ele><time>2026-04-13T14:03:08.264Z</time></trkpt><trkpt lat="43.8806503" lon="12.8992823"><ele>33.0</ele><time>2026-04-13T14:03:09.264Z</time></trkpt><trkpt lat="43.8807948" lon="12.8994671"><ele>30.666666666666664</ele><time>2026-04-13T14:03:10.266Z</time></trkpt><trkpt lat="43.880931" lon="12.8996407"><ele>28.333333333333332</ele><time>2026-04-13T14:03:11.264Z</time></trkpt><trkpt lat="43.8810632" lon="12.8997997"><ele>26.0</ele><time>2026-04-13T14:03:12.266Z</time></trkpt><trkpt lat="43.8811892" lon="12.8999442"><ele>26.0</ele><time>2026-04-13T14:03:13.265Z</time></trkpt><trkpt lat="43.8813085" lon="12.9000751"><ele>26.0</ele><time>2026-04-13T14:03:14.264Z</time></trkpt><trkpt lat="43.88142" lon="12.9002029"><ele>26.0</ele><time>2026-04-13T14:03:15.266Z</time></trkpt><trkpt lat="43.8815286" lon="12.9003214"><ele>26.0</ele><time>2026-04-13T14:03:16.265Z</time></trkpt><trkpt lat="43.8816353" lon="12.9004354"><ele>25.75</ele><time>2026-04-13T14:03:17.265Z</time></trkpt><trkpt lat="43.8817383" lon="12.9005451"><ele>25.5</ele><time>2026-04-13T14:03:18.266Z</time></trkpt><trkpt lat="43.8818328" lon="12.9006448"><ele>25.25</ele><time>2026-04-13T14:03:19.265Z</time></trkpt><trkpt lat="43.8819273" lon="12.9007391"><ele>25.0</ele><time>2026-04-13T14:03:20.265Z</time></trkpt><trkpt lat="43.8820226" lon="12.9008345"><ele>23.333333333333336</ele><time>2026-04-13T14:03:21.265Z</time></trkpt><trkpt lat="43.8821378" lon="12.9009443"><ele>21.666666666666668</ele><time>2026-04-13T14:03:22.266Z</time></trkpt><trkpt lat="43.8822737" lon="12.9010651"><ele>20.0</ele><time>2026-04-13T14:03:23.265Z</time></trkpt><trkpt lat="43.8824084" lon="12.9011769"><ele>20.0</ele><time>2026-04-13T14:03:24.265Z</time></trkpt><trkpt lat="43.8825311" lon="12.9012712"><ele>20.0</ele><time>2026-04-13T14:03:25.265Z</time></trkpt><trkpt lat="43.8826436" lon="12.9013517"><ele>20.0</ele><time>2026-04-13T14:03:26.266Z</time></trkpt><trkpt lat="43.8827491" lon="12.9014006"><ele>20.0</ele><time>2026-04-13T14:03:27.264Z</time></trkpt><trkpt lat="43.8828366" lon="12.901437"><ele>20.0</ele><time>2026-04-13T14:03:28.265Z</time></trkpt><trkpt lat="43.8829131" lon="12.9014682"><ele>20.0</ele><time>2026-04-13T14:03:29.266Z</time></trkpt><trkpt lat="43.8830031" lon="12.9014981"><ele>20.0</ele><time>2026-04-13T14:03:31.266Z</time></trkpt><trkpt lat="43.8830698" lon="12.9015188"><ele>20.0</ele><time>2026-04-13T14:03:34.266Z</time></trkpt><trkpt lat="43.8831519" lon="12.9015542"><ele>20.0</ele><time>2026-04-13T14:03:36.266Z</time></trkpt><trkpt lat="43.8832415" lon="12.9015893"><ele>20.0</ele><time>2026-04-13T14:03:38.264Z</time></trkpt><trkpt lat="43.8833476" lon="12.9016406"><ele>20.2</ele><time>2026-04-13T14:03:40.265Z</time></trkpt><trkpt lat="43.8834651" lon="12.9016875"><ele>20.4</ele><time>2026-04-13T14:03:42.265Z</time></trkpt><trkpt lat="43.883588" lon="12.9017437"><ele>20.6</ele><time>2026-04-13T14:03:44.265Z</time></trkpt><trkpt lat="43.8836587" lon="12.9017716"><ele>20.8</ele><time>2026-04-13T14:03:45.266Z</time></trkpt><trkpt lat="43.8837342" lon="12.9018078"><ele>21.0</ele><time>2026-04-13T14:03:46.265Z</time></trkpt><trkpt lat="43.8838138" lon="12.9018448"><ele>21.0</ele><time>2026-04-13T14:03:47.265Z</time></trkpt><trkpt lat="43.8838976" lon="12.90188"><ele>21.0</ele><time>2026-04-13T14:03:48.266Z</time></trkpt><trkpt lat="43.8839859" lon="12.901916"><ele>21.0</ele><time>2026-04-13T14:03:49.265Z</time></trkpt><trkpt lat="43.8840824" lon="12.9019495"><ele>21.0</ele><time>2026-04-13T14:03:50.265Z</time></trkpt><trkpt lat="43.8841854" lon="12.9019782"><ele>21.0</ele><time>2026-04-13T14:03:51.266Z</time></trkpt><trkpt lat="43.8842899" lon="12.9020021"><ele>20.2</ele><time>2026-04-13T14:03:52.266Z</time></trkpt><trkpt lat="43.8843855" lon="12.9020236"><ele>19.400000000000002</ele><time>2026-04-13T14:03:53.266Z</time></trkpt><trkpt lat="43.8844773" lon="12.9020371"><ele>18.6</ele><time>2026-04-13T14:03:54.265Z</time></trkpt><trkpt lat="43.8845775" lon="12.9020512"><ele>17.8</ele><time>2026-04-13T14:03:55.266Z</time></trkpt><trkpt lat="43.8846718" lon="12.902072"><ele>17.0</ele><time>2026-04-13T14:03:56.266Z</time></trkpt><trkpt lat="43.884756" lon="12.9020839"><ele>17.0</ele><time>2026-04-13T14:03:57.265Z</time></trkpt><trkpt lat="43.884844" lon="12.9020876"><ele>17.0</ele><time>2026-04-13T14:03:58.265Z</time></trkpt><trkpt lat="43.8849377" lon="12.9020947"><ele>17.0</ele><time>2026-04-13T14:03:59.265Z</time></trkpt><trkpt lat="43.8850228" lon="12.9021058"><ele>17.0</ele><time>2026-04-13T14:04:00.266Z</time></trkpt><trkpt lat="43.8851526" lon="12.9021214"><ele>17.0</ele><time>2026-04-13T14:04:01.265Z</time></trkpt><trkpt lat="43.8852799" lon="12.9021156"><ele>16.8</ele><time>2026-04-13T14:04:02.265Z</time></trkpt><trkpt lat="43.8853941" lon="12.9021092"><ele>16.6</ele><time>2026-04-13T14:04:03.265Z</time></trkpt><trkpt lat="43.8855022" lon="12.9020891"><ele>16.400000000000002</ele><time>2026-04-13T14:04:04.265Z</time></trkpt><trkpt lat="43.8856081" lon="12.9020642"><ele>16.2</ele><time>2026-04-13T14:04:05.265Z</time></trkpt><trkpt lat="43.8857103" lon="12.9020242"><ele>16.0</ele><time>2026-04-13T14:04:06.265Z</time></trkpt><trkpt lat="43.8858093" lon="12.9019696"><ele>16.0</ele><time>2026-04-13T14:04:07.265Z</time></trkpt><trkpt lat="43.8859083" lon="12.9018901"><ele>16.0</ele><time>2026-04-13T14:04:08.265Z</time></trkpt><trkpt lat="43.8860062" lon="12.9017996"><ele>16.0</ele><time>2026-04-13T14:04:09.265Z</time></trkpt><trkpt lat="43.8860995" lon="12.9017133"><ele>16.0</ele><time>2026-04-13T14:04:10.265Z</time></trkpt><trkpt lat="43.8861896" lon="12.9016251"><ele>15.75</ele><time>2026-04-13T14:04:11.266Z</time></trkpt><trkpt lat="43.8862862" lon="12.9015372"><ele>15.5</ele><time>2026-04-13T14:04:12.265Z</time></trkpt><trkpt lat="43.8863871" lon="12.901448"><ele>15.25</ele><time>2026-04-13T14:04:13.265Z</time></trkpt><trkpt lat="43.8864829" lon="12.9013601"><ele>15.0</ele><time>2026-04-13T14:04:14.265Z</time></trkpt><trkpt lat="43.8865758" lon="12.9012749"><ele>15.0</ele><time>2026-04-13T14:04:15.266Z</time></trkpt><trkpt lat="43.8866685" lon="12.9011963"><ele>15.0</ele><time>2026-04-13T14:04:16.265Z</time></trkpt><trkpt lat="43.8867669" lon="12.9011179"><ele>15.0</ele><time>2026-04-13T14:04:17.266Z</time></trkpt><trkpt lat="43.8868707" lon="12.901028"><ele>15.0</ele><time>2026-04-13T14:04:18.265Z</time></trkpt><trkpt lat="43.8869727" lon="12.9009459"><ele>15.0</ele><time>2026-04-13T14:04:19.265Z</time></trkpt><trkpt lat="43.887069" lon="12.9008666"><ele>15.0</ele><time>2026-04-13T14:04:20.265Z</time></trkpt><trkpt lat="43.8871643" lon="12.9007912"><ele>15.0</ele><time>2026-04-13T14:04:21.266Z</time></trkpt><trkpt lat="43.8872563" lon="12.9007197"><ele>15.0</ele><time>2026-04-13T14:04:22.265Z</time></trkpt><trkpt lat="43.8873481" lon="12.9006557"><ele>15.0</ele><time>2026-04-13T14:04:23.265Z</time></trkpt><trkpt lat="43.8874411" lon="12.9005923"><ele>15.0</ele><time>2026-04-13T14:04:24.265Z</time></trkpt><trkpt lat="43.887531" lon="12.9005247"><ele>15.0</ele><time>2026-04-13T14:04:25.264Z</time></trkpt><trkpt lat="43.887625" lon="12.9004644"><ele>15.0</ele><time>2026-04-13T14:04:26.265Z</time></trkpt><trkpt lat="43.8877183" lon="12.9004132"><ele>15.0</ele><time>2026-04-13T14:04:27.265Z</time></trkpt><trkpt lat="43.8878123" lon="12.9003682"><ele>15.0</ele><time>2026-04-13T14:04:28.265Z</time></trkpt><trkpt lat="43.8879092" lon="12.9003202"><ele>14.4</ele><time>2026-04-13T14:04:29.266Z</time></trkpt><trkpt lat="43.8880043" lon="12.9002713"><ele>13.8</ele><time>2026-04-13T14:04:30.265Z</time></trkpt><trkpt lat="43.8880984" lon="12.9002235"><ele>13.2</ele><time>2026-04-13T14:04:31.266Z</time></trkpt><trkpt lat="43.8881937" lon="12.900168"><ele>12.6</ele><time>2026-04-13T14:04:32.266Z</time></trkpt><trkpt lat="43.8882883" lon="12.900123"><ele>12.0</ele><time>2026-04-13T14:04:33.265Z</time></trkpt><trkpt lat="43.8883794" lon="12.9000825"><ele>12.0</ele><time>2026-04-13T14:04:34.265Z</time></trkpt><trkpt lat="43.8884658" lon="12.9000515"><ele>12.0</ele><time>2026-04-13T14:04:35.265Z</time></trkpt><trkpt lat="43.8885488" lon="12.9000367"><ele>12.0</ele><time>2026-04-13T14:04:36.265Z</time></trkpt><trkpt lat="43.8886198" lon="12.9000357"><ele>12.0</ele><time>2026-04-13T14:04:37.265Z</time></trkpt><trkpt lat="43.8887267" lon="12.9000514"><ele>12.0</ele><time>2026-04-13T14:04:39.266Z</time></trkpt><trkpt lat="43.8888213" lon="12.900079"><ele>12.0</ele><time>2026-04-13T14:04:42.265Z</time></trkpt><trkpt lat="43.888886" lon="12.9001075"><ele>12.0</ele><time>2026-04-13T14:04:43.266Z</time></trkpt><trkpt lat="43.8889585" lon="12.9001746"><ele>12.0</ele><time>2026-04-13T14:04:44.265Z</time></trkpt><trkpt lat="43.8890605" lon="12.9002938"><ele>12.0</ele><time>2026-04-13T14:04:45.265Z</time></trkpt><trkpt lat="43.8891514" lon="12.900373"><ele>12.0</ele><time>2026-04-13T14:04:46.265Z</time></trkpt><trkpt lat="43.8892498" lon="12.9004072"><ele>12.0</ele><time>2026-04-13T14:04:47.264Z</time></trkpt><trkpt lat="43.88935" lon="12.900384"><ele>11.75</ele><time>2026-04-13T14:04:48.265Z</time></trkpt><trkpt lat="43.8894456" lon="12.9003145"><ele>11.5</ele><time>2026-04-13T14:04:49.266Z</time></trkpt><trkpt lat="43.8895318" lon="12.9001965"><ele>11.25</ele><time>2026-04-13T14:04:50.266Z</time></trkpt><trkpt lat="43.8896407" lon="12.9000176"><ele>11.0</ele><time>2026-04-13T14:04:51.265Z</time></trkpt><trkpt lat="43.8897763" lon="12.8997971"><ele>10.75</ele><time>2026-04-13T14:04:52.265Z</time></trkpt><trkpt lat="43.8898715" lon="12.8996238"><ele>10.5</ele><time>2026-04-13T14:04:53.264Z</time></trkpt><trkpt lat="43.8899649" lon="12.8994613"><ele>10.25</ele><time>2026-04-13T14:04:54.265Z</time></trkpt><trkpt lat="43.8900508" lon="12.8993643"><ele>10.0</ele><time>2026-04-13T14:04:55.265Z</time></trkpt><trkpt lat="43.8901521" lon="12.8992987"><ele>10.0</ele><time>2026-04-13T14:04:56.266Z</time></trkpt><trkpt lat="43.8902754" lon="12.8992668"><ele>10.0</ele><time>2026-04-13T14:04:57.266Z</time></trkpt><trkpt lat="43.8904072" lon="12.8992488"><ele>10.0</ele><time>2026-04-13T14:04:58.265Z</time></trkpt><trkpt lat="43.8905652" lon="12.8992333"><ele>10.0</ele><time>2026-04-13T14:04:59.266Z</time></trkpt><trkpt lat="43.8907292" lon="12.8992159"><ele>10.666666666666668</ele><time>2026-04-13T14:05:00.265Z</time></trkpt><trkpt lat="43.8909054" lon="12.8991948"><ele>11.333333333333334</ele><time>2026-04-13T14:05:01.265Z</time></trkpt><trkpt lat="43.8910808" lon="12.8991746"><ele>12.0</ele><time>2026-04-13T14:05:02.265Z</time></trkpt><trkpt lat="43.891245" lon="12.8991568"><ele>12.0</ele><time>2026-04-13T14:05:03.266Z</time></trkpt><trkpt lat="43.8914036" lon="12.8991389"><ele>12.0</ele><time>2026-04-13T14:05:04.265Z</time></trkpt><trkpt lat="43.8915435" lon="12.8991148"><ele>12.0</ele><time>2026-04-13T14:05:05.265Z</time></trkpt><trkpt lat="43.8916601" lon="12.8990879"><ele>12.0</ele><time>2026-04-13T14:05:06.265Z</time></trkpt><trkpt lat="43.8917511" lon="12.8990606"><ele>12.2</ele><time>2026-04-13T14:05:07.265Z</time></trkpt><trkpt lat="43.891819" lon="12.8990387"><ele>12.399999999999999</ele><time>2026-04-13T14:05:08.266Z</time></trkpt><trkpt lat="43.8919722" lon="12.8990571"><ele>12.600000000000001</ele><time>2026-04-13T14:05:10.266Z</time></trkpt><trkpt lat="43.8920449" lon="12.8990547"><ele>12.8</ele><time>2026-04-13T14:05:11.265Z</time></trkpt><trkpt lat="43.8921075" lon="12.8990283"><ele>13.0</ele><time>2026-04-13T14:05:12.265Z</time></trkpt><trkpt lat="43.8921452" lon="12.8988639"><ele>13.0</ele><time>2026-04-13T14:05:14.266Z</time></trkpt><trkpt lat="43.8921303" lon="12.8987093"><ele>13.0</ele><time>2026-04-13T14:05:15.265Z</time></trkpt><trkpt lat="43.892124" lon="12.8985549"><ele>13.0</ele><time>2026-04-13T14:05:16.265Z</time></trkpt><trkpt lat="43.8921456" lon="12.8984214"><ele>13.0</ele><time>2026-04-13T14:05:17.265Z</time></trkpt><trkpt lat="43.8921961" lon="12.8982768"><ele>13.0</ele><time>2026-04-13T14:05:18.266Z</time></trkpt><trkpt lat="43.8922811" lon="12.8981298"><ele>13.0</ele><time>2026-04-13T14:05:19.266Z</time></trkpt><trkpt lat="43.8923751" lon="12.8979894"><ele>13.0</ele><time>2026-04-13T14:05:20.266Z</time></trkpt><trkpt lat="43.8924529" lon="12.8978703"><ele>13.0</ele><time>2026-04-13T14:05:21.265Z</time></trkpt><trkpt lat="43.8925235" lon="12.8977655"><ele>13.0</ele><time>2026-04-13T14:05:22.266Z</time></trkpt><trkpt lat="43.8925915" lon="12.8976681"><ele>12.200000000000001</ele><time>2026-04-13T14:05:23.266Z</time></trkpt><trkpt lat="43.8926609" lon="12.8975628"><ele>11.4</ele><time>2026-04-13T14:05:24.266Z</time></trkpt><trkpt lat="43.8927263" lon="12.897482"><ele>10.600000000000001</ele><time>2026-04-13T14:05:25.266Z</time></trkpt><trkpt lat="43.8928382" lon="12.8973592"><ele>9.8</ele><time>2026-04-13T14:05:27.265Z</time></trkpt><trkpt lat="43.8929148" lon="12.8972439"><ele>9.0</ele><time>2026-04-13T14:05:28.265Z</time></trkpt><trkpt lat="43.8930111" lon="12.8971006"><ele>9.0</ele><time>2026-04-13T14:05:29.266Z</time></trkpt><trkpt lat="43.8931277" lon="12.8969348"><ele>9.0</ele><time>2026-04-13T14:05:30.266Z</time></trkpt><trkpt lat="43.8932387" lon="12.8967728"><ele>9.0</ele><time>2026-04-13T14:05:31.266Z</time></trkpt><trkpt lat="43.893336" lon="12.896625"><ele>8.8</ele><time>2026-04-13T14:05:32.265Z</time></trkpt><trkpt lat="43.8934299" lon="12.8964847"><ele>8.600000000000001</ele><time>2026-04-13T14:05:33.264Z</time></trkpt><trkpt lat="43.8935002" lon="12.8963942"><ele>8.4</ele><time>2026-04-13T14:05:34.265Z</time></trkpt><trkpt lat="43.8935659" lon="12.8962976"><ele>8.200000000000001</ele><time>2026-04-13T14:05:35.266Z</time></trkpt><trkpt lat="43.8936246" lon="12.8962155"><ele>8.0</ele><time>2026-04-13T14:05:36.265Z</time></trkpt><trkpt lat="43.8937046" lon="12.8961212"><ele>8.0</ele><time>2026-04-13T14:05:38.265Z</time></trkpt><trkpt lat="43.8938029" lon="12.8961564"><ele>8.0</ele><time>2026-04-13T14:05:40.265Z</time></trkpt><trkpt lat="43.8938636" lon="12.8962345"><ele>8.0</ele><time>2026-04-13T14:05:41.265Z</time></trkpt><trkpt lat="43.8939356" lon="12.896334"><ele>8.0</ele><time>2026-04-13T14:05:42.265Z</time></trkpt><trkpt lat="43.8940143" lon="12.8964429"><ele>8.0</ele><time>2026-04-13T14:05:43.265Z</time></trkpt><trkpt lat="43.8940929" lon="12.8965487"><ele>8.0</ele><time>2026-04-13T14:05:44.265Z</time></trkpt><trkpt lat="43.8941675" lon="12.8966509"><ele>8.0</ele><time>2026-04-13T14:05:45.265Z</time></trkpt><trkpt lat="43.8942501" lon="12.8967491"><ele>8.0</ele><time>2026-04-13T14:05:46.266Z</time></trkpt><trkpt lat="43.8943321" lon="12.8968639"><ele>8.0</ele><time>2026-04-13T14:05:47.266Z</time></trkpt><trkpt lat="43.8944188" lon="12.8969821"><ele>8.0</ele><time>2026-04-13T14:05:48.265Z</time></trkpt><trkpt lat="43.894509" lon="12.8971044"><ele>8.0</ele><time>2026-04-13T14:05:49.265Z</time></trkpt><trkpt lat="43.8946002" lon="12.8972272"><ele>8.0</ele><time>2026-04-13T14:05:50.265Z</time></trkpt><trkpt lat="43.8946914" lon="12.8973506"><ele>8.0</ele><time>2026-04-13T14:05:51.265Z</time></trkpt><trkpt lat="43.8947817" lon="12.8974767"><ele>8.600000000000001</ele><time>2026-04-13T14:05:52.266Z</time></trkpt><trkpt lat="43.8948672" lon="12.897596"><ele>9.200000000000001</ele><time>2026-04-13T14:05:53.266Z</time></trkpt><trkpt lat="43.8949443" lon="12.8976938"><ele>9.8</ele><time>2026-04-13T14:05:54.266Z</time></trkpt><trkpt lat="43.8950107" lon="12.8977782"><ele>10.4</ele><time>2026-04-13T14:05:55.266Z</time></trkpt><trkpt lat="43.8950561" lon="12.8978441"><ele>11.0</ele><time>2026-04-13T14:05:56.265Z</time></trkpt><trkpt lat="43.8951041" lon="12.8979202"><ele>11.4</ele><time>2026-04-13T14:05:58.265Z</time></trkpt><trkpt lat="43.8951431" lon="12.8980109"><ele>11.8</ele><time>2026-04-13T14:06:01.265Z</time></trkpt><trkpt lat="43.8952078" lon="12.8981793"><ele>12.200000000000001</ele><time>2026-04-13T14:06:04.266Z</time></trkpt><trkpt lat="43.8953065" lon="12.8982527"><ele>12.600000000000001</ele><time>2026-04-13T14:06:06.265Z</time></trkpt><trkpt lat="43.8954094" lon="12.8981641"><ele>13.0</ele><time>2026-04-13T14:06:08.265Z</time></trkpt><trkpt lat="43.895459" lon="12.898074"><ele>13.0</ele><time>2026-04-13T14:06:09.265Z</time></trkpt><trkpt lat="43.8955283" lon="12.8979573"><ele>13.0</ele><time>2026-04-13T14:06:10.266Z</time></trkpt><trkpt lat="43.8956275" lon="12.8978109"><ele>13.0</ele><time>2026-04-13T14:06:11.265Z</time></trkpt><trkpt lat="43.8957321" lon="12.8976575"><ele>13.0</ele><time>2026-04-13T14:06:12.265Z</time></trkpt><trkpt lat="43.8958289" lon="12.8975104"><ele>12.5</ele><time>2026-04-13T14:06:13.265Z</time></trkpt><trkpt lat="43.8959303" lon="12.8973515"><ele>12.0</ele><time>2026-04-13T14:06:14.264Z</time></trkpt><trkpt lat="43.8960212" lon="12.8972071"><ele>11.5</ele><time>2026-04-13T14:06:15.266Z</time></trkpt><trkpt lat="43.8961057" lon="12.8970823"><ele>11.0</ele><time>2026-04-13T14:06:16.265Z</time></trkpt><trkpt lat="43.89619" lon="12.8969545"><ele>11.0</ele><time>2026-04-13T14:06:17.266Z</time></trkpt><trkpt lat="43.8962731" lon="12.8968331"><ele>11.0</ele><time>2026-04-13T14:06:18.265Z</time></trkpt><trkpt lat="43.896358" lon="12.8967113"><ele>11.0</ele><time>2026-04-13T14:06:19.265Z</time></trkpt><trkpt lat="43.8964446" lon="12.8965859"><ele>11.0</ele><time>2026-04-13T14:06:20.266Z</time></trkpt><trkpt lat="43.8965326" lon="12.8964593"><ele>10.833333333333332</ele><time>2026-04-13T14:06:21.266Z</time></trkpt><trkpt lat="43.8966056" lon="12.8963563"><ele>10.666666666666666</ele><time>2026-04-13T14:06:22.264Z</time></trkpt><trkpt lat="43.8966686" lon="12.8962578"><ele>10.5</ele><time>2026-04-13T14:06:23.265Z</time></trkpt><trkpt lat="43.8967072" lon="12.8961755"><ele>10.333333333333334</ele><time>2026-04-13T14:06:24.266Z</time></trkpt><trkpt lat="43.8967588" lon="12.896056"><ele>10.166666666666668</ele><time>2026-04-13T14:06:26.266Z</time></trkpt><trkpt lat="43.8968036" lon="12.8959919"><ele>10.0</ele><time>2026-04-13T14:06:27.265Z</time></trkpt><trkpt lat="43.8968582" lon="12.8959277"><ele>9.666666666666668</ele><time>2026-04-13T14:06:28.265Z</time></trkpt><trkpt lat="43.8968994" lon="12.8958599"><ele>9.333333333333334</ele><time>2026-04-13T14:06:29.265Z</time></trkpt><trkpt lat="43.8969205" lon="12.8957774"><ele>9.0</ele><time>2026-04-13T14:06:30.265Z</time></trkpt><trkpt lat="43.8969147" lon="12.8956829"><ele>8.666666666666666</ele><time>2026-04-13T14:06:31.266Z</time></trkpt><trkpt lat="43.8968816" lon="12.8955965"><ele>8.333333333333332</ele><time>2026-04-13T14:06:32.265Z</time></trkpt><trkpt lat="43.8968215" lon="12.8955135"><ele>8.0</ele><time>2026-04-13T14:06:33.265Z</time></trkpt><trkpt lat="43.8967554" lon="12.8954004"><ele>8.0</ele><time>2026-04-13T14:06:34.265Z</time></trkpt><trkpt lat="43.8966937" lon="12.8952701"><ele>8.0</ele><time>2026-04-13T14:06:35.265Z</time></trkpt><trkpt lat="43.8966189" lon="12.8951233"><ele>8.0</ele><time>2026-04-13T14:06:36.265Z</time></trkpt><trkpt lat="43.8965295" lon="12.8949809"><ele>8.0</ele><time>2026-04-13T14:06:37.266Z</time></trkpt><trkpt lat="43.896447" lon="12.8948622"><ele>8.0</ele><time>2026-04-13T14:06:38.265Z</time></trkpt><trkpt lat="43.8963647" lon="12.894743"><ele>8.0</ele><time>2026-04-13T14:06:39.265Z</time></trkpt><trkpt lat="43.8962723" lon="12.8946133"><ele>8.0</ele><time>2026-04-13T14:06:40.266Z</time></trkpt><trkpt lat="43.8961846" lon="12.8944849"><ele>8.0</ele><time>2026-04-13T14:06:41.265Z</time></trkpt><trkpt lat="43.8961118" lon="12.8943678"><ele>8.333333333333332</ele><time>2026-04-13T14:06:42.265Z</time></trkpt><trkpt lat="43.8960499" lon="12.894254"><ele>8.666666666666666</ele><time>2026-04-13T14:06:43.266Z</time></trkpt><trkpt lat="43.8960079" lon="12.8941423"><ele>9.0</ele><time>2026-04-13T14:06:44.265Z</time></trkpt><trkpt lat="43.8959825" lon="12.8940577"><ele>9.333333333333334</ele><time>2026-04-13T14:06:45.266Z</time></trkpt><trkpt lat="43.8959574" lon="12.893961"><ele>9.666666666666668</ele><time>2026-04-13T14:06:46.265Z</time></trkpt><trkpt lat="43.8959277" lon="12.893819"><ele>10.0</ele><time>2026-04-13T14:06:47.266Z</time></trkpt><trkpt lat="43.8958824" lon="12.8936018"><ele>10.0</ele><time>2026-04-13T14:06:48.264Z</time></trkpt><trkpt lat="43.8958241" lon="12.8933422"><ele>10.0</ele><time>2026-04-13T14:06:49.265Z</time></trkpt><trkpt lat="43.8957758" lon="12.8931034"><ele>10.0</ele><time>2026-04-13T14:06:50.266Z</time></trkpt><trkpt lat="43.8957358" lon="12.892901"><ele>10.0</ele><time>2026-04-13T14:06:51.265Z</time></trkpt><trkpt lat="43.8957008" lon="12.8927017"><ele>10.0</ele><time>2026-04-13T14:06:52.264Z</time></trkpt><trkpt lat="43.8956552" lon="12.8924724"><ele>10.0</ele><time>2026-04-13T14:06:53.266Z</time></trkpt><trkpt lat="43.8956059" lon="12.8922243"><ele>10.0</ele><time>2026-04-13T14:06:54.265Z</time></trkpt><trkpt lat="43.8955497" lon="12.8919567"><ele>10.0</ele><time>2026-04-13T14:06:55.265Z</time></trkpt><trkpt lat="43.8954924" lon="12.8916962"><ele>10.0</ele><time>2026-04-13T14:06:56.265Z</time></trkpt><trkpt lat="43.8954364" lon="12.8914542"><ele>10.0</ele><time>2026-04-13T14:06:57.265Z</time></trkpt><trkpt lat="43.8953886" lon="12.8912378"><ele>10.0</ele><time>2026-04-13T14:06:58.266Z</time></trkpt><trkpt lat="43.8953473" lon="12.8910595"><ele>10.0</ele><time>2026-04-13T14:06:59.264Z</time></trkpt><trkpt lat="43.8953171" lon="12.8909079"><ele>10.0</ele><time>2026-04-13T14:07:00.266Z</time></trkpt><trkpt lat="43.8953006" lon="12.8907962"><ele>10.2</ele><time>2026-04-13T14:07:01.265Z</time></trkpt><trkpt lat="43.8953373" lon="12.8906555"><ele>10.4</ele><time>2026-04-13T14:07:03.265Z</time></trkpt><trkpt lat="43.8953799" lon="12.8905786"><ele>10.600000000000001</ele><time>2026-04-13T14:07:04.266Z</time></trkpt><trkpt lat="43.8954913" lon="12.8904722"><ele>10.8</ele><time>2026-04-13T14:07:05.265Z</time></trkpt><trkpt lat="43.8955877" lon="12.8903703"><ele>11.0</ele><time>2026-04-13T14:07:06.265Z</time></trkpt><trkpt lat="43.8956905" lon="12.8902659"><ele>11.0</ele><time>2026-04-13T14:07:07.265Z</time></trkpt><trkpt lat="43.8957968" lon="12.8901606"><ele>11.0</ele><time>2026-04-13T14:07:08.265Z</time></trkpt><trkpt lat="43.8959001" lon="12.8900506"><ele>11.0</ele><time>2026-04-13T14:07:09.265Z</time></trkpt><trkpt lat="43.8959989" lon="12.8899523"><ele>11.0</ele><time>2026-04-13T14:07:10.265Z</time></trkpt><trkpt lat="43.8960903" lon="12.8898514"><ele>11.0</ele><time>2026-04-13T14:07:11.266Z</time></trkpt><trkpt lat="43.8961759" lon="12.8897543"><ele>11.0</ele><time>2026-04-13T14:07:12.266Z</time></trkpt><trkpt lat="43.8962548" lon="12.8896685"><ele>11.0</ele><time>2026-04-13T14:07:13.266Z</time></trkpt><trkpt lat="43.89633" lon="12.8895958"><ele>11.0</ele><time>2026-04-13T14:07:14.265Z</time></trkpt><trkpt lat="43.8964045" lon="12.8895195"><ele>11.0</ele><time>2026-04-13T14:07:15.265Z</time></trkpt><trkpt lat="43.896475" lon="12.889446"><ele>11.0</ele><time>2026-04-13T14:07:16.265Z</time></trkpt><trkpt lat="43.8965439" lon="12.8893739"><ele>11.0</ele><time>2026-04-13T14:07:17.266Z</time></trkpt><trkpt lat="43.8966098" lon="12.8893091"><ele>11.0</ele><time>2026-04-13T14:07:18.266Z</time></trkpt><trkpt lat="43.8966638" lon="12.8892549"><ele>14.0</ele><time>2026-04-13T14:07:19.266Z</time></trkpt><trkpt lat="43.8967175" lon="12.8892044"><ele>14.0</ele><time>2026-04-13T14:07:21.265Z</time></trkpt><trkpt lat="43.8968372" lon="12.8892671"><ele>11.0</ele><time>2026-04-13T14:09:11.266Z</time></trkpt></trkseg></trk></gpx>